[[[{"header":{"parameterUnit":"kt","parameterCategory":2,"dx":1,"dy":1,"la1":29.285339999999998,"la2":30.599998999999997,"lo1":-89.70041500000002,"lo2":-87.6738589999976,"nx":112,"ny":82,"refTime":"2022-09-21T18:00:00:Z","depth":0,"parameterNumber":1,"parameterNumberName":"U-component_of_WINDS"},"data":[-2.9039,-2.5135,-2.1079,-2.1831,-2.0483,-1.8679,-1.7741,-1.7852,-1.8181,-1.8103,-1.6669,-1.6262,-1.9104,-1.7189,-1.5447,-1.6304,-1.502,-1.3433,0.0,-1.2531,-1.2905,-1.2894,-1.7908,-2.2267,-2.4671,-2.9938,-3.4695,-3.8231,-4.1021,-4.3885,-4.6959,-4.8568,-5.0212,-5.1892,-5.5196,-5.6809,-5.6465,-5.8131,-5.8672,-5.8107,-5.8099,-5.7971,-5.772,-5.7731,-5.764,-5.7504,-5.7519,-5.7315,-5.6877,-5.6877,-5.6689,-5.6323,-5.6074,-5.5957,-5.5993,-5.6654,-5.688,-5.6852,-5.6847,-5.6689,-5.6475,-5.6216,-5.6252,-5.6359,-5.6074,-5.6181,-5.6359,-5.6359,-5.6359,-5.6359,-5.6359,-5.6359,-5.6359,-5.6359,-5.6176,-5.5966,-5.5948,-5.5779,-5.5592,-5.5592,-5.5592,-5.5592,-5.5592,-5.5592,-5.5779,-5.6288,-5.6145,-5.5957,-5.5957,-5.5779,-5.5592,-5.5592,-5.5592,-5.5598,-5.5609,-5.5645,-5.5645,-5.5645,-5.5645,-5.5645,-5.5645,-5.5645,-5.5645,-5.5645,-5.5645,-5.5645,-5.5645,-5.5645,-5.5645,-5.5645,-5.5645,-5.5645,-2.5354,-2.1299,-1.7672,-1.9289,-1.78,-1.6072,-1.6508,-1.6653,-1.6839,-1.724,-1.6493,-1.6138,-1.7337,-1.6373,-1.5288,-1.495,-1.493,-1.4525,0.0,-1.3455,-1.448,-1.6284,-2.2014,-2.6489,-2.8263,-3.4032,-3.7912,-3.8585,-4.2795,-4.5903,-4.7179,-4.9818,-5.1789,-5.2892,-5.6207,-5.784,-5.7662,-5.8793,-5.9137,-5.87,-5.866,-5.8517,-5.8275,-5.8221,-5.8094,-5.7936,-5.7935,-5.7696,-5.733,-5.7371,-5.7127,-5.6841,-5.6689,-5.6725,-5.6895,-5.7209,-5.7509,-5.775,-5.7734,-5.7733,-5.7696,-5.7442,-5.7334,-5.7315,-5.6948,-5.6841,-5.6841,-5.6841,-5.6841,-5.685,-5.6861,-5.6753,-5.6646,-5.6793,-5.661,-5.6402,-5.6596,-5.6484,-5.6359,-5.6359,-5.6359,-5.6359,-5.6359,-5.6546,-5.6582,-5.6359,-5.6359,-5.6359,-5.6359,-5.6359,-5.6359,-5.6359,-5.6359,-5.6359,-5.6359,-5.6359,-5.6359,-5.6359,-5.6359,-5.6359,-5.6359,-5.6359,-5.6359,-5.6359,-5.6359,-5.6359,-5.6359,-5.6359,-5.6359,-5.6359,-5.6359,-5.6359,-1.8878,-1.7292,-1.7231,-1.6843,-1.6943,-1.7141,-1.713,-1.7329,-1.7624,-1.8012,-1.8032,-1.8032,-1.8048,-1.6928,-1.5473,-1.4006,-1.3953,0.0,0.0,-1.3212,-1.6226,-2.1453,-2.6267,-2.9839,-3.157,-3.6277,-3.871,-3.7438,-4.3396,-4.7191,-4.7305,-5.1975,-5.4633,-5.4633,-5.7804,-5.9504,-5.9493,-5.9504,-5.9504,-5.9493,-5.9341,-5.9266,-5.9292,-5.9177,-5.8827,-5.8356,-5.8319,-5.8132,-5.7777,-5.7766,-5.7735,-5.7699,-5.7332,-5.7404,-5.778,-5.7757,-5.7795,-5.7795,-5.7795,-5.7795,-5.7795,-5.7758,-5.7744,-5.7735,-5.7735,-5.7735,-5.7735,-5.7717,-5.7762,-5.7723,-5.7728,-5.7437,-5.7295,-5.762,-5.7041,-5.654,-5.7067,-5.6782,-5.6395,-5.6395,-5.6395,-5.6395,-5.6359,-5.6841,-5.6984,-5.6511,-5.6395,-5.6395,-5.6395,-5.6395,-5.6359,-5.6359,-5.6359,-5.6359,-5.6359,-5.6359,-5.6359,-5.6359,-5.6359,-5.6404,-5.6404,-5.6404,-5.6404,-5.6404,-5.6404,-5.6404,-5.6404,-5.6404,-5.6404,-5.6404,-5.6404,-5.6413,-1.7746,-1.7562,-1.7739,-1.7242,-1.7402,-1.7677,-1.7793,-1.7865,-1.794,-1.8048,-1.7256,0.0,0.0,0.0,-1.6225,-1.7147,0.0,-1.9972,-1.7484,-2.1642,-2.5927,-2.8526,-2.9081,-3.1444,-3.6889,-4.0802,-4.3871,-4.5944,-4.7738,-4.8786,-4.8938,-5.2544,-5.4633,-5.4633,-5.7777,-5.9489,-5.9478,-5.9484,-5.9468,-5.9493,-5.946,-5.9422,-5.9443,-5.9289,-5.9126,-5.9014,-5.8902,-5.8603,-5.8146,-5.8165,-5.7996,-5.7708,-5.7597,-5.8033,-5.8675,-5.8275,-5.8393,-5.8715,-5.8715,-5.8715,-5.8678,-5.8281,-5.8175,-5.8107,-5.7811,-5.7708,-5.7756,-5.7756,-5.7752,-5.7729,-5.7735,-5.7662,-5.7586,-5.7715,-5.7535,-5.742,-5.7529,-5.7474,-5.735,-5.735,-5.735,-5.7279,-5.6984,-5.7315,-5.7493,-5.7386,-5.735,-5.735,-5.735,-5.7091,-5.6948,-5.6948,-5.6618,-5.6359,-5.6359,-5.6725,-5.6761,-5.6359,-5.6359,-5.6545,-5.6932,-5.6589,-5.6545,-5.6932,-5.6932,-5.6932,-5.6932,-5.6932,-5.6932,-5.6932,-5.7219,-5.7333,-1.7835,-1.8095,-1.8144,-1.7732,-1.7983,-1.8378,-1.8331,-1.8413,-1.8494,-1.8553,0.0,0.0,0.0,0.0,0.0,0.0,-2.2295,-2.4242,-2.2662,-2.6878,-3.0787,-3.2483,-3.508,-3.7966,-4.1288,-4.3984,-4.6305,-4.8343,-4.9038,-4.975,-5.0591,-5.3788,-5.5598,-5.56,-5.8128,-5.9472,-5.9492,-5.9472,-5.9485,-5.9548,-5.9498,-5.9484,-5.9562,-5.9417,-5.9376,-5.9373,-5.9299,-5.9052,-5.8715,-5.8715,-5.8566,-5.8311,-5.843,-5.8778,-5.9126,-5.8827,-5.8902,-5.9187,-5.9187,-5.9224,-5.9224,-5.8902,-5.8753,-5.8678,-5.8454,-5.8356,-5.8287,-5.8299,-5.8309,-5.8323,-5.8291,-5.8135,-5.8025,-5.8271,-5.8017,-5.7748,-5.793,-5.7854,-5.7734,-5.7734,-5.7734,-5.7698,-5.7661,-5.7843,-5.7916,-5.7734,-5.7734,-5.7734,-5.7734,-5.7552,-5.7403,-5.7404,-5.7127,-5.6948,-5.6948,-5.7243,-5.7279,-5.6948,-5.6948,-5.7069,-5.736,-5.7134,-5.7101,-5.7406,-5.7406,-5.7406,-5.7406,-5.7406,-5.748,-5.7621,-5.769,-5.7724,-1.8696,-1.8756,-1.8471,-1.8278,-1.8667,-1.9112,-1.9223,0.0,-1.9716,-2.0173,0.0,-2.0536,-2.0536,0.0,0.0,-2.0713,-2.4494,-2.7382,-2.712,-3.0556,-3.3793,-3.5716,-4.2167,-4.5986,-4.4917,-4.617,-4.7258,-4.782,-4.9128,-5.0624,-5.2234,-5.5234,-5.6937,-5.6914,-5.8565,-5.9445,-5.9469,-5.9469,-5.9515,-5.9668,-5.9554,-5.953,-5.9644,-5.953,-5.9472,-5.9455,-5.9455,-5.938,-5.9285,-5.9306,-5.9261,-5.9147,-5.9392,-5.9394,-5.9313,-5.9321,-5.9299,-5.9321,-5.9302,-5.938,-5.9493,-5.9493,-5.9418,-5.9305,-5.9305,-5.9238,-5.9126,-5.9126,-5.9134,-5.9119,-5.9119,-5.8809,-5.859,-5.9052,-5.8516,-5.8019,-5.8336,-5.8132,-5.7908,-5.7908,-5.7908,-5.802,-5.8356,-5.8454,-5.8319,-5.7982,-5.7908,-5.7908,-5.7908,-5.7833,-5.7785,-5.7808,-5.7744,-5.7744,-5.7744,-5.778,-5.7766,-5.7717,-5.7779,-5.7756,-5.7733,-5.7766,-5.7789,-5.7789,-5.7789,-5.7789,-5.7789,-5.7789,-5.8014,-5.8369,-5.8076,-5.7887,-1.9434,-1.9209,-1.8929,-1.8988,-1.9099,-1.983,0.0,0.0,0.0,-2.5936,-2.7478,-2.8333,-2.8333,-2.8333,-2.8393,-2.8531,-3.0735,-3.1581,-2.9079,-3.6942,-4.3547,-4.5199,-4.4476,-4.4917,-4.7512,-4.8091,-4.9533,-5.2598,-5.3136,-5.345,-5.3786,-5.5607,-5.6637,-5.6629,-5.828,-5.9215,-5.9313,-5.9313,-5.9403,-5.9506,-5.9494,-5.9492,-5.953,-5.9378,-5.9335,-5.9342,-5.9342,-5.9304,-5.9289,-5.9382,-5.9411,-5.9409,-5.9354,-5.936,-5.9426,-5.9435,-5.9448,-5.943,-5.9432,-5.9456,-5.9494,-5.9494,-5.9456,-5.9456,-5.9456,-5.9419,-5.9411,-5.9411,-5.94,-5.9414,-5.9414,-5.9312,-5.9306,-5.9393,-5.9183,-5.9021,-5.9104,-5.8939,-5.8827,-5.8827,-5.8827,-5.8902,-5.9224,-5.9261,-5.9187,-5.9014,-5.8977,-5.8939,-5.8827,-5.8491,-5.8187,-5.8192,-5.7942,-5.7757,-5.7757,-5.8016,-5.8066,-5.7735,-5.8013,-5.8063,-5.7734,-5.8066,-5.8197,-5.8197,-5.8197,-5.8197,-5.8197,-5.8197,-5.8434,-5.8944,-5.8976,-5.8932,-1.9635,-1.9505,-1.9337,-1.9264,-1.9297,0.0,0.0,-2.3596,-2.5647,-2.6693,-2.9144,-3.1172,-3.1454,-3.1058,-3.1255,-3.2965,-3.5546,-3.7285,-3.7175,-4.2736,-4.7443,-4.9024,-4.8511,-4.8745,-5.0568,-5.0735,-5.1509,-5.3417,-5.425,-5.4719,-5.471,-5.6271,-5.7138,-5.7138,-5.8169,-5.873,-5.8801,-5.9046,-5.9271,-5.9384,-5.9379,-5.9417,-5.9493,-5.9417,-5.9368,-5.9368,-5.9368,-5.9328,-5.9302,-5.9373,-5.9411,-5.9492,-5.9416,-5.9369,-5.9386,-5.947,-5.9493,-5.9498,-5.9557,-5.9644,-5.9758,-5.9758,-5.9758,-5.9758,-5.9606,-5.9593,-5.9571,-5.9501,-5.9477,-5.9477,-5.9478,-5.9483,-5.9493,-5.9493,-5.9441,-5.9373,-5.9374,-5.9342,-5.9299,-5.9299,-5.9301,-5.9341,-5.9455,-5.9493,-5.9455,-5.9417,-5.9382,-5.9373,-5.9299,-5.9052,-5.8865,-5.879,-5.8678,-5.8603,-5.8528,-5.8678,-5.8707,-5.8556,-5.8691,-5.8729,-5.8537,-5.8759,-5.8885,-5.8892,-5.8912,-5.8868,-5.8813,-5.8868,-5.9046,-5.9284,-5.9359,-5.9344,-1.9649,-1.9651,-1.9607,-1.9376,-1.9413,0.0,-2.1357,-2.4533,-2.7485,-2.8345,-3.1143,-3.3672,-3.4524,-3.3987,-3.4296,-3.7067,-3.9607,-4.2376,-4.5691,-4.7512,-4.9119,-5.0894,-5.1982,-5.2924,-5.3644,-5.3389,-5.3381,-5.3776,-5.4987,-5.5696,-5.5692,-5.6997,-5.7714,-5.7735,-5.8057,-5.8206,-5.8206,-5.864,-5.8902,-5.9089,-5.9089,-5.9224,-5.9411,-5.9411,-5.9411,-5.9411,-5.9411,-5.9388,-5.9271,-5.93,-5.9359,-5.9455,-5.9449,-5.9418,-5.9342,-5.9456,-5.9519,-5.953,-5.9644,-5.9834,-6.0062,-6.0062,-6.0062,-6.0024,-5.9796,-5.9758,-5.9716,-5.9624,-5.9582,-5.9585,-5.959,-5.9612,-5.9583,-5.9607,-5.9551,-5.953,-5.953,-5.9518,-5.9496,-5.9571,-5.9592,-5.9606,-5.9606,-5.9606,-5.9568,-5.953,-5.9525,-5.9496,-5.9459,-5.9459,-5.9421,-5.9346,-5.943,-5.9425,-5.9327,-5.9308,-5.9345,-5.9299,-5.9336,-5.9344,-5.9339,-5.9414,-5.9468,-5.9493,-5.9493,-5.9419,-5.9312,-5.9457,-5.9515,-5.9493,-5.9515,-5.9515,-1.9638,-1.9718,-1.9756,-1.9629,-1.9709,0.0,-2.7579,-2.8389,-2.9944,-3.7289,-3.9233,-4.0227,-4.2096,-4.2419,-4.2603,-4.3554,-4.3051,-4.4291,-4.9254,-5.0117,-5.1087,-5.3348,-5.2573,-5.3132,-5.634,-5.5293,-5.5186,-5.7031,-5.7358,-5.7443,-5.7456,-5.7636,-5.7735,-5.7712,-5.7795,-5.7795,-5.7795,-5.787,-5.8057,-5.8454,-5.8454,-5.8678,-5.9126,-5.9126,-5.9126,-5.9126,-5.9261,-5.9291,-5.9289,-5.9398,-5.9414,-5.9316,-5.9328,-5.938,-5.9455,-5.9493,-5.9557,-5.9644,-5.9682,-5.9834,-6.0062,-6.0062,-6.0062,-6.0062,-6.0024,-6.0024,-6.0024,-6.0021,-6.0017,-6.0015,-6.002,-6.0021,-6.0021,-6.0022,-5.9834,-5.9644,-5.9644,-5.9565,-5.9595,-5.9936,-6.0021,-6.0024,-6.0024,-6.0024,-5.991,-5.9682,-5.964,-5.9633,-5.9519,-5.9481,-5.9481,-5.9481,-5.9487,-5.9493,-5.9468,-5.9481,-5.9441,-5.9478,-5.9448,-5.9438,-5.9457,-5.9495,-5.9481,-5.9493,-5.9493,-5.9481,-5.9469,-5.96,-5.9609,-5.9493,-5.9609,-5.9609,-1.8798,-1.9864,-1.9824,-1.9763,0.0,0.0,-2.5821,-3.0512,-3.501,-3.7064,-4.0723,-4.3929,-4.512,-4.5476,-4.6073,-4.7316,-4.7074,-4.7808,-5.0866,-5.1696,-5.2591,-5.4458,-5.4542,-5.5028,-5.6531,-5.6071,-5.5975,-5.6905,-5.6941,-5.6958,-5.6913,-5.6948,-5.6946,-5.6933,-5.722,-5.7423,-5.7406,-5.7625,-5.7807,-5.7989,-5.8006,-5.8094,-5.8319,-5.8528,-5.864,-5.8678,-5.9014,-5.9187,-5.9134,-5.8882,-5.8751,-5.8723,-5.906,-5.9224,-5.9261,-5.9336,-5.9402,-5.9457,-5.9551,-5.9644,-5.972,-5.972,-5.972,-5.972,-5.972,-5.9758,-5.9827,-5.9818,-5.9941,-6.0062,-6.0062,-6.0062,-6.0062,-6.0062,-5.9986,-5.991,-5.991,-5.9834,-5.9834,-5.9834,-5.9834,-5.9872,-6.0062,-6.0062,-6.0024,-5.991,-5.991,-5.9872,-5.9834,-5.9796,-5.9758,-5.9606,-5.9739,-5.9752,-5.9605,-5.9606,-5.9592,-5.9612,-5.9594,-5.96,-5.9603,-5.9717,-5.9793,-5.9793,-5.9793,-5.9793,-5.9793,-5.9855,-5.9855,-5.9831,-5.9855,-5.9855,-1.8186,0.0,0.0,0.0,0.0,0.0,-2.703,-3.2595,-3.7491,-3.7585,-4.1523,-4.5356,-4.6258,-4.7039,-4.8095,-4.9904,-5.021,-5.0693,-5.2038,-5.2648,-5.3446,-5.48,-5.5463,-5.5789,-5.5789,-5.5966,-5.5966,-5.5789,-5.6141,-5.6268,-5.6084,-5.6268,-5.6359,-5.6359,-5.6526,-5.6741,-5.6913,-5.7243,-5.7422,-5.7574,-5.7544,-5.7634,-5.7708,-5.8033,-5.8182,-5.8169,-5.8566,-5.8709,-5.8692,-5.8293,-5.8145,-5.8206,-5.8566,-5.8715,-5.8715,-5.8827,-5.8865,-5.896,-5.9195,-5.9272,-5.9348,-5.9462,-5.9499,-5.9499,-5.9499,-5.9537,-5.9616,-5.9615,-5.9745,-5.9901,-5.9896,-5.9924,-5.992,-5.9889,-5.9906,-5.9901,-5.9908,-5.9889,-5.9841,-5.9651,-5.963,-5.9682,-5.991,-5.9948,-5.9986,-6.0062,-6.0062,-6.0062,-6.0062,-6.0062,-5.9986,-5.9796,-5.9948,-5.9986,-5.9796,-5.9796,-5.9796,-5.9796,-5.9796,-5.9796,-5.9796,-5.9986,-6.0062,-6.0062,-6.0062,-6.0062,-6.0062,-6.0062,-6.0062,-6.0062,-6.0062,-6.0062,0.0,0.0,0.0,-1.981,-2.171,-2.5942,-3.5028,-3.5181,-3.5254,-4.1767,-4.3258,-4.4056,-4.6079,-4.7597,-4.9287,-5.1484,-5.1817,-5.2139,-5.2912,-5.3032,-5.3363,-5.4173,-5.4283,-5.4283,-5.4283,-5.4888,-5.4991,-5.4338,-5.5596,-5.6037,-5.5287,-5.5943,-5.6359,-5.6359,-5.5646,-5.5646,-5.6359,-5.6395,-5.6654,-5.7163,-5.7181,-5.7368,-5.7735,-5.777,-5.7772,-5.7758,-5.7795,-5.7756,-5.777,-5.777,-5.7771,-5.7758,-5.7795,-5.7795,-5.7795,-5.7795,-5.787,-5.802,-5.8551,-5.8798,-5.897,-5.9381,-5.9493,-5.9493,-5.9493,-5.9493,-5.9496,-5.9489,-5.9502,-5.9495,-5.9488,-5.9495,-5.9516,-5.9519,-5.9489,-5.9477,-5.9513,-5.9519,-5.9493,-5.9493,-5.9498,-5.953,-5.9644,-5.9682,-5.9758,-6.0024,-6.0062,-6.0062,-6.0062,-6.0062,-6.0062,-6.0062,-6.0062,-6.0062,-6.0062,-6.0062,-6.0062,-6.0062,-6.0062,-6.0062,-6.0062,-6.0062,-6.0062,-6.0062,-6.0062,-6.0062,-6.0062,-6.0062,-6.0062,-6.0062,-6.0062,-6.0062,-1.9152,-1.9751,-2.024,-2.2511,-2.7542,-3.2322,-3.39,-3.7391,-4.0571,-4.1343,-4.4222,-4.678,-4.7515,-4.8328,-4.9109,-4.9816,-4.9975,-5.0014,-5.0335,-5.1358,-5.2099,-5.2378,-5.3469,-5.4228,-5.4228,-5.4412,-5.4466,-5.4228,-5.4661,-5.4853,-5.4563,-5.4834,-5.4954,-5.4938,-5.4675,-5.4708,-5.4933,-5.4978,-5.5262,-5.5851,-5.5851,-5.6216,-5.6841,-5.7163,-5.7348,-5.7332,-5.7624,-5.7379,-5.6877,-5.7243,-5.7312,-5.7332,-5.7624,-5.7733,-5.7733,-5.7733,-5.7733,-5.7806,-5.8025,-5.8267,-5.8528,-5.8678,-5.8939,-5.9224,-5.9224,-5.9289,-5.9344,-5.9344,-5.9432,-5.9477,-5.9482,-5.9482,-5.9457,-5.9492,-5.9496,-5.9484,-5.9485,-5.9327,-5.9261,-5.9336,-5.9327,-5.9381,-5.951,-5.9524,-5.9568,-5.9644,-5.9682,-5.9682,-5.9682,-5.9682,-5.9682,-5.9682,-5.9682,-5.972,-5.9796,-5.9796,-5.9796,-5.9796,-5.9986,-5.9986,-5.9796,-5.9986,-6.0062,-6.0062,-6.0062,-5.9936,-5.9692,-5.9692,-5.9692,-5.9692,-5.9692,-5.9692,-1.9622,-2.0949,-2.3326,-2.7369,-3.1348,-3.4596,-3.6007,-3.96,-4.2617,-4.2197,-4.5123,-4.7704,-4.7704,-4.8382,-4.9025,-4.9025,-4.9025,-4.9025,-4.9025,-4.9919,-5.0622,-5.0622,-5.1652,-5.254,-5.2851,-5.3118,-5.3295,-5.3396,-5.3561,-5.3571,-5.3309,-5.3515,-5.3529,-5.3256,-5.3894,-5.4111,-5.3829,-5.4089,-5.4454,-5.4819,-5.4893,-5.5227,-5.5957,-5.6288,-5.6618,-5.6877,-5.6582,-5.6145,-5.5654,-5.6222,-5.6442,-5.6511,-5.702,-5.7279,-5.7279,-5.7279,-5.7279,-5.7279,-5.7458,-5.7689,-5.7915,-5.8064,-5.8319,-5.8603,-5.8603,-5.8669,-5.8757,-5.8893,-5.9013,-5.9099,-5.9307,-5.9339,-5.935,-5.9363,-5.936,-5.9261,-5.8902,-5.8827,-5.8827,-5.8902,-5.9089,-5.9261,-5.9373,-5.9411,-5.9411,-5.9487,-5.9487,-5.9487,-5.9487,-5.9487,-5.9487,-5.9487,-5.9487,-5.9525,-5.96,-5.9589,-5.9606,-5.9606,-5.975,-5.9777,-5.9606,-5.9758,-5.9868,-5.9844,-5.9844,-5.9721,-5.9493,-5.9493,-5.9493,-5.9493,-5.9493,-5.9493,-1.9936,-2.3792,-2.8947,-3.3792,-3.3209,-3.3409,-4.0926,-4.1726,-4.16,-4.4123,-4.5868,-4.6837,-4.6764,-4.7964,-4.8876,-4.8876,-4.8876,-4.8876,-4.8876,-4.8876,-4.8876,-4.8876,-4.8951,-4.9395,-5.0463,-5.1125,-5.1555,-5.1883,-5.2383,-5.2278,-5.1586,-5.2244,-5.2235,-5.1488,-5.3157,-5.3661,-5.287,-5.3628,-5.3992,-5.4124,-5.4124,-5.4538,-5.5161,-5.5146,-5.5547,-5.6176,-5.4832,-5.4244,-5.4281,-5.488,-5.5136,-5.5262,-5.5993,-5.6323,-5.6359,-5.6359,-5.6359,-5.6475,-5.6948,-5.7127,-5.7191,-5.7552,-5.7739,-5.7739,-5.7726,-5.7726,-5.7803,-5.8181,-5.8271,-5.8369,-5.8896,-5.9005,-5.9005,-5.9005,-5.9005,-5.8781,-5.7926,-5.8038,-5.8286,-5.8281,-5.8678,-5.9052,-5.9187,-5.9224,-5.9261,-5.9411,-5.9411,-5.9411,-5.9448,-5.9448,-5.9448,-5.9448,-5.9448,-5.9448,-5.9448,-5.9442,-5.9452,-5.9452,-5.9487,-5.9501,-5.9454,-5.9492,-5.9468,-5.9466,-5.9432,-5.9382,-5.9369,-5.942,-5.942,-5.9407,-5.9457,-5.9469,-2.3912,-3.007,-3.5448,-3.5341,-3.7021,-3.914,-4.0557,-4.2572,-4.4142,-4.4254,-4.5899,-4.7084,-4.6241,-4.6427,-4.6634,-4.6634,-4.6634,-4.6634,-4.6634,-4.733,-4.7773,-4.7773,-4.8498,-4.9395,-5.0463,-5.071,-5.112,-5.1818,-5.1979,-5.2044,-5.1785,-5.202,-5.1669,-5.079,-5.1227,-5.1031,-5.0051,-5.0247,-5.0966,-5.2244,-5.3003,-5.376,-5.4447,-5.4493,-5.4588,-5.4753,-5.4387,-5.4192,-5.426,-5.4413,-5.4736,-5.5227,-5.5414,-5.5851,-5.6359,-5.6359,-5.6359,-5.6359,-5.6546,-5.6841,-5.7189,-5.7266,-5.7502,-5.773,-5.7711,-5.774,-5.7755,-5.7825,-5.7891,-5.7887,-5.8051,-5.8082,-5.8093,-5.8082,-5.8082,-5.8033,-5.7806,-5.7792,-5.7881,-5.7865,-5.7982,-5.8094,-5.8132,-5.8132,-5.8244,-5.8566,-5.8603,-5.8753,-5.9126,-5.9187,-5.9187,-5.9187,-5.9187,-5.9224,-5.9336,-5.9327,-5.936,-5.936,-5.9414,-5.9463,-5.934,-5.9416,-5.9478,-5.9478,-5.8618,-5.8184,-5.82,-5.8468,-5.8595,-5.8635,-5.9013,-5.9213,-2.2504,-2.8946,-3.523,-3.6515,-3.8081,-3.9815,-4.1607,-4.3405,-4.4788,-4.4923,-4.5864,-4.6582,-4.6032,-4.5864,-4.5864,-4.5864,-4.5864,-4.5864,-4.5864,-4.6417,-4.6715,-4.6715,-4.725,-4.8037,-4.91,-4.9174,-4.9542,-5.0539,-5.0188,-4.9943,-4.9943,-4.9905,-4.9686,-4.9162,-4.9633,-4.9552,-4.8998,-4.8998,-4.9458,-5.0413,-5.148,-5.2606,-5.376,-5.3721,-5.3571,-5.32,-5.32,-5.32,-5.3233,-5.353,-5.3909,-5.4277,-5.4634,-5.5049,-5.545,-5.545,-5.5592,-5.5851,-5.5851,-5.6252,-5.6761,-5.6761,-5.6948,-5.7153,-5.713,-5.7134,-5.7202,-5.7406,-5.748,-5.7516,-5.769,-5.7724,-5.7729,-5.7735,-5.7735,-5.7621,-5.7197,-5.7127,-5.7234,-5.7434,-5.7634,-5.7744,-5.7744,-5.7744,-5.7818,-5.8001,-5.8081,-5.8169,-5.8454,-5.8491,-5.8491,-5.8491,-5.8491,-5.8528,-5.8603,-5.8603,-5.8603,-5.8603,-5.8678,-5.8688,-5.8617,-5.8665,-5.8687,-5.8709,-5.8047,-5.7714,-5.773,-5.793,-5.8063,-5.8044,-5.8336,-5.8491,-2.0144,-2.5486,-3.1889,-3.6944,-3.7561,-3.8172,-4.282,-4.4044,-4.445,-4.5661,-4.5583,-4.5413,-4.5413,-4.5413,-4.5413,-4.5413,-4.5413,-4.5413,-4.5413,-4.5498,-4.5612,-4.5612,-4.578,-4.6252,-4.733,-4.7409,-4.7773,-4.8664,-4.8084,-4.7537,-4.7379,-4.756,-4.7586,-4.7457,-4.8292,-4.8748,-4.8574,-4.8574,-4.8634,-4.8777,-4.9835,-5.1257,-5.2903,-5.2639,-5.2212,-5.1752,-5.1752,-5.1785,-5.1916,-5.2639,-5.2969,-5.3096,-5.3794,-5.4139,-5.421,-5.421,-5.4574,-5.507,-5.5065,-5.5521,-5.6109,-5.6109,-5.6109,-5.6109,-5.6216,-5.6216,-5.635,-5.6932,-5.7054,-5.7137,-5.7443,-5.7551,-5.7552,-5.755,-5.7377,-5.704,-5.6273,-5.6176,-5.6323,-5.6761,-5.7279,-5.7529,-5.7529,-5.7529,-5.7565,-5.7646,-5.7651,-5.7677,-5.7714,-5.7714,-5.7714,-5.7714,-5.7714,-5.7714,-5.7714,-5.7714,-5.7714,-5.7714,-5.7714,-5.7714,-5.7714,-5.7714,-5.7677,-5.7565,-5.7565,-5.756,-5.7551,-5.7609,-5.7664,-5.764,-5.7714,-5.7741,-2.6878,-2.9677,-3.1534,-3.482,-3.6993,-3.9107,-4.1903,-4.3364,-4.4499,-4.5667,-4.4206,-4.2814,-4.2814,-4.2814,-4.2814,-4.2814,-4.2814,-4.2814,-4.2814,-4.3793,-4.4406,-4.4406,-4.5271,-4.6252,-4.733,-4.7409,-4.7398,-4.7374,-4.8222,-4.8253,-4.7138,-4.8129,-4.8353,-4.745,-4.7611,-4.7301,-4.6437,-4.6437,-4.6868,-4.7705,-4.8795,-5.0249,-5.208,-5.041,-5.0084,-5.0769,-5.0769,-5.1162,-5.1916,-5.2047,-5.2442,-5.3067,-5.3213,-5.363,-5.4224,-5.4224,-5.4319,-5.4421,-5.4416,-5.4462,-5.4613,-5.4613,-5.4613,-5.472,-5.5227,-5.5414,-5.5566,-5.6314,-5.6501,-5.6501,-5.6596,-5.6596,-5.6596,-5.6624,-5.5667,-5.4806,-5.4658,-5.5045,-5.545,-5.5521,-5.6145,-5.6618,-5.6618,-5.6618,-5.6725,-5.7163,-5.7263,-5.7329,-5.7695,-5.7731,-5.7731,-5.7731,-5.7731,-5.7731,-5.7731,-5.7731,-5.7731,-5.7731,-5.7731,-5.7731,-5.7731,-5.7731,-5.7365,-5.6639,-5.6639,-5.6587,-5.6596,-5.7019,-5.7234,-5.7257,-5.7587,-5.7729,-2.2266,-2.6184,-3.0343,-3.2854,-3.5656,-3.8997,-4.3139,-4.3551,-4.3692,-4.5549,-4.3941,-4.2175,-4.2175,-4.2175,-4.2175,-4.2175,-4.2175,-4.2175,-4.2175,-4.275,-4.314,-4.314,-4.3587,-4.4178,-4.4642,-4.47,-4.4671,-4.4472,-4.5096,-4.5209,-4.4557,-4.5128,-4.5211,-4.4687,-4.4671,-4.4808,-4.4923,-4.4923,-4.5493,-4.6667,-4.7705,-4.8636,-4.953,-4.8485,-4.8929,-5.0541,-5.0541,-5.1064,-5.1883,-5.1883,-5.2113,-5.2442,-5.2442,-5.2672,-5.2969,-5.2969,-5.3266,-5.3592,-5.3663,-5.3911,-5.4241,-5.4241,-5.4261,-5.4274,-5.4604,-5.4673,-5.4794,-5.5159,-5.5264,-5.5264,-5.5264,-5.5264,-5.5249,-5.5254,-5.4735,-5.4233,-5.4218,-5.4446,-5.4675,-5.4675,-5.4972,-5.5269,-5.5257,-5.5262,-5.5343,-5.5592,-5.5922,-5.6216,-5.6359,-5.6761,-5.702,-5.702,-5.702,-5.702,-5.702,-5.702,-5.702,-5.702,-5.702,-5.702,-5.702,-5.702,-5.6841,-5.6359,-5.6359,-5.6359,-5.6359,-5.6638,-5.6709,-5.6725,-5.6948,-5.704,-1.6322,-2.1913,-2.9299,-3.1484,-3.3989,-3.7543,-4.3761,-4.3202,-4.2098,-4.4678,-4.343,-4.1739,-4.1432,-4.1646,-4.1739,-4.1459,-4.1365,-4.1365,-4.1365,-4.1646,-4.1832,-4.1832,-4.2017,-4.2175,-4.2175,-4.2175,-4.2109,-4.1832,-4.2017,-4.2083,-4.1832,-4.2078,-4.2186,-4.2178,-4.2179,-4.2641,-4.3722,-4.3705,-4.4128,-4.5094,-4.6123,-4.6818,-4.7049,-4.6611,-4.7586,-4.953,-4.9754,-5.0409,-5.1288,-5.126,-5.126,-5.1255,-5.126,-5.1391,-5.1588,-5.1588,-5.2113,-5.2837,-5.2837,-5.32,-5.3728,-5.3728,-5.3725,-5.3744,-5.3937,-5.3993,-5.3993,-5.4228,-5.4228,-5.4228,-5.4228,-5.4228,-5.413,-5.3803,-5.374,-5.3723,-5.374,-5.3874,-5.3992,-5.3992,-5.4092,-5.4224,-5.4226,-5.4248,-5.4248,-5.4248,-5.4648,-5.4997,-5.4959,-5.5521,-5.5886,-5.5886,-5.5886,-5.5886,-5.5886,-5.5886,-5.5886,-5.5886,-5.6074,-5.6145,-5.6145,-5.5957,-5.5957,-5.6145,-5.6145,-5.6216,-5.6359,-5.6359,-5.6359,-5.6359,-5.6359,-5.6359,-1.5765,-2.1593,-2.8704,-3.1437,-3.201,-3.3912,-4.1172,-4.0755,-3.9549,-4.2058,-4.147,-4.023,-3.9057,-3.9842,-4.023,-3.9057,-3.8859,-3.8859,-3.8859,-3.9842,-4.0615,-4.0615,-4.1579,-4.2175,-4.2175,-4.2175,-4.1739,-4.0685,-4.1579,-4.1739,-4.0615,-4.1638,-4.2137,-4.2209,-4.2231,-4.2277,-4.2329,-4.2365,-4.2407,-4.2547,-4.3533,-4.4719,-4.5788,-4.4805,-4.5117,-4.6375,-4.7293,-4.8334,-4.9228,-4.9222,-4.9242,-4.927,-4.9258,-4.9823,-5.0639,-5.0639,-5.126,-5.2014,-5.2014,-5.208,-5.2113,-5.2113,-5.208,-5.2268,-5.2957,-5.3184,-5.3333,-5.4048,-5.4228,-5.4228,-5.4228,-5.4228,-5.3892,-5.2461,-5.2112,-5.208,-5.2144,-5.2671,-5.3166,-5.3166,-5.3728,-5.4222,-5.4245,-5.4212,-5.4212,-5.4212,-5.4309,-5.4295,-5.4328,-5.4391,-5.4426,-5.4426,-5.4426,-5.4426,-5.4426,-5.4426,-5.4426,-5.4426,-5.5013,-5.5307,-5.5307,-5.4755,-5.472,-5.5307,-5.5307,-5.5628,-5.6359,-5.6359,-5.6359,-5.6359,-5.6359,-5.6359,-1.5642,-2.0536,-2.6574,-2.8818,-3.1845,-3.4984,-3.7431,-3.8307,-3.9253,-4.1832,-4.0154,-3.8333,-3.85,-3.8928,-3.9055,-3.86,-3.8464,-3.8485,-3.8485,-3.8983,-3.9279,-3.9279,-3.972,-3.996,-3.996,-3.996,-3.9817,-3.9255,-3.972,-3.9792,-3.9255,-3.9675,-3.9999,-3.9902,-3.9902,-4.0377,-4.1131,-4.1136,-4.1485,-4.2178,-4.2578,-4.3101,-4.357,-4.3129,-4.4042,-4.5919,-4.6987,-4.7655,-4.8106,-4.8737,-4.8973,-4.8957,-4.8959,-4.9206,-4.9573,-4.9644,-4.9823,-5.0146,-5.0171,-5.0133,-5.0116,-5.0116,-5.0568,-5.1142,-5.142,-5.1915,-5.2421,-5.2735,-5.283,-5.283,-5.283,-5.283,-5.2362,-5.0608,-5.0125,-5.0324,-5.0944,-5.134,-5.1672,-5.2245,-5.2639,-5.2837,-5.2837,-5.2837,-5.2837,-5.2837,-5.2837,-5.299,-5.3503,-5.3972,-5.4268,-5.4268,-5.4268,-5.4268,-5.4268,-5.4268,-5.4268,-5.4268,-5.4439,-5.4405,-5.3972,-5.4109,-5.4337,-5.4633,-5.4627,-5.4791,-5.5085,-5.5085,-5.5085,-5.5085,-5.5085,-5.5085,-1.5942,-1.9472,-2.4184,-2.726,-3.0969,-3.4039,-3.44,-3.5938,-3.7813,-3.991,-3.8545,-3.7287,-3.8242,-3.8545,-3.8532,-3.8538,-3.846,-3.8485,-3.8485,-3.8485,-3.8485,-3.8485,-3.8485,-3.8485,-3.8485,-3.8485,-3.8485,-3.8485,-3.8139,-3.8014,-3.8485,-3.8114,-3.8014,-3.8485,-3.8485,-3.8981,-3.9877,-3.9877,-4.0252,-4.1105,-4.1105,-4.1295,-4.1691,-4.1681,-4.2772,-4.4837,-4.5522,-4.5887,-4.5929,-4.7059,-4.7748,-4.8109,-4.8109,-4.8228,-4.8473,-4.8515,-4.8677,-4.8975,-4.8978,-4.9006,-4.8976,-4.8954,-4.948,-5.0044,-5.0044,-5.0489,-5.1085,-5.1085,-5.1085,-5.1085,-5.1085,-5.1085,-5.071,-4.9322,-4.8973,-4.9204,-4.9926,-5.0062,-5.026,-5.0935,-5.1045,-5.1078,-5.1014,-5.102,-5.1064,-5.1064,-5.1293,-5.1654,-5.2277,-5.3002,-5.353,-5.353,-5.353,-5.353,-5.353,-5.353,-5.353,-5.353,-5.3761,-5.343,-5.2376,-5.287,-5.3397,-5.3926,-5.3924,-5.4017,-5.4242,-5.4242,-5.4242,-5.4242,-5.4242,-5.4242,-1.669,-1.8344,-2.1813,-2.7516,-2.8776,-2.9478,-3.2729,-3.3528,-3.4042,-3.5176,-3.6402,-3.7371,-3.8275,-3.8689,-3.8756,-3.8504,-3.846,-3.8485,-3.8485,-3.8485,-3.8485,-3.8485,-3.8485,-3.8485,-3.8485,-3.8485,-3.8485,-3.8485,-3.7153,-3.6981,-3.846,-3.7153,-3.7005,-3.8485,-3.8485,-3.8485,-3.8509,-3.8509,-3.8509,-3.8509,-3.8509,-3.9191,-4.0454,-4.0426,-4.1094,-4.2211,-4.2211,-4.2211,-4.2323,-4.3646,-4.4866,-4.5894,-4.5894,-4.6525,-4.7473,-4.7444,-4.808,-4.8981,-4.9011,-4.8988,-4.8959,-4.9,-4.8994,-4.9025,-4.9025,-4.9025,-4.9025,-4.9025,-4.9025,-4.9025,-4.9025,-4.9025,-4.9025,-4.9025,-4.9025,-4.9025,-4.9025,-4.9025,-4.9031,-4.9037,-4.9035,-4.8975,-4.8991,-4.8998,-4.9043,-4.9043,-4.9888,-5.0573,-5.0573,-5.1359,-5.1916,-5.1916,-5.1916,-5.1916,-5.1916,-5.1916,-5.1916,-5.1916,-5.2639,-5.2343,-5.0606,-5.0573,-5.1359,-5.3067,-5.31,-5.3462,-5.419,-5.419,-5.419,-5.419,-5.419,-5.419,-1.584,-1.6293,-1.8643,-2.574,-2.8768,-3.017,-3.0693,-3.16,-3.2062,-3.1191,-3.304,-3.4844,-3.4914,-3.552,-3.6296,-3.6918,-3.6989,-3.7326,-3.8385,-3.7655,-3.7019,-3.7019,-3.6171,-3.5523,-3.5523,-3.5523,-3.5537,-3.554,-3.5174,-3.5096,-3.5561,-3.6033,-3.6515,-3.7005,-3.799,-3.8485,-3.8485,-3.8485,-3.8485,-3.8485,-3.8485,-3.918,-4.0427,-4.0427,-4.1118,-4.2202,-4.2163,-4.2183,-4.2183,-4.2636,-4.3523,-4.4808,-4.5522,-4.6065,-4.6324,-4.6324,-4.6525,-4.6868,-4.6868,-4.6859,-4.6841,-4.6856,-4.733,-4.7929,-4.7929,-4.8422,-4.9025,-4.9025,-4.9025,-4.8619,-4.725,-4.6878,-4.6878,-4.6878,-4.6878,-4.7039,-4.7773,-4.7929,-4.8159,-4.8804,-4.9006,-4.9018,-4.8998,-4.9029,-4.9004,-4.9004,-4.9267,-4.9505,-4.9461,-4.9758,-4.9888,-4.9888,-4.9888,-4.9888,-4.9888,-4.9888,-4.9888,-4.9888,-5.0119,-4.9994,-4.9498,-4.9487,-4.9758,-5.028,-5.028,-5.0377,-5.0606,-5.0606,-5.1031,-5.1687,-5.1687,-5.2047,-1.4764,-1.4785,-1.6453,-2.3256,-2.7525,-2.9685,-2.8381,-2.8415,-2.8641,-2.7891,-2.9968,-3.1754,-3.1048,-3.2443,-3.3961,-3.502,-3.5957,-3.6798,-3.7583,-3.6917,-3.6378,-3.6378,-3.5102,-3.4169,-3.4169,-3.4169,-3.4254,-3.4167,-3.3675,-3.3628,-3.4223,-3.4557,-3.5044,-3.5506,-3.6422,-3.7113,-3.7634,-3.7634,-3.7634,-3.7737,-3.8256,-3.8881,-3.9703,-3.9703,-4.0077,-4.0778,-4.0798,-4.0778,-4.0868,-4.1307,-4.2043,-4.2893,-4.3988,-4.4468,-4.4468,-4.4468,-4.4756,-4.5214,-4.5184,-4.5529,-4.5864,-4.5864,-4.6335,-4.6878,-4.6878,-4.725,-4.7773,-4.7773,-4.7773,-4.7409,-4.5638,-4.5186,-4.5186,-4.5186,-4.5186,-4.5413,-4.6028,-4.6523,-4.7048,-4.7721,-4.7781,-4.7799,-4.7759,-4.7764,-4.7764,-4.7764,-4.8169,-4.8433,-4.8414,-4.8736,-4.8966,-4.8966,-4.8966,-4.8966,-4.8966,-4.8966,-4.8966,-4.8966,-4.782,-4.7532,-4.8371,-4.8422,-4.8538,-4.8966,-4.8966,-4.8966,-4.8966,-4.8966,-4.9331,-4.999,-4.9976,-5.028,-1.3643,-1.3741,-1.5228,-2.0688,-2.5201,-2.7743,-2.5873,-2.4664,-2.4282,-2.5217,-2.7137,-2.8279,-2.7288,-2.943,-3.1773,-3.2907,-3.5137,-3.6608,-3.6227,-3.6217,-3.609,-3.6056,-3.4803,-3.3997,-3.3933,-3.3955,-3.3847,-3.3908,-3.2638,-3.2536,-3.3869,-3.2738,-3.2689,-3.4019,-3.4148,-3.4903,-3.6206,-3.6291,-3.6375,-3.6352,-3.7791,-3.8485,-3.8485,-3.8485,-3.8485,-3.8485,-3.8485,-3.8485,-3.8562,-3.9818,-4.0325,-4.055,-4.1682,-4.2068,-4.2181,-4.2181,-4.2903,-4.3954,-4.3953,-4.4744,-4.5722,-4.5667,-4.578,-4.5864,-4.578,-4.578,-4.578,-4.578,-4.5696,-4.5328,-4.429,-4.4026,-4.4026,-4.4026,-4.4026,-4.4026,-4.4026,-4.4813,-4.5583,-4.5583,-4.5583,-4.5612,-4.5725,-4.5754,-4.5754,-4.5864,-4.6697,-4.7301,-4.7301,-4.8169,-4.8777,-4.8777,-4.8777,-4.8777,-4.8777,-4.8777,-4.8723,-4.8529,-4.5667,-4.4923,-4.7099,-4.7158,-4.7705,-4.8777,-4.8777,-4.8777,-4.8777,-4.8777,-4.8807,-4.8861,-4.8912,-4.8907,-1.3189,-1.3043,-1.4969,-2.2814,-2.3093,-2.1827,-2.3005,-2.3103,-2.2964,-2.3232,-2.4331,-2.5436,-2.5964,-2.6373,-2.77,-3.094,-3.2911,-3.4357,-3.5084,-3.4454,-3.3854,-3.3591,-3.225,-3.1286,-3.0981,-3.0929,-3.0968,-3.0914,-3.0616,-3.0596,-3.0929,-3.166,-3.227,-3.2506,-3.3598,-3.4387,-3.4717,-3.5801,-3.6368,-3.6352,-3.7774,-3.8485,-3.8485,-3.8485,-3.8485,-3.8485,-3.8485,-3.8485,-3.856,-3.8806,-3.9499,-4.0477,-4.0711,-4.1369,-4.2216,-4.2216,-4.2358,-4.2659,-4.2657,-4.3478,-4.4414,-4.3421,-4.4293,-4.5696,-4.4813,-4.4552,-4.4552,-4.4552,-4.3793,-4.3022,-4.2659,-4.2659,-4.2659,-4.2659,-4.2659,-4.2659,-4.2659,-4.2841,-4.3022,-4.3022,-4.3022,-4.3347,-4.4399,-4.4501,-4.4824,-4.5754,-4.6094,-4.6265,-4.6265,-4.6466,-4.6638,-4.6638,-4.6638,-4.6638,-4.6638,-4.6638,-4.5756,-4.3893,-4.3111,-4.3307,-4.4866,-4.4894,-4.5435,-4.6525,-4.6638,-4.6638,-4.6638,-4.6638,-4.707,-4.7764,-4.7769,-4.8221,-1.2931,-1.2809,-1.3939,-1.8577,-1.8779,-1.8103,-1.9327,-1.9826,-1.9947,-1.9672,-2.0816,-2.2034,-2.2547,-2.3716,-2.5484,-2.7977,-3.0706,-3.281,-3.3652,-3.318,-3.2445,-3.1911,-3.0956,-3.0023,-2.9473,-2.967,-2.9955,-2.9955,-2.9955,-2.9955,-2.9955,-3.0712,-3.1036,-3.1036,-3.1819,-3.2597,-3.3158,-3.4035,-3.4688,-3.5364,-3.6861,-3.7857,-3.8485,-3.8485,-3.8485,-3.8485,-3.8485,-3.8485,-3.8485,-3.8485,-3.8856,-3.9528,-3.9528,-3.9902,-4.0453,-4.0453,-4.05,-4.0548,-4.1118,-4.2167,-4.3116,-4.246,-4.3498,-4.4813,-4.3615,-4.3643,-4.4026,-4.3436,-4.232,-4.1391,-4.1391,-4.1391,-4.1391,-4.1391,-4.1391,-4.1391,-4.1391,-4.1832,-4.2175,-4.2175,-4.2151,-4.2458,-4.3148,-4.3257,-4.3415,-4.4126,-4.4181,-4.4212,-4.4212,-4.4212,-4.4212,-4.4212,-4.4212,-4.4212,-4.4212,-4.4212,-4.3616,-4.2282,-4.2148,-4.2795,-4.409,-4.4098,-4.4666,-4.5864,-4.5864,-4.5864,-4.5864,-4.5864,-4.6123,-4.6697,-4.6697,-4.707,-1.2827,-1.2909,-1.3019,-1.3022,-1.458,-1.6221,-1.6528,-1.6672,-1.6672,-1.633,-1.7616,-1.8833,-1.9023,-2.1436,-2.3845,-2.5287,-2.84,-3.1025,-3.202,-3.1998,-3.1624,-3.0949,-3.041,-2.9703,-2.9046,-2.9554,-2.9955,-2.9955,-2.9955,-2.9955,-2.9955,-2.9955,-2.9955,-2.9955,-2.9955,-3.05,-3.1727,-3.1948,-3.2676,-3.3847,-3.5395,-3.6767,-3.8107,-3.8212,-3.8312,-3.8485,-3.8485,-3.8485,-3.8485,-3.8485,-3.8485,-3.8485,-3.8485,-3.8485,-3.8485,-3.8485,-3.8485,-3.8685,-3.977,-4.0919,-4.1871,-4.1712,-4.2568,-4.3554,-4.2293,-4.2714,-4.3284,-4.2017,-4.0919,-4.0159,-4.0159,-4.0159,-4.0159,-4.0159,-4.0159,-4.0159,-4.0159,-4.0919,-4.1619,-4.1619,-4.1654,-4.1631,-4.1822,-4.1936,-4.1954,-4.2179,-4.2136,-4.2143,-4.2143,-4.2143,-4.2143,-4.2143,-4.2143,-4.2143,-4.2143,-4.2143,-4.206,-4.1608,-4.1665,-4.2065,-4.3182,-4.3487,-4.413,-4.5293,-4.5293,-4.5293,-4.5293,-4.5293,-4.5293,-4.5293,-4.5293,-4.5435,-1.2827,-1.3331,-1.3814,-1.3798,-1.5002,-1.6619,-1.8375,-1.6946,-1.5631,-1.6738,-1.676,-1.716,-1.8883,-1.9579,-2.1087,-2.4987,-2.5857,-2.6966,-2.9675,-3.076,-3.1112,-3.0636,-3.0514,-3.0292,-2.9782,-2.986,-2.9955,-2.9955,-2.9955,-2.9955,-2.9955,-2.9955,-2.9955,-2.9955,-2.9955,-3.0068,-3.0294,-3.1505,-3.2169,-3.2369,-3.3908,-3.526,-3.6713,-3.6721,-3.7325,-3.8485,-3.8485,-3.8485,-3.8485,-3.8485,-3.8485,-3.8485,-3.8485,-3.8485,-3.8485,-3.8485,-3.8485,-3.8485,-3.8685,-3.9619,-4.0479,-3.9376,-4.0634,-4.2293,-4.104,-4.0876,-4.0711,-3.9426,-3.8958,-3.8784,-3.8784,-3.8784,-3.8784,-3.8784,-3.8784,-3.8784,-3.8784,-3.8958,-3.9057,-3.9057,-3.9008,-3.9428,-4.05,-4.0705,-4.1043,-4.2062,-4.2179,-4.2142,-4.2142,-4.2142,-4.2142,-4.2142,-4.2142,-4.2142,-4.2142,-4.2142,-4.1337,-3.9226,-3.9008,-3.9179,-3.9354,-4.0446,-4.1499,-4.2688,-4.2744,-4.2744,-4.2744,-4.2744,-4.2744,-4.2744,-4.2744,-4.3307,-1.296,-1.3572,-1.4037,-1.4085,-1.4115,-1.4509,-1.6042,-1.5069,-1.4005,-1.4671,-1.4988,-1.548,-1.643,-1.7989,-1.9994,-2.2626,-2.433,-2.6029,-2.7676,-2.9073,-2.9727,-2.9633,-2.9925,-2.9983,-2.9333,-2.9672,-2.9955,-2.9955,-2.9955,-2.9955,-2.9955,-2.9955,-2.9955,-2.9955,-2.9955,-2.9955,-2.9955,-3.0631,-3.1283,-3.2039,-3.2773,-3.3847,-3.5246,-3.5153,-3.5539,-3.6173,-3.6173,-3.6173,-3.6197,-3.7005,-3.7325,-3.7449,-3.8163,-3.8485,-3.8485,-3.8485,-3.8485,-3.8485,-3.8485,-3.8933,-3.9253,-3.866,-3.972,-4.104,-3.972,-3.9378,-3.9255,-3.8685,-3.8485,-3.8485,-3.8485,-3.8485,-3.8485,-3.8485,-3.8485,-3.8485,-3.8485,-3.8485,-3.8485,-3.8485,-3.8485,-3.8685,-3.9255,-3.9404,-3.9553,-4.0077,-4.0202,-4.0202,-4.0202,-4.0202,-4.0202,-4.0202,-4.0202,-4.0202,-4.0202,-4.0202,-3.9703,-3.8534,-3.8485,-3.8485,-3.8485,-3.9727,-4.069,-4.1235,-4.1898,-4.2151,-4.2151,-4.2151,-4.2151,-4.2151,-4.2151,-4.2497,-1.2674,0.0,-1.3224,-1.3162,-1.2933,-1.2713,0.0,-1.2742,-1.3043,-1.2857,-1.3462,-1.4092,-1.4348,-1.6624,-1.8888,-2.0044,-2.2688,-2.501,-2.6185,-2.7301,-2.8086,-2.8379,-2.9153,-2.9385,-2.8809,-2.9446,-2.9955,-2.9955,-2.9955,-2.9955,-2.9955,-2.9955,-2.9955,-2.9955,-2.9615,-2.9615,-2.9955,-2.9955,-3.05,-3.1596,-3.1586,-3.23,-3.3664,-3.3753,-3.3901,-3.4196,-3.4196,-3.4196,-3.4344,-3.5792,-3.6338,-3.6491,-3.7966,-3.8485,-3.8485,-3.8485,-3.8485,-3.8485,-3.8485,-3.8485,-3.8485,-3.8485,-3.9181,-3.9745,-3.8784,-3.8485,-3.8485,-3.8485,-3.8485,-3.8485,-3.8485,-3.8485,-3.8485,-3.8485,-3.8485,-3.8485,-3.8485,-3.8485,-3.8485,-3.8485,-3.8485,-3.8485,-3.8485,-3.8485,-3.8485,-3.8485,-3.8485,-3.8485,-3.8485,-3.8485,-3.8485,-3.8485,-3.8485,-3.8485,-3.8485,-3.8485,-3.8485,-3.8485,-3.8485,-3.8485,-3.8485,-3.9403,-3.9927,-3.9927,-4.0904,-4.1307,-4.1307,-4.1307,-4.1307,-4.1307,-4.1307,-4.1483,0.0,-1.1296,-1.0929,-1.0222,-1.19,-1.26,-0.843,-1.0844,0.0,-1.2962,-1.2899,-1.3247,-1.4189,-1.5456,-1.6787,-1.8232,-2.0061,-2.2355,-2.5339,-2.5625,-2.6026,-2.7381,-2.8314,-2.8803,-2.8803,-2.9507,-2.9955,-2.9955,-2.9955,-2.9955,-2.9955,-2.9955,-2.9955,-2.9955,-2.855,-2.8435,-2.9955,-2.9955,-2.9955,-3.0068,-3.0068,-3.0806,-3.2198,-3.223,-3.2955,-3.4227,-3.4227,-3.4227,-3.4381,-3.5728,-3.6296,-3.6491,-3.7966,-3.8485,-3.8485,-3.8485,-3.8485,-3.8485,-3.8485,-3.8485,-3.8485,-3.8485,-3.8585,-3.8585,-3.8485,-3.8485,-3.8485,-3.8485,-3.8485,-3.8485,-3.8485,-3.8485,-3.8485,-3.8485,-3.8485,-3.8485,-3.8485,-3.8485,-3.8485,-3.8485,-3.8485,-3.8485,-3.8485,-3.8485,-3.8485,-3.8485,-3.8485,-3.8485,-3.8485,-3.8485,-3.8485,-3.8485,-3.8485,-3.8485,-3.8485,-3.8485,-3.8485,-3.8485,-3.8485,-3.8485,-3.8485,-3.8634,-3.8658,-3.8658,-3.8683,-3.8807,-3.8807,-3.8807,-3.8807,-3.8807,-3.8807,-3.9378,-1.1489,-1.1569,-1.1418,-1.0923,-1.1997,-1.2561,-0.9977,-1.1804,-1.359,-1.2265,-1.2452,-1.2854,-1.2928,-1.4291,-1.5966,-1.7764,-1.9329,-2.1341,-2.4203,-2.5356,-2.5967,-2.596,-2.6324,-2.7333,-2.9282,-2.8866,-2.8919,-2.9823,-2.9955,-2.9955,-2.9955,-2.9026,-2.809,-2.703,-2.6447,-2.6447,-2.703,-2.7975,-2.8435,-2.855,-2.9482,-3.0257,-3.0732,-3.0732,-3.1036,-3.1513,-3.1513,-3.1513,0.0,-3.3067,-3.3718,-3.3942,-3.6297,-3.6639,-3.6026,-3.7818,-3.7325,-3.6026,-3.7842,-3.7942,-3.7301,-3.8163,-3.8485,-3.8485,-3.8485,-3.8485,-3.8485,-3.8485,-3.8485,-3.8485,-3.8485,-3.8485,-3.8485,-3.8485,-3.8485,-3.8485,-3.8485,-3.8485,-3.8485,-3.8485,-3.8485,-3.8485,-3.8485,-3.8485,-3.8485,-3.8485,-3.8485,-3.8485,-3.8485,-3.8485,-3.8485,-3.8485,-3.8485,-3.8485,-3.8485,-3.8485,-3.8485,-3.8485,-3.8485,-3.8485,-3.8485,-3.8485,-3.8485,-3.8485,-3.8485,-3.8485,-3.8485,-3.8485,-3.8485,-3.8485,-3.8485,-3.8807,-1.0481,-1.0695,-1.0563,-1.0362,-1.1051,-1.1466,-1.0392,-1.1617,-1.267,-1.1579,-1.1914,-1.2339,-1.2249,-1.36,-1.5242,-1.6916,-1.8574,-2.0468,-2.2892,-2.4148,-2.4846,-2.4841,-2.4675,-2.5461,-2.7894,-2.7321,-2.7365,-2.8423,-2.8514,-2.8435,-2.8435,-2.7495,-2.6347,-2.5287,-2.4797,-2.4797,-2.5287,-2.6347,-2.7164,-2.7628,-2.8701,-2.9406,-2.9955,-2.9955,-2.9955,-2.9955,-2.9955,-2.9955,-3.0106,-3.1493,-3.2047,-3.2353,-3.4723,-3.5096,-3.4392,-3.6435,-3.5883,-3.4447,-3.6468,-3.6491,-3.5879,-3.6768,-3.7458,-3.7857,-3.7857,-3.816,-3.8485,-3.8485,-3.8485,-3.8485,-3.8485,-3.8184,-3.7857,-3.7857,-3.7428,-3.7122,-3.7122,-3.7122,-3.7122,-3.7122,-3.7529,-3.7857,-3.7857,-3.8184,-3.8485,-3.8485,-3.8485,-3.8485,-3.8485,-3.8485,-3.8485,-3.8485,-3.8485,-3.8139,-3.7177,-3.7129,-3.7129,-3.7129,-3.7129,-3.7129,-3.7129,-3.7129,-3.7129,-3.7129,-3.7621,-3.7818,-3.7818,-3.8312,-3.8485,-3.8485,-3.8485,-3.8485,-0.8492,-0.8172,-0.7832,-0.7825,-0.853,-0.9222,-0.8663,-0.9777,-1.0948,-1.1015,-1.1284,-1.1727,-1.2464,-1.3504,-1.4543,-1.5592,-1.7383,-1.9391,-2.1639,-2.1602,-2.2112,-2.4248,-2.3492,-2.3165,-2.3956,-2.4776,-2.5252,-2.5316,-2.5292,-2.5287,-2.5287,-2.5287,-2.5287,-2.5287,-2.3724,-2.3604,-2.5168,-2.5287,-2.5995,-2.7628,-2.7617,-2.8428,-2.9955,-2.9955,-2.9955,-2.9955,-2.9955,-2.9955,-3.0106,-3.1493,-3.2105,-3.2145,-3.3684,-3.4149,-3.418,-3.4184,-3.4235,-3.4155,-3.4155,-3.4155,-3.4168,-3.4226,-3.517,-3.6378,-3.6275,-3.7326,-3.8485,-3.8485,-3.8485,-3.8485,-3.8485,-3.7428,-3.6378,-3.6378,-3.5208,-3.4169,-3.4169,-3.4169,-3.4169,-3.4169,-3.5313,-3.6378,-3.6378,-3.7529,-3.8485,-3.8485,-3.8485,-3.8485,-3.8485,-3.8485,-3.8485,-3.8485,-3.8485,-3.7349,-3.4447,-3.4178,-3.4178,-3.4178,-3.4178,-3.4178,-3.4178,-3.4178,-3.4178,-3.4178,-3.5585,-3.6344,-3.6344,-3.7793,-3.8485,-3.8485,-3.8485,-3.8485,-0.9046,-0.909,-0.8946,-0.8524,-0.9402,-1.0029,-0.8836,-0.9894,-1.0987,-1.0526,-1.0845,-1.1495,-1.2473,-1.3574,-1.4809,-1.6304,-1.7375,-1.8833,-2.1213,-2.2,-2.2396,-2.2487,-2.3642,-2.3811,-2.178,-2.3811,-2.5228,-2.5216,-2.5319,-2.5287,-2.5287,-2.3153,-2.1957,-2.1957,-2.1592,-2.147,-2.1957,-2.3138,-2.3828,-2.4306,-2.6581,-2.7814,-2.8313,-2.9406,-2.9955,-2.9955,-2.9955,-2.9955,-2.9974,-3.0409,-3.058,-3.0712,-3.2125,-3.2121,-3.1425,-3.3436,-3.2903,-3.1503,-3.3523,-3.3518,-3.2904,-3.3865,-3.5141,-3.5963,-3.3955,-3.4382,-3.544,-3.544,-3.544,-3.544,-3.544,-3.5208,-3.4914,-3.4914,-3.4467,-3.4169,-3.4169,-3.4169,-3.4169,-3.4169,-3.4595,-3.4914,-3.4914,-3.523,-3.544,-3.544,-3.5449,-3.5492,-3.5492,-3.5492,-3.5492,-3.5492,-3.5493,-3.5103,-3.4276,-3.4254,-3.4254,-3.4254,-3.4254,-3.4254,-3.4254,-3.4254,-3.4254,-3.4254,-3.5584,-3.6368,-3.6344,-3.7793,-3.8485,-3.8485,-3.8485,-3.8485,-0.9355,-0.9559,-0.9474,-0.9118,-0.9448,-0.9825,-0.945,-1.0007,-1.0556,-1.055,-1.1126,-1.2038,-1.3332,-1.3805,-1.4807,-1.7308,-1.7557,-1.8381,-2.0679,-2.1495,-2.1635,-2.1289,-2.2512,-2.265,-2.0775,-2.2321,-2.3423,-2.3392,-2.3438,-2.3394,-2.3394,-2.1605,-2.0652,-2.0652,-2.0652,-2.0652,-2.0652,-2.1592,-2.2293,-2.2989,-2.49,-2.6112,-2.6782,-2.8356,-2.9026,-2.9026,-2.9615,-2.9955,-2.9955,-2.9955,-2.9955,-2.9974,-3.0884,-3.0712,-3.0125,-3.1819,-3.136,-3.0162,-3.1908,-3.1945,-3.1345,-3.2245,-3.3503,-3.4382,-3.2567,-3.3112,-3.4169,-3.4169,-3.4169,-3.4169,-3.4169,-3.4169,-3.4062,-3.3524,-3.2874,-3.2546,-3.2546,-3.2546,-3.2546,-3.2546,-3.2983,-3.3329,-3.3329,-3.3847,-3.4213,-3.4233,-3.4212,-3.4244,-3.4244,-3.4244,-3.4244,-3.4244,-3.3208,-3.2451,-3.2451,-3.2451,-3.2451,-3.2451,-3.2451,-3.2451,-3.2451,-3.2451,-3.2451,-3.2451,-3.388,-3.4624,-3.4692,-3.6026,-3.681,-3.681,-3.7349,-3.7645,-0.948,-0.9638,-0.9632,-0.9606,-0.917,-0.9114,-1.0371,-1.0189,-0.9952,-1.111,-1.1944,-1.3017,-1.4664,-1.4277,-1.4791,-1.8169,-1.803,-1.8149,-2.0139,-2.0427,-2.0475,-2.0644,-2.0652,-2.0652,-2.0652,-2.0652,-2.0652,-2.0652,-2.0652,-2.0652,-2.0652,-2.0652,-2.0652,-2.0652,-2.0652,-2.0652,-2.0652,-2.0652,-2.1361,-2.2762,-2.2883,-2.3724,-2.5168,-2.6797,-2.7628,-2.7744,-2.9255,-2.9955,-2.9955,-2.9955,-2.9955,-2.9955,-2.9955,-2.9955,-2.9955,-2.9955,-2.9955,-2.9955,-2.9955,-2.9955,-2.9955,-2.9955,-3.0836,-3.1818,-3.1818,-3.2786,-3.3847,-3.3847,-3.3847,-3.3847,-3.3847,-3.3847,-3.3524,-3.2149,-3.0836,-2.9955,-2.9955,-2.9955,-2.9955,-2.9955,-3.0948,-3.1818,-3.1818,-3.2994,-3.379,-3.3776,-3.3859,-3.3859,-3.3859,-3.3859,-3.3859,-3.3859,-3.1493,-2.9955,-2.9955,-2.9955,-2.9955,-2.9955,-2.9955,-2.9955,-2.9955,-2.9955,-2.9955,-2.9955,-3.1341,-3.2074,-3.2056,-3.3551,-3.4202,-3.4202,-3.5592,-3.6136,-1.0212,-1.0238,-1.0179,-0.9942,-0.9625,-0.9541,-1.05,-1.067,-1.0873,-1.1675,-1.2405,-1.3307,-1.4728,-1.5275,-1.5998,-1.7433,-1.8182,-1.911,-2.0284,-2.0504,-2.0607,-2.0613,-2.0652,-2.0652,-2.0652,-2.0652,-2.0652,-2.0652,-2.0652,-2.0652,-2.0652,-2.0652,-2.0652,-2.0652,-2.0652,-2.0652,-2.0652,-2.0652,-2.0775,-2.1117,-2.2414,-2.3109,-2.3604,-2.6313,-2.7628,-2.7744,-2.9255,-2.9955,-2.9955,-2.9955,-2.9955,-2.9955,-2.9955,-2.9955,-2.9955,-2.9955,-2.9955,-2.9955,-2.9955,-2.9955,-2.9955,-2.9955,-3.0181,-3.0407,-3.0407,-3.0612,-3.0817,-3.0817,-3.0817,-3.0817,-3.0817,-3.0817,-3.0817,-3.05,-3.0181,-2.9955,-2.9955,-2.9955,-2.9955,-2.9955,-3.0181,-3.0407,-3.0407,-3.0651,-3.0841,-3.0845,-3.0864,-3.0864,-3.0864,-3.0864,-3.0864,-3.0864,-3.0277,-2.9955,-2.9955,-2.9955,-2.9955,-2.9955,-2.9955,-2.9955,-2.9955,-2.9955,-2.9955,-2.9955,-3.1341,-3.2017,-3.2079,-3.3506,-3.4159,-3.4159,-3.4487,-3.4705,-1.0412,-1.0559,-1.0383,-1.0225,-0.9968,-0.988,-1.0642,-1.1108,-1.1556,-1.1961,-1.2919,-1.4006,-1.5151,-1.5001,-1.5515,-1.7985,-1.8074,-1.8371,-2.0176,-2.0622,-2.0652,-2.0652,-2.0652,-2.0652,-2.0652,-2.0652,-2.0652,-2.0652,-2.0652,-2.0652,-2.0652,-2.0652,-2.0652,-2.0652,-2.0652,-2.0652,-2.0652,-2.0652,-2.0652,-2.0652,-2.147,-2.1822,-2.1943,-2.4306,-2.5726,-2.6581,-2.8144,-2.9196,-2.9955,-2.9955,-2.9955,-2.9955,-2.9955,-2.9955,-2.9955,-2.9955,-2.9955,-2.9955,-2.9955,-2.9955,-2.9955,-2.9955,-2.9955,-2.9955,-2.9955,-2.9955,-2.9955,-2.9955,-2.9955,-2.9955,-2.9955,-2.9955,-2.9955,-2.9955,-2.9955,-2.9955,-2.9955,-2.9955,-2.9955,-2.9955,-2.9955,-2.9955,-2.9955,-2.9955,-2.9955,-2.9955,-2.9955,-2.9955,-2.9955,-2.9955,-2.9955,-2.9955,-2.9955,-2.9955,-2.9955,-2.9955,-2.9955,-2.9955,-2.9955,-2.9955,-2.9955,-2.9955,-2.9955,-2.9955,-3.0712,-3.1036,-3.1036,-3.1799,-3.2125,-3.2125,-3.2892,-3.3154,-1.0418,-1.0443,-1.0552,-1.0552,-1.0192,-1.0073,-1.0795,-1.1302,-1.1654,-1.1631,-1.3009,-1.4476,-1.5236,-1.4358,-1.4775,-1.8625,-1.7613,-1.7375,-2.0109,-2.0373,-2.0412,-2.0639,-2.0652,-2.0652,-2.0652,-2.0652,-2.0652,-2.0652,-2.0652,-2.0652,-2.0652,-2.0652,-2.0652,-2.0652,-2.0652,-2.0652,-2.0652,-2.0652,-2.0652,-2.0652,-2.0652,-2.0652,-2.0652,-2.2172,-2.3604,-2.4931,-2.6565,-2.7966,-2.9159,-2.944,-2.948,-2.9521,-2.9823,-2.9955,-2.9955,-2.9955,-2.9955,-2.9955,-2.9955,-2.9955,-2.9955,-2.9955,-2.9955,-2.9955,-2.9955,-2.9955,-2.9955,-2.9955,-2.9955,-2.9955,-2.9955,-2.9955,-2.9955,-2.9955,-2.9955,-2.9955,-2.9955,-2.9955,-2.9955,-2.9955,-2.9955,-2.9955,-2.9955,-2.9955,-2.9955,-2.9955,-2.9955,-2.9955,-2.9955,-2.9955,-2.9955,-2.9955,-2.9955,-2.9955,-2.9955,-2.9955,-2.9955,-2.9955,-2.9955,-2.9955,-2.9955,-2.9955,-2.9955,-2.9955,-2.9955,-2.9955,-2.9955,-2.9955,-2.9955,-2.9955,-3.1169,-3.1666,-1.0232,-1.0449,-1.0443,-1.0552,-1.0192,-1.0127,-1.107,-1.0567,-0.9831,-0.9888,-1.1947,-1.3764,-1.3917,-1.4591,-1.5592,-1.7141,-1.7142,-1.7657,-1.9513,-1.9776,-1.9971,-2.06,-2.0652,-2.0652,-2.0652,-2.0652,-2.0652,-2.0652,-2.0652,-2.0652,-2.0652,-2.0652,-2.0652,-2.0652,-2.0652,-2.0652,-2.0652,-2.0652,-2.0652,-2.0652,-2.0652,-2.0652,-2.0652,-2.2172,-2.3003,-2.3364,-2.4939,-2.5653,-2.6044,-2.739,-2.7935,-2.8039,-2.937,-2.9955,-2.9955,-2.9955,-2.9955,-2.9955,-2.9955,-2.9955,-2.9955,-2.9955,-2.9955,-2.9955,-2.9955,-2.9955,-2.9955,-2.9955,-2.9955,-2.9955,-2.9955,-2.9955,-2.9955,-2.9955,-2.9955,-2.9955,-2.9955,-2.9955,-2.9955,-2.9955,-2.9955,-2.9955,-2.9955,-2.9955,-2.9955,-2.9955,-2.9955,-2.9955,-2.9955,-2.9955,-2.9955,-2.9955,-2.9955,-2.9955,-2.9955,-2.9955,-2.9955,-2.9955,-2.9955,-2.9955,-2.9955,-2.9955,-2.9955,-2.9955,-2.9955,-2.9955,-2.9955,-2.9955,-2.9955,-2.9955,-3.0125,-3.0257,-0.9343,-0.9959,-1.0449,-1.0443,-1.0331,-1.0272,-1.0451,-1.0276,-1.0148,-1.0294,-1.1549,-1.3068,-1.3936,-1.3428,-1.3671,-1.6272,-1.567,-1.5799,-1.8417,-1.7917,-1.7764,-1.9022,-1.9218,-1.9243,-1.9243,-2.0062,-2.0652,-2.0652,-2.0652,-2.0652,-2.0652,-2.0652,-2.0652,-2.0652,-2.0652,-2.0652,-2.0652,-2.0652,-2.0652,-2.0652,-2.0652,-2.0652,-2.0652,-2.1361,-2.2051,-2.3003,-2.3664,-2.4432,-2.5285,-2.6015,-2.6324,-2.644,-2.802,-2.8619,-2.8769,-2.9653,-2.9955,-2.9955,-2.9955,-2.9292,-2.8756,-2.9633,-2.9955,-2.9955,-2.9955,-2.9955,-2.9955,-2.9955,-2.9955,-2.9955,-2.9955,-2.9955,-2.9955,-2.9955,-2.9955,-2.9955,-2.9955,-2.9955,-2.9955,-2.9955,-2.9955,-2.9955,-2.9955,-2.9955,-2.9955,-2.9955,-2.9955,-2.9955,-2.9955,-2.9955,-2.9955,-2.9955,-2.9955,-2.9955,-2.9955,-2.9955,-2.9955,-2.9955,-2.9955,-2.9955,-2.9955,-2.9955,-2.9955,-2.9955,-2.9955,-2.9955,-2.9955,-2.9955,-2.9955,-2.9955,-2.9955,-2.9955,-0.864,-0.9424,-1.0144,-1.043,-1.0449,-1.037,-1.0146,-1.0343,-1.0591,-1.071,-1.1739,-1.2812,-1.3948,-1.2543,-1.2127,-1.5173,-1.4074,-1.38,-1.6821,-1.6066,-1.5858,-1.7277,-1.7397,-1.7589,-1.8072,-1.9182,-1.9825,-1.9406,-1.9727,-2.0024,-2.0024,-2.0406,-2.0652,-2.0652,-2.0652,-2.0393,-2.0024,-2.0024,-1.9777,-1.9257,-1.9777,-2.0024,-2.0024,-2.0406,-2.1239,-2.2293,-2.2293,-2.2979,-2.4081,-2.451,-2.4658,-2.4857,-2.6389,-2.7041,-2.7181,-2.8291,-2.8701,-2.8738,-2.8798,-2.8028,-2.7151,-2.8356,-2.8798,-2.8798,-2.9255,-2.9369,-2.9369,-2.9369,-2.9615,-2.9842,-2.9501,-2.9615,-2.9955,-2.9955,-2.9955,-2.9955,-2.9955,-2.9955,-2.9955,-2.9955,-2.9955,-2.9955,-2.9955,-2.9955,-2.9955,-2.9955,-2.9955,-2.9955,-2.9955,-2.9955,-2.9955,-2.9955,-2.9955,-2.9955,-2.9955,-2.9955,-2.9955,-2.9955,-2.9955,-2.9955,-2.9955,-2.9955,-2.9955,-2.9955,-2.9955,-2.9955,-2.9955,-2.9955,-2.9955,-2.9955,-2.9955,-2.9955,-0.849,-0.8791,-0.9056,-1.0216,-1.0469,-1.0449,-1.0436,-1.0545,-1.0519,-1.0485,-1.2257,-1.3599,-1.2958,-1.2464,-1.2476,-1.3667,-1.2896,-1.2669,-1.4494,-1.4736,-1.4892,-1.5553,-1.5673,-1.6274,-1.7946,-1.8218,-1.7507,-1.5901,-1.7248,-1.8151,-1.8151,-1.9777,-2.0652,-2.0652,-2.0652,-1.9777,-1.8276,-1.8151,-1.738,-1.5854,-1.738,-1.8151,-1.8276,-1.99,-2.0652,-2.0762,-2.0762,-2.0775,-2.0938,-2.2481,-2.303,-2.3203,-2.4757,-2.5383,-2.5397,-2.5547,-2.5486,-2.5479,-2.5453,-2.5405,-2.5421,-2.5523,-2.5523,-2.5759,-2.728,-2.7744,-2.7744,-2.7744,-2.8779,-2.9615,-2.809,-2.8798,-2.9955,-2.9955,-2.9955,-2.9955,-2.9955,-2.9955,-2.9955,-2.9955,-2.9955,-2.9955,-2.9955,-2.9955,-2.9955,-2.9955,-2.9955,-2.9955,-2.9955,-2.9955,-2.9955,-2.9955,-2.9955,-2.9955,-2.9955,-2.9955,-2.9955,-2.9955,-2.9955,-2.9955,-2.9955,-2.9955,-2.9955,-2.9955,-2.9955,-2.9955,-2.9955,-2.9955,-2.9955,-2.9955,-2.9955,-2.9955,-0.7525,-0.8143,-0.9011,-1.0225,-1.0471,-1.0478,-1.0539,-1.0436,-1.0552,-1.0443,-1.0822,-1.1337,-1.2474,-1.1583,-1.1147,-1.2468,-1.1783,-1.1629,-1.3371,-1.2628,-1.2432,-1.3806,-1.3955,-1.4154,-1.4759,-1.481,-1.5038,-1.5464,-1.6149,-1.644,-1.6492,-1.6994,-1.7879,-1.8898,-1.7879,-1.7619,-1.8027,-1.8027,-1.7255,-1.5602,-1.6116,-1.7005,-1.8151,-1.8649,-1.9529,-2.0652,-2.0652,-2.0652,-2.0652,-2.121,-2.1496,-2.1592,-2.3126,-2.3716,-2.3944,-2.4907,-2.5319,-2.5114,-2.4098,-2.3724,-2.3963,-2.4931,-2.5287,-2.5405,-2.5995,-2.6112,-2.6112,-2.6112,-2.6564,-2.6797,-2.6213,-2.6564,-2.6914,-2.6914,-2.6914,-2.6914,-2.6914,-2.7744,-2.8435,-2.8435,-2.9255,-2.9955,-2.9955,-2.9955,-2.9955,-2.9955,-2.9955,-2.9955,-2.9955,-2.9955,-2.9955,-2.9955,-2.9955,-2.9955,-2.9955,-2.9955,-2.9955,-2.9955,-2.9955,-2.9955,-2.9955,-2.9955,-2.9955,-2.9955,-2.9955,-2.9955,-2.9955,-2.9955,-2.9955,-2.9955,-2.9955,-2.9955,-0.7017,-0.6957,-0.6983,-0.6976,-0.8727,-1.0475,-1.0512,-1.0438,-1.0458,-1.0436,-1.0157,-1.0265,-1.1672,-1.0906,-1.0377,-1.1355,-1.092,-1.0932,-1.2057,-1.1182,-1.0925,-1.2057,-1.2118,-1.2422,-1.2969,-1.2464,-1.2628,-1.3823,-1.442,-1.4654,-1.471,-1.5224,-1.6105,-1.713,-1.6105,-1.5854,-1.6367,-1.6367,-1.5476,-1.3841,-1.3841,-1.4972,-1.7255,-1.84,-1.927,-1.9777,-2.0406,-2.0283,-1.9802,-2.0406,-2.0652,-2.0749,-2.179,-2.2201,-2.2335,-2.332,-2.3739,-2.3499,-2.2535,-2.2172,-2.2293,-2.3379,-2.3739,-2.3739,-2.4321,-2.444,-2.444,-2.444,-2.4813,-2.5168,-2.4678,-2.4916,-2.5287,-2.5287,-2.5287,-2.5287,-2.5287,-2.6095,-2.6797,-2.6797,-2.7628,-2.8321,-2.8321,-2.8321,-2.855,-2.9026,-2.9141,-2.8912,-2.8435,-2.8834,-2.91,-2.9174,-2.9671,-2.9955,-2.9955,-2.9955,-2.9955,-2.9955,-2.9955,-2.9955,-2.9955,-2.9955,-2.9955,-2.9955,-2.9955,-2.9955,-2.9955,-2.9955,-2.9955,-2.9955,-2.9955,-2.9955,-0.6665,-0.5093,-0.2827,-0.0337,-0.5032,-1.0198,-1.0454,-1.0523,-1.0481,-1.0242,-1.032,-1.0469,-1.0449,-1.0449,-1.0449,-1.0552,-1.0552,-1.0552,-1.0552,-1.0552,-1.0552,-1.0552,-1.0552,-1.1088,-1.2832,-1.1482,-1.0552,-1.0552,-1.2034,-1.2901,-1.2934,-1.4457,-1.5476,-1.5476,-1.5476,-1.4583,-1.3061,-1.3061,-1.2185,-1.0552,-1.0552,-1.232,-1.5476,-1.8874,-1.9517,-1.814,-1.9764,-1.9542,-1.8197,-1.9789,-2.0529,-2.0652,-2.0652,-2.0652,-2.0529,-2.0516,-2.0393,-2.0393,-2.0393,-2.0393,-2.0393,-2.0393,-2.0393,-2.0762,-2.2293,-2.2748,-2.2762,-2.2883,-2.3963,-2.4813,-2.3244,-2.3963,-2.5168,-2.5168,-2.5168,-2.5168,-2.5168,-2.5168,-2.5168,-2.5168,-2.5287,-2.5287,-2.5287,-2.5287,-2.5759,-2.728,-2.7495,-2.6914,-2.5523,-2.6531,-2.7505,-2.7477,-2.8865,-2.9861,-2.9879,-2.9861,-2.9955,-2.9955,-2.9955,-2.9823,-2.9823,-2.9823,-2.9804,-2.9804,-2.9804,-2.9804,-2.9804,-2.9804,-2.9804,-2.9804,-2.9804,-2.9804,0.0094,-0.0096,0.0678,0.5237,0.1415,-0.47,-0.9449,-1.0451,-0.9011,-0.3893,-0.6977,-1.0543,-1.0458,-1.0472,-1.0449,-1.0449,-1.0559,-1.0552,-1.0552,-1.0552,-1.0552,-1.0552,-1.0552,-1.0688,-1.1088,-1.0816,-1.0552,-1.0552,-1.0918,-1.1175,-1.1182,-1.1688,-1.2448,-1.3697,-1.2576,-1.232,-1.3061,-1.3061,-1.2185,-1.0552,-1.168,-1.2185,-1.1944,-1.4077,-1.5466,-1.6231,-1.6733,-1.738,-1.8174,-1.8619,-1.9479,-2.0652,-2.0652,-2.0652,-2.027,-1.7811,-1.694,-1.6983,-1.6983,-1.6983,-1.6983,-1.6983,-1.6983,-1.7233,-1.8862,-1.9357,-1.9727,-2.0858,-2.1605,-2.1849,-2.1361,-2.1605,-2.1835,-2.1835,-2.1835,-2.1835,-2.1835,-2.2777,-2.3604,-2.3604,-2.444,-2.5287,-2.5287,-2.5287,-2.5405,-2.5877,-2.49,-2.4425,-2.5168,-2.5658,-2.5857,-2.5902,-2.7336,-2.8213,-2.8198,-2.9297,-2.9955,-2.9955,-2.89,-2.8188,-2.8188,-2.7163,-2.6588,-2.6588,-2.6588,-2.6588,-2.6588,-2.6588,-2.6588,-2.6588,-2.6588,-2.6588,-0.0,0.1353,0.4813,0.7931,0.4124,-0.1522,-0.5472,-0.6255,-0.5696,-0.3982,-0.4947,-0.7042,-0.9991,-1.0432,-1.0472,-1.0436,-1.0443,-1.0559,-1.0552,-1.0552,-1.0552,-1.0552,-1.0436,-1.0449,-1.0449,-1.0559,-1.0552,-1.0552,-1.0552,-1.0552,-1.0552,-1.0552,-1.0925,-1.1929,-1.1053,-1.0932,-1.1929,-1.1937,-1.1431,-1.0552,-1.156,-1.1808,-1.156,-1.256,-1.395,-1.5602,-1.5602,-1.5728,-1.599,-1.6692,-1.756,-1.849,-1.8507,-1.846,-1.8214,-1.6305,-1.5592,-1.5602,-1.5602,-1.5602,-1.5602,-1.5602,-1.5602,-1.5728,-1.6743,-1.7005,-1.7255,-1.8253,-1.8501,-1.8501,-1.8501,-1.8501,-1.8501,-1.8501,-1.901,-1.9529,-1.9529,-2.0858,-2.1943,-2.1943,-2.267,-2.3273,-2.3273,-2.3273,-2.3273,-2.3273,-2.2549,-2.2307,-2.3259,-2.3273,-2.3529,-2.4205,-2.5129,-2.5885,-2.6566,-2.7444,-2.8001,-2.7943,-2.7163,-2.6601,-2.6631,-2.5778,-2.5228,-2.5228,-2.5228,-2.5228,-2.5228,-2.5228,-2.5228,-2.5228,-2.5228,-2.4514,-0.3087,0.1113,0.8199,0.7819,0.4007,0.009,0.0,-0.0535,-0.184,-0.68,-0.3655,-0.1851,-0.8153,-0.9901,-1.039,-1.0505,-1.0443,-1.0449,-1.0559,-1.0559,-1.0294,-0.9894,-0.9932,-1.0087,-1.0489,-1.0449,-1.0559,-1.0552,-1.0552,-1.0552,-1.0552,-1.0552,-1.0552,-1.0552,-1.0552,-1.0552,-1.0552,-1.0552,-1.0552,-1.0552,-1.0552,-1.131,-1.2679,-1.2679,-1.357,-1.4972,-1.4972,-1.4077,-1.2807,-1.4602,-1.5379,-1.5496,-1.5538,-1.5325,-1.4953,-1.4962,-1.5019,-1.4972,-1.4972,-1.4972,-1.4972,-1.4972,-1.4972,-1.5098,-1.5476,-1.5476,-1.5341,-1.5728,-1.5728,-1.5602,-1.5602,-1.5602,-1.5602,-1.5602,-1.6743,-1.7766,-1.7766,-1.9022,-2.0024,-2.0024,-2.0024,-2.0147,-2.027,-2.027,-2.027,-2.0011,-2.0393,-2.0529,-2.0406,-2.0529,-2.1117,-2.2535,-2.2642,-2.3364,-2.4931,-2.518,-2.5311,-2.522,-2.5138,-2.4998,-2.5047,-2.4817,-2.4801,-2.4801,-2.4801,-2.4801,-2.4801,-2.4801,-2.4801,-2.4801,-2.4801,-2.321,0.0,0.0,0.0,0.0,0.0,0.0,0.0,-0.1532,-0.262,-0.1855,-0.079,-0.0415,-0.1836,-0.5893,-0.9446,-1.0384,-1.0479,-1.0482,-1.0476,-1.0476,-0.9408,-0.6635,-0.6246,-0.7436,-1.0223,-1.0482,-1.0463,-1.0552,-1.0552,-1.0552,-1.0552,-1.0552,-1.0552,-1.0552,-1.0552,-1.0552,-1.0552,-1.0552,-1.0552,-1.0552,-1.0552,-1.0674,-1.0925,-1.0925,-1.1182,-1.1439,-1.1439,-1.131,-1.106,-1.2784,-1.4265,-1.5613,-1.5574,-1.392,-1.1523,-1.1439,-1.1446,-1.1439,-1.1439,-1.1439,-1.1439,-1.1439,-1.1439,-1.1944,-1.4719,-1.4583,-1.4077,-1.6869,-1.6618,-1.5602,-1.5602,-1.5602,-1.5602,-1.5602,-1.5854,-1.598,-1.598,-1.6357,-1.6482,-1.6482,-1.6482,-1.6994,-1.8389,-1.8525,-1.814,-1.6733,-1.8874,-2.0147,-1.8773,-1.9777,-2.0762,-2.1007,-2.0994,-2.1714,-2.3244,-2.4572,-2.5277,-2.5301,-2.4116,-2.3388,-2.3348,-2.2207,-2.1496,-2.1496,-2.1496,-2.1496,-2.1496,-2.1496,-2.1496,-2.1496,-2.1496,-2.121,0.0,0.0,0.0,0.0,0.0,0.0,0.0,0.0,0.0,0.0,0.0,-0.2836,-0.3375,0.0,-0.775,-1.0087,-1.053,-0.9896,-0.8185,-0.7894,-0.6522,-0.3001,-0.5746,-0.8516,-1.0268,-0.8934,-0.8657,-1.0372,-1.0449,-1.0552,-1.0552,-1.0552,-1.0559,-1.0436,-1.0559,-1.0552,-1.0552,-1.0552,-1.0552,-1.0552,-1.0552,-1.0552,-1.0552,-1.0552,-1.0552,-1.0552,-1.0552,-1.0552,-1.0552,-1.1353,-1.2293,-1.2969,-1.2969,-1.202,-1.0552,-1.0552,-1.0552,-1.0552,-1.0552,-1.0552,-1.0552,-1.0552,-1.0552,-1.0803,-1.2576,-1.2448,-1.2064,-1.385,-1.3714,-1.3078,-1.3078,-1.3078,-1.3078,-1.3078,-1.3705,-1.433,-1.433,-1.4962,-1.5602,-1.5602,-1.5602,-1.5854,-1.6618,-1.6105,-1.5602,-1.5602,-1.6983,-1.7743,-1.6869,-1.7494,-1.8013,-1.776,-1.7726,-1.8455,-2.0143,-2.0876,-2.1874,-2.2893,-2.2207,-2.1783,-2.1783,-2.1074,-2.0652,-2.0652,-2.0652,-2.0652,-2.0652,-2.0652,-2.0652,-2.0529,-1.996,-1.9689,0.0,0.0,0.0,0.0,0.0,0.0,0.0,0.0,0.0,0.0,0.0,0.0,0.0,0.0,0.0,-0.8048,-0.7899,-0.6738,-0.4489,-0.42,-0.3233,-0.039,-0.4958,-0.8412,-0.8438,-0.7109,-0.7375,-1.0319,-0.9839,-0.9513,-0.9489,-0.9495,-0.9778,-1.0463,-1.0443,-1.0436,-1.0436,-1.0559,-1.0559,-1.0559,-1.0552,0.0,-1.0552,-1.0552,-1.0552,-1.0552,-1.0552,-1.0552,-1.0552,-1.0552,-1.0552,-1.0552,-1.0552,-1.0552,-1.0552,-1.0552,-1.0552,-1.0552,-1.0552,-1.0552,-1.0552,-1.0552,-1.0552,-1.0552,-1.0932,-1.0803,0.0,-1.0932,-1.0803,-1.0552,-1.0552,-1.0552,-1.0552,-1.0552,-1.1552,-1.256,-1.256,-1.3578,-1.4592,-1.4592,-1.4592,-1.4719,-1.4972,-1.395,-1.329,-1.4356,-1.504,-1.5447,-1.4983,-1.5553,-1.5962,-1.5584,-1.5906,-1.6642,-1.8,-1.768,-1.843,-2.0477,-2.0225,-1.9943,-1.996,-1.996,-1.996,-1.996,-1.996,-2.0096,-2.038,-2.0367,-2.0245,-2.0232,-1.8708,-1.806,0.0,0.0,0.0,0.0,0.0,0.0,0.0,0.0,0.0,0.0,0.0,0.0,0.0,0.0,0.0,0.0,0.1477,0.2558,-0.025,-0.0629,-0.0504,-0.0,-0.0645,-0.1178,-0.1179,-0.6445,-1.0051,-1.0457,-0.7632,-0.588,-0.5824,-0.5842,0.0,0.0,0.0,-1.0482,-1.0482,-1.0463,-1.0449,-1.0449,-1.0559,-1.0552,-1.0552,-1.0552,-1.0552,-1.0552,-1.0552,-1.0552,-1.0552,-1.0552,-1.0552,-1.0552,-1.0552,-1.0552,-1.0552,-1.0552,-1.0552,-1.0552,-1.0552,0.0,0.0,-1.0552,-1.0552,-1.0803,-1.2312,-1.168,-1.0803,-1.2305,-1.168,-1.0552,-1.0552,-1.0552,-1.0552,-1.0552,-1.0681,-1.0803,-1.0803,-1.0932,-1.106,-1.106,-1.106,-1.156,-1.3061,-1.3188,-1.2448,-1.0792,-1.3363,-1.4839,-1.2998,-1.5746,-1.7743,-1.7687,-1.9049,0.0,-2.018,-1.8611,-1.843,-2.0477,-1.8869,-1.787,-1.7875,-1.7898,-1.7898,-1.7898,-1.7373,-1.8044,-1.9689,-1.9271,-1.9,-1.8952,-1.6094,-1.5413,0.0,0.0,0.0,0.0,0.0,0.0,0.0,0.0,0.0,0.0,0.0,0.0,0.0,0.0,0.0,0.0,0.429,0.4783,0.3267,0.1281,-0.0,-0.0,-0.0,-0.0,-0.0,-0.2623,-0.4331,-0.4331,-0.3016,-0.2224,-0.2214,-0.6113,-0.9002,-1.0502,-0.8499,-0.7436,-0.7436,-0.7426,-0.8483,-1.0476,-1.0449,-1.0443,-1.0443,-1.0559,-1.0552,-1.0552,-1.0552,-1.0552,-1.0552,-1.0552,-1.0552,-1.0552,0.0,0.0,0.0,0.0,-1.0552,-1.0552,-1.0552,-1.0552,-1.0552,-1.0436,-1.0559,-1.0681,-1.1339,-1.1074,-1.0681,-1.1317,-1.106,-1.0552,-1.0552,-1.0552,-1.0552,-1.0552,-1.0552,-1.0552,-1.0552,-1.0552,-1.0552,-1.0552,-1.0552,0.0,-1.1431,-1.1552,-1.126,-1.0378,-1.1599,-1.2273,-1.1376,-1.2742,-1.3636,-1.3401,-1.3984,-1.4847,-1.5829,-1.5018,0.0,0.0,0.0,-1.8248,-1.9271,-1.9271,0.0,0.0,0.0,-1.7347,-1.8171,-1.6995,0.0,0.0,-1.4272,-1.382,0.0,0.0,0.0,0.0,0.0,0.0,0.0,0.0,0.0,0.0,0.0,0.0,0.0,0.0,0.0,0.0,0.5127,0.4926,0.4568,0.2761,0.1362,0.0949,0.0366,0.0499,0.1767,0.0764,-0.0,-0.0,-0.0,-0.0,-0.0,-0.4822,-0.7565,-0.7604,-0.5091,-0.3778,-0.3778,-0.5738,-0.797,-1.0496,-0.9543,-0.9531,-1.0463,-1.0449,-1.0436,-1.0436,-1.0436,-1.0436,-1.0436,-1.0436,-1.0436,-1.0443,-0.9425,-0.9019,-0.9108,-0.9108,-0.9642,-1.0436,-1.0436,-1.0436,-1.0443,-1.0456,-0.9784,-0.9249,-1.021,-0.9796,-0.9249,-1.0191,-1.0449,-1.0436,-1.0436,-1.0436,-1.0436,-1.0436,-1.0436,-1.0559,-1.0559,-1.0552,-1.0552,-1.0552,-1.0552,-1.0559,-1.0559,-1.0552,-1.0525,-1.0311,-1.037,-1.0519,-1.0311,-1.0876,-1.109,-1.0849,-1.1201,-1.1937,-1.3173,-1.2711,-1.3807,-1.7141,-1.6858,-1.7347,-1.9158,-1.8714,-1.8047,-1.7512,-1.6146,-1.5515,0.0,0.0,0.0,0.0,0.0,0.0,0.0,0.0,0.0,0.0,0.0,0.0,0.0,0.0,0.0,0.0,0.0,0.0,0.0,0.0,0.0,0.0,0.0,0.0,0.2807,0.4075,0.4685,0.3534,0.1363,0.1781,0.6353,0.2719,-0.0,-0.0,-0.0,-0.0,-0.0,-0.0262,-0.0393,-0.0393,-0.0262,-0.0131,-0.0131,-0.6942,-1.0385,-1.0522,-0.7046,-0.7171,-1.0489,-1.0482,-1.0482,-1.0482,-1.0482,-1.0482,-1.0482,-1.0482,-1.0482,-1.0223,-0.669,-0.5365,-0.5464,-0.5464,-0.7565,-1.0482,-1.0482,-1.0482,-1.0482,-1.0489,-0.8229,-0.5987,-0.9419,-0.8094,-0.6117,-0.9555,-1.0489,-1.0482,-1.0482,-1.0482,-1.0482,-1.0482,-1.0469,-1.0456,-1.0456,-1.0436,-1.0552,-1.0552,-1.0436,-1.0456,-1.0456,-1.0436,-1.0324,-1.0034,-1.0238,0.0,-1.0021,-1.1725,-1.2926,-1.2918,-1.4438,-1.5457,-1.5457,-1.3596,-1.3305,-1.5447,-1.3674,-1.3549,-1.5682,-1.3753,-1.251,-1.2345,-1.1422,-1.1533,-1.2951,0.0,0.0,0.0,0.0,0.0,0.0,0.0,0.0,0.0,0.0,0.0,0.0,0.0,0.0,0.0,0.0,0.0,0.0,0.0,0.0,0.0,0.0,0.0,0.0,0.466,0.4671,0.3079,0.3897,0.461,0.4648,0.468,0.4629,0.468,0.1765,-0.0,-0.0,-0.0,-0.0,-0.0,-0.0,-0.0,-0.0,-0.2357,-0.3534,-0.3534,-0.7068,-0.9307,-1.0379,-0.8099,-0.7042,-0.7042,-0.7042,-0.7042,-0.7042,-0.7042,-0.5612,-0.3401,-0.2227,-0.1833,-0.2351,-0.7051,-0.9417,-1.0107,-0.7818,-0.7031,-0.6662,-0.4312,-0.4309,-0.505,-0.3949,-0.4315,-0.5941,-0.953,-0.8791,-0.6999,-0.7006,-0.7042,-0.7042,-0.7042,-0.7037,-0.769,-0.9944,-1.0469,-1.0463,-1.0463,-0.8609,-0.7786,-1.0108,-1.0523,-1.0493,-1.026,-1.0372,-1.0458,-1.0285,-1.0883,-1.1317,-1.1303,-1.1808,-1.2192,-1.2192,-1.1592,-1.1942,-1.3815,-1.3265,-1.3644,-1.5506,-1.462,-1.4064,-1.3979,-1.3185,-1.2088,-1.0922,0.0,0.0,0.0,0.0,0.0,0.0,0.0,0.0,0.0,0.0,0.0,0.0,0.0,0.0,0.0,0.0,0.0,0.0,0.0,0.0,0.0,0.0,0.0,0.0,0.0,0.0,0.4212,0.602,0.0,0.4753,0.5797,0.6269,0.5471,0.2612,0.1147,0.1824,0.1891,0.1261,-0.0,-0.0,-0.0,-0.0,-0.0,-0.0,-0.0,-0.4582,-0.6812,-0.6682,-0.444,-0.339,-0.339,-0.339,-0.339,-0.3386,-0.334,-0.204,-0.0,-0.0,-0.0,-0.0508,-0.5073,-0.6752,-0.6374,-0.4192,-0.3337,-0.2949,-0.0714,-0.1497,-0.2923,-0.0691,-0.1609,-0.3897,-0.6176,-0.5178,-0.3409,-0.3388,-0.344,-0.3338,-0.3338,-0.5308,-0.771,-0.9969,-0.9545,-0.8247,-0.6976,-0.6913,-0.7786,-1.0156,-0.9471,-0.8628,-0.8628,-0.8604,-0.8597,-0.8577,-0.9734,-1.0463,-1.0449,-1.0443,-1.0443,-1.0436,-1.0436,-1.0938,-1.2057,-1.2185,-1.2512,-1.3505,-1.3348,-1.2966,-1.255,-1.193,-1.0698,0.0,0.0,0.0,0.0,0.0,0.0,0.0,0.0,0.0,0.0,0.0,0.0,0.0,0.0,0.0,0.0,0.0,0.0,0.0,0.0,0.0,0.0,0.0,0.0,0.0,0.0,0.0,0.6922,0.7397,0.0,0.0,0.0,0.0,0.2817,0.2591,0.333,0.5098,0.5106,0.3617,0.0379,0.026,0.0131,-0.0,-0.0,-0.0,-0.0,-0.0,-0.0,-0.0,-0.0,-0.0,-0.0,-0.0,-0.0,-0.0,-0.0,-0.0,-0.0,0.0126,0.0125,0.0118,0.0119,0.0119,0.012,0.0254,0.0259,0.0255,-0.0,0.0107,0.01,0.0106,0.0105,0.0,0.0,0.0111,0.0114,0.0237,0.0244,0.025,-0.0,-0.5112,-0.9951,-0.9951,-0.7369,-0.3941,-0.0595,-0.5351,-0.9942,-0.9843,0.0,-0.496,-0.4742,-0.4881,-0.5164,-0.5451,-0.8455,-1.0476,-1.0223,-1.0223,-1.021,-1.0191,-1.0456,-1.0449,-1.0552,-1.0539,-1.0271,-0.9988,-0.9934,-0.9293,-0.8165,-0.7918,0.0,0.0,0.0,0.0,0.0,0.0,0.0,0.0,0.0,0.0,0.0,0.0,0.0,0.0,0.0,0.0,0.0,0.0,0.0,0.0,0.0,0.0,0.0,0.0,0.0,0.0,0.5449,0.5791,0.5947,0.6174,0.6151,0.0,0.0,0.0,0.0,0.0,0.0,0.4498,0.3722,0.3427,0.3909,0.3874,0.2699,-0.0,-0.0,-0.0,-0.0,-0.0,-0.0,-0.0,-0.0,-0.0,-0.0,-0.0,-0.0,-0.0,-0.0,-0.0,0.0111,0.1428,0.1852,0.1833,0.1835,0.1888,0.2125,0.3408,0.3946,0.3504,0.0825,0.0903,0.1841,0.19,0.0,0.0,0.0,0.0,0.22,0.3506,0.3945,0.3212,0.06,-0.1343,-0.2699,-0.2699,-0.1938,-0.105,-0.0211,-0.1421,-0.2247,-0.1,-0.1106,0.0,0.2146,0.031,-0.3217,-0.8444,-0.9897,-0.9496,-0.6894,-0.6644,-0.6644,-0.6639,-0.9013,-1.0476,-1.0469,-1.0525,-1.0488,-1.0413,-0.9499,-0.867,-0.776,0.0,0.0,0.0,0.0,0.0,0.0,0.0,0.0,0.0,0.0,0.0,0.0,0.0,0.0,0.0,0.0,0.0,0.0,0.0,0.0,0.0,0.0,0.0,0.0,0.0,0.0,0.0,0.5269,0.5493,0.5768,0.5656,0.5438,0.0,0.0,0.0,0.0,0.0,0.0,0.0,0.0,0.0,0.4794,0.4134,0.282,0.1123,0.1919,0.2258,0.2313,0.0726,-0.0,-0.0,0.0752,0.1515,0.227,0.2357,0.1445,-0.0,-0.0,0.0912,0.2396,0.0,0.0,0.0,0.0,0.325,0.3446,0.4453,0.4298,0.3423,0.1401,0.0,0.0,0.0,0.0,0.0,0.0,0.0,0.3215,0.4196,0.3736,0.2692,0.1719,0.1514,0.1641,0.2081,0.2174,0.2009,0.1293,0.1495,0.1923,0.2176,0.1997,0.0,0.0,0.0,0.0312,-0.5146,-0.5902,-0.5179,-0.3196,-0.2978,-0.4174,-0.7315,-0.9301,-0.9778,-0.8344,-0.8204,-0.8068,-0.7999,-0.7217,-0.5959,0.0,0.0,0.0,0.0,0.0,0.0,0.0,0.0,0.0,0.0,0.0,0.0,0.0,0.0,0.0,0.0,0.0,0.0,0.0,0.0,0.0,0.0,0.0,0.0,0.0,0.0,0.0,0.0,0.0,0.5579,0.5755,0.0,0.0,0.0,0.0,0.0,0.0,0.0,0.0,0.0,0.0,0.0,0.0,0.0,0.2295,0.2688,0.428,0.5087,0.4808,0.1842,0.0342,0.0349,0.187,0.3533,0.5229,0.5,0.0,-0.0,0.0407,0.0,0.0,0.0,0.0,0.0,0.0,0.0,0.0,0.0,0.0,0.0,0.0,0.0,0.0,0.0,0.0,0.0,0.0,0.0,0.0,0.0,0.0,0.1195,0.3073,0.3475,0.3858,0.5237,0.537,0.4688,0.3072,0.3522,0.3748,0.0,0.0,0.0,0.0,0.0,0.0,0.1022,0.0231,-0.0,-0.0,-0.0,-0.2487,-0.8532,-0.916,-0.7859,-0.4747,-0.4546,-0.4405,-0.4113,-0.342,0.0,0.0,0.0,0.0,0.0,0.0,0.0,0.0,0.0,0.0,0.0,0.0,0.0,0.0,0.0,0.0,0.0,0.0,0.0,0.0,0.0,0.0,0.0,0.0,0.0,0.0,0.0,0.0,0.0,0.0,0.0,0.0,0.0,0.0,0.0,0.0,0.0,0.0,0.0,0.0,0.0,0.0,0.0,0.0,0.0,0.0,0.0,0.0,0.0,0.0,0.2354,0.2128,0.2135,0.2404,0.3573,0.5192,0.3609,0.1866,0.0177,0.2765,0.0,0.0,0.0,0.0,0.0,0.0,0.0,0.0,0.0,0.0,0.0,0.0,0.0,0.0,0.0,0.0,0.0,0.0,0.0,0.0,0.0,0.0,0.4158,0.3652,0.3536,0.4306,0.7289,0.0,0.0,0.0,0.0,0.0,0.0,0.0,0.0,0.0,0.0,0.0,0.4312,0.179,-0.0,-0.0,-0.0,-0.0524,-0.1702,-0.1795,-0.1513,-0.1003,-0.0911,-0.0837,0.0,0.0,0.0,0.0,0.0,0.0,0.0,0.0,0.0,0.0,0.0,0.0,0.0,0.0,0.0,0.0,0.0,0.0,0.0,0.0,0.0,0.0,0.0,0.0,0.0,0.0,0.0,0.0,0.0,0.0,0.0,0.0,0.0,0.0,0.0,0.0,0.0,0.0,0.0,0.0,0.0,0.0,0.0,0.0,0.0,0.0,0.0,0.0,0.0,0.0,0.0,0.0,0.0,0.0,0.0,0.0,0.0,0.0,0.3933,0.2902,0.0,0.0,0.0,0.0,0.0,0.0,0.0,0.0,0.0,0.0,0.0,0.0,0.0,0.0,0.0,0.0,0.0,0.0,0.0,0.0,0.0,0.0,0.0,0.0,0.0,0.0,0.0,0.0,0.0,0.0,0.0,0.0,0.0,0.0,0.0,0.0,0.0,0.0,0.0,0.0,0.5127,0.2135,-0.0,-0.0,0.3317,0.4033,0.0257,-0.0,-0.0,-0.0,-0.0,0.0,0.0,0.0,0.0,0.0,0.0,0.0,0.0,0.0,0.0,0.0,0.0,0.0,0.0,0.0,0.0,0.0,0.0,0.0,0.0,0.0,0.0,0.0,0.0,0.0,0.0,0.0,0.0,0.0,0.0,0.0,0.0,0.0,0.0,0.0,0.0,0.0,0.0,0.0,0.0,0.0,0.0,0.0,0.0,0.0,0.0,0.0,0.0,0.0,0.0,0.0,0.0,0.0,0.0,0.0,0.0,0.0,0.0,0.0,0.4313,0.4037,0.0,0.0,0.0,0.0,0.0,0.0,0.0,0.0,0.0,0.0,0.0,0.0,0.0,0.0,0.0,0.0,0.0,0.0,0.0,0.0,0.0,0.0,0.0,0.0,0.0,0.0,0.0,0.0,0.0,0.0,0.0,0.0,0.0,0.0,0.0,0.0,0.0,0.0,0.0,0.0,0.5289,0.2765,0.1155,0.1912,0.6295,0.6948,0.1633,0.1115,0.1056,0.0938,0.1164,0.0,0.0,0.0,0.0,0.0,0.0,0.0,0.0,0.0,0.0,0.0,0.0,0.0,0.0,0.0,0.0,0.0,0.0,0.0,0.0,0.0,0.0,0.0,0.0,0.0,0.0,0.0,0.0,0.0,0.0,0.0,0.0,0.0,0.0,0.0,0.0,0.0,0.0,0.0,0.0,0.0,0.0,0.0,0.0,0.0,0.0,0.0,0.0,0.0,0.0,0.0,0.0,0.0,0.0,0.0,0.0,0.0,0.0,0.0,0.0,0.0,0.0,0.0,0.0,0.0,0.0,0.0,0.0,0.0,0.0,0.0,0.0,0.0,0.0,0.0,0.0,0.0,0.0,0.0,0.0,0.0,0.0,0.0,0.0,0.0,0.0,0.0,0.0,0.0,0.0,0.0,0.0,0.0,0.0,0.0,0.0,0.0,0.0,0.0,0.0,0.0,0.5718,0.4633,0.5083,0.8261,0.6412,0.4888,0.4754,0.4758,0.4467,0.3946,0.0,0.0,0.0,0.0,0.0,0.0,0.0,0.0,0.0,0.0,0.0,0.0,0.0,0.0,0.0,0.0,0.0,0.0,0.0,0.0,0.0,0.0,0.0,0.0,0.0,0.0,0.0,0.0,0.0,0.0,0.0,0.0,0.0,0.0,0.0,0.0,0.0,0.0,0.0,0.0,0.0,0.0,0.0,0.0,0.0,0.0,0.0,0.0,0.0,0.0,0.0,0.0,0.0,0.0,0.0,0.0,0.0,0.0,0.0,0.0,0.0,0.0,0.0,0.0,0.0,0.0,0.0,0.0,0.0,0.0,0.0,0.0,0.0,0.0,0.0,0.0,0.0,0.0,0.0,0.0,0.0,0.0,0.0,0.0,0.0,0.0,0.0,0.0,0.0,0.0,0.0,0.0,0.0,0.0,0.0,0.0,0.0,0.0,0.0,0.0,0.0,0.0,0.5746,0.6712,0.7817,0.8967,0.8245,0.7823,0.8328,0.7991,0.7266,0.6024,0.0,0.0,0.0,0.0,0.0,0.0,0.0,0.0,0.0,0.0,0.0,0.0,0.0,0.0,0.0,0.0,0.0,0.0,0.0,0.0,0.0,0.0,0.0,0.0,0.0,0.0,0.0,0.0,0.0,0.0,0.0,0.0,0.0,0.0,0.0,0.0,0.0,0.0,0.0,0.0,0.0,0.0,0.0,0.0,0.0,0.0,0.0,0.0,0.0,0.0,0.0,0.0,0.0,0.0,0.0,0.0,0.0,0.0,0.0,0.0,0.0,0.0,0.0,0.0,0.0,0.0,0.0,0.0,0.0,0.0,0.0,0.0,0.0,0.0,0.0,0.0,0.0,0.0,0.0,0.0,0.0,0.0,0.0,0.0,0.0,0.0,0.0,0.0,0.0,0.0,0.0,0.0,0.0,0.0,0.0,0.0,0.0,0.0,0.0,0.0,0.0,0.0,0.6088,0.7864,0.895,0.893,0.9445,0.9951,1.0814,0.9758,0.8724,0.7817,0.0,0.0,0.0,0.0,0.0,0.0,0.0,0.0,0.0,0.0,0.0,0.0,0.0,0.0,0.0,0.0,0.0,0.0,0.0,0.0,0.0,0.0,0.0,0.0,0.0,0.0,0.0,0.0,0.0,0.0,0.0,0.0,0.0,0.0,0.0,0.0,0.0,0.0,0.0,0.0,0.0,0.0,0.0,0.0,0.0,0.0,0.0,0.0,0.0,0.0,0.0,0.0,0.0,0.0,0.0,0.0,0.0,0.0,0.0,0.0,0.0,0.0,0.0,0.0,0.0,0.0,0.0,0.0,0.0,0.0,0.0,0.0,0.0,0.0,0.0,0.0,0.0,0.0,0.0,0.0,0.0,0.0,0.0,0.0,0.0,0.0,0.0,0.0,0.0,0.0,0.0,0.0,0.0,0.0,0.0,0.0,0.0,0.0,0.0,0.0,0.0,0.0,0.6918,0.7714,0.849,0.9467,0.9302,0.9807,1.1507,0.9512,0.8519,0.0,0.0,0.0,0.0,0.0,0.0,0.0,0.0,0.0,0.0,0.0,0.0,0.0,0.0,0.0,0.0,0.0,0.0,0.0,0.0,0.0,0.0,0.0,0.0,0.0,0.0,0.0,0.0,0.0,0.0,0.0,0.0,0.0,0.0,0.0,0.0,0.0,0.0,0.0,0.0,0.0,0.0,0.0,0.0,0.0,0.0,0.0,0.0,0.0,0.0,0.0,0.0,0.0,0.0,0.0,0.0,0.0,0.0,0.0,0.0,0.0,0.0,0.0,0.0,0.0,0.0,0.0,0.0,0.0,0.0,0.0,0.0,0.0,0.0,0.0,0.0,0.0,0.0,0.0,0.0,0.0,0.0,0.0,0.0,0.0,0.0,0.0,0.0,0.0,0.0,0.0,0.0,0.0,0.0,0.0,0.0,0.0,0.0,0.0,0.0,0.0,0.0,0.0,0.8194,0.9433,1.0897,1.2524,1.233,1.2373,1.3332,1.1823,1.0661,1.0323,0.0,0.0,0.0,0.0,0.0,0.0,0.0,0.0,0.0,0.0,0.0,0.0,0.0,0.0,0.0,0.0,0.0,0.0,0.0,0.0,0.0,0.0,0.0,0.0,0.0,0.0,0.0,0.0,0.0,0.0,0.0,0.0,0.0,0.0,0.0,0.0,0.0,0.0,0.0,0.0,0.0,0.0,0.0,0.0,0.0,0.0,0.0,0.0,0.0,0.0,0.0,0.0,0.0,0.0,0.0,0.0,0.0,0.0,0.0,0.0,0.0,0.0,0.0,0.0,0.0,0.0,0.0,0.0,0.0,0.0,0.0,0.0,0.0,0.0,0.0,0.0,0.0,0.0,0.0,0.0,0.0,0.0,0.0,0.0,0.0,0.0,0.0,0.0,0.0,0.0,0.0,0.0,0.0,0.0,0.0,0.0,0.0,0.0,0.0,0.0,0.0,0.0,0.0,1.0426,1.1938,1.343,1.3343,1.3581,1.4562,1.2952,1.1719,1.1239,0.0,0.0,0.0,0.0,0.0,0.0,0.0,0.0,0.0,0.0,0.0,0.0,0.0,0.0,0.0,0.0,0.0,0.0,0.0,0.0,0.0,0.0,0.0,0.0,0.0,0.0,0.0,0.0,0.0,0.0,0.0,0.0,0.0,0.0,0.0,0.0,0.0,0.0,0.0,0.0,0.0,0.0,0.0,0.0,0.0,0.0,0.0,0.0,0.0,0.0,0.0,0.0,0.0,0.0,0.0,0.0,0.0,0.0,0.0,0.0,0.0,0.0,0.0,0.0,0.0,0.0,0.0,0.0,0.0,0.0,0.0,0.0,0.0,0.0,0.0,0.0,0.0,0.0,0.0,0.0,0.0,0.0,0.0,0.0,0.0,0.0,0.0,0.0,0.0,0.0,0.0,0.0,0.0,0.0,0.0,0.0,0.0,0.0,0.0,0.0,0.0,0.0,0.0,1.0635,1.2063,1.269,1.3007,1.3823,1.5349,1.3354,1.1937,1.2042,0.994,0.0,0.0,0.0,0.0,0.0,0.0,0.0,0.0,0.0,0.0,0.0,0.0,0.0,0.0,0.0,0.0,0.0,0.0,0.0,0.0,0.0,0.0,0.0,0.0,0.0,0.0,0.0,0.0,0.0,0.0,0.0,0.0,0.0,0.0,0.0,0.0,0.0,0.0,0.0,0.0,0.0,0.0,0.0,0.0,0.0,0.0,0.0,0.0,0.0,0.0,0.0,0.0,0.0,0.0,0.0,0.0,0.0,0.0,0.0,0.0,0.0,0.0,0.0,0.0,0.0,0.0,0.0,0.0,0.0,0.0,0.0,0.0,0.0,0.0,0.0,0.0,0.0,0.0,0.0,0.0,0.0,0.0,0.0,0.0,0.0,0.0,0.0,0.0,0.0,0.0,0.0,0.0,0.0,0.0,0.0,0.0,0.0,0.0,0.0,0.0,0.0,0.0,1.2045,1.3835,1.5853,1.606,1.6384,1.7248,1.5586,1.3807,1.2188,1.0686,0.0,0.0,0.0,0.0,0.0,0.0,0.0,0.0,0.0,0.0,0.0,0.0,0.0,0.0,0.0,0.0,0.0,0.0,0.0,0.0,0.0,0.0,0.0,0.0,0.0,0.0,0.0,0.0,0.0,0.0,0.0,0.0,0.0,0.0,0.0,0.0,0.0,0.0,0.0,0.0,0.0,0.0,0.0,0.0,0.0,0.0,0.0,0.0,0.0,0.0,0.0,0.0,0.0,0.0,0.0,0.0,0.0,0.0,0.0,0.0,0.0,0.0,0.0,0.0,0.0,0.0,0.0,0.0,0.0,0.0,0.0,0.0,0.0,0.0,0.0,0.0,0.0,0.0,0.0,0.0,0.0,0.0,0.0,0.0,0.0,0.0,0.0,0.0,0.0,0.0,0.0,0.0,0.0,0.0,0.0,0.0,0.0,0.0,0.0,0.0,0.0,0.0,1.1362,1.2943,1.5119,1.5767,1.6286,1.6581,1.5854,1.4426,1.2188,1.096,0.0,0.0,0.0,0.0,0.0,0.0,0.0,0.0,0.0,0.0,0.0,0.0,0.0,0.0,0.0,0.0,0.0,0.0,0.0,0.0,0.0,0.0,0.0,0.0,0.0,0.0,0.0,0.0,0.0,0.0,0.0,0.0,0.0,0.0,0.0,0.0,0.0,0.0,0.0,0.0,0.0,0.0,0.0,0.0,0.0,0.0,0.0,0.0,0.0,0.0,0.0,0.0,0.0,0.0,0.0,0.0,0.0,0.0,0.0,0.0,0.0,0.0,0.0,0.0,0.0,0.0,0.0,0.0,0.0,0.0,0.0,0.0,0.0,0.0,0.0,0.0,0.0,0.0,0.0,0.0,0.0,0.0,0.0,0.0,0.0,0.0,0.0,0.0,0.0,0.0,0.0,0.0,0.0,0.0,0.0,0.0,0.0,0.0,0.0,0.0,0.0,0.0,0.0,1.0764,1.2654,1.416,1.4978,1.491,1.5131,1.44,1.2057,0.0,0.0,0.0,0.0,0.0,0.0,0.0,0.0,0.0,0.0,0.0,0.0,0.0,0.0,0.0,0.0,0.0,0.0,0.0,0.0,0.0,0.0,0.0,0.0,0.0,0.0,0.0,0.0,0.0,0.0,0.0,0.0,0.0,0.0,0.0,0.0,0.0,0.0,0.0,0.0,0.0,0.0,0.0,0.0,0.0,0.0,0.0,0.0,0.0,0.0,0.0,0.0,0.0,0.0,0.0,0.0,0.0,0.0,0.0,0.0,0.0,0.0,0.0,0.0,0.0,0.0,0.0,0.0,0.0,0.0,0.0,0.0,0.0,0.0,0.0,0.0,0.0,0.0,0.0,0.0,0.0,0.0,0.0,0.0,0.0,0.0,0.0,0.0,0.0,0.0,0.0,0.0,0.0,0.0,0.0,0.0,0.0,0.0,0.0,0.0,0.0,0.0,0.0,0.0,0.938,1.0909,1.3443,1.4841,1.4319,1.4923,1.4133,1.1414,0.0,0.0,0.0,0.0,0.0,0.0,0.0,0.0,0.0,0.0,0.0,0.0,0.0,0.0]}],[{"header":{"parameterUnit":"kt","parameterCategory":2,"dx":1,"dy":1,"la1":29.285339999999998,"la2":30.599998999999997,"lo1":-89.70041500000002,"lo2":-87.6738589999976,"nx":112,"ny":82,"refTime":"2022-09-21T18:00:00:Z","depth":0,"parameterNumber":2,"parameterNumberName":"V-component_of_WINDS"},"data":[2.0809,2.072,2.0091,1.6827,1.7111,1.7267,1.3675,1.3149,1.3149,1.2268,1.0929,1.051,1.2407,1.0533,0.9008,0.9796,0.8455,0.6919,0.0,0.5645,0.5645,0.5573,0.6298,0.6227,0.4796,0.5955,0.7138,0.8039,0.7418,0.7344,0.8069,0.8564,0.8178,0.6947,0.8989,1.0145,1.0338,0.9858,1.1139,1.395,1.3147,1.2852,1.2928,1.3727,1.4104,1.4337,1.8689,2.0578,2.0561,2.0561,2.0633,2.0639,2.0548,2.0644,2.0657,2.062,1.917,1.7653,1.9852,2.0633,2.0555,2.06,2.0613,2.0652,2.0548,2.0587,2.0652,2.0652,2.0652,2.0652,2.0652,2.0652,2.0652,2.0652,2.1143,2.1483,2.0779,2.0578,2.0647,2.0647,2.0647,2.0647,2.0647,2.0647,2.0578,2.0626,2.0574,2.0644,2.0644,2.0578,2.0647,2.0647,2.0647,2.1064,2.2186,2.22,2.22,2.22,2.22,2.22,2.22,2.22,2.22,2.22,2.22,2.22,2.22,2.22,2.22,2.22,2.22,2.22,1.7671,1.7793,1.7442,1.4079,1.397,1.4033,1.1505,1.0814,1.0522,1.0004,0.9474,0.9177,0.9364,0.8752,0.8043,0.7454,0.7322,0.685,0.0,0.5711,0.5814,0.5766,0.5234,0.3841,0.111,0.1263,0.3567,0.8378,0.6205,0.4926,0.5793,0.5786,0.5215,0.3931,0.7026,0.8,0.6697,0.6829,0.8048,1.035,0.9685,0.9137,0.8709,1.0004,1.0505,1.0738,1.5253,1.7227,1.7391,1.9614,2.0651,2.0548,2.0633,2.0646,2.0287,1.8038,1.5814,1.4131,1.6419,1.7238,1.7227,1.7151,1.8767,2.0578,2.0587,2.0548,2.0548,2.0548,2.0548,2.0411,1.9579,1.9542,1.9505,1.859,1.9492,1.9973,1.7709,1.9037,2.0652,2.0652,2.0652,2.0652,2.0652,2.0581,2.0594,2.0652,2.0652,2.0652,2.0652,2.0652,2.0652,2.0652,2.0652,2.0652,2.0652,2.0652,2.0652,2.0652,2.0652,2.0652,2.0652,2.0652,2.0652,2.0652,2.0652,2.0652,2.0652,2.0652,2.0652,2.0652,2.0652,2.0652,1.4749,1.3878,1.3342,1.1148,1.0281,0.9946,0.989,0.9458,0.898,0.8447,0.8313,0.8313,0.8368,0.7715,0.697,0.6346,0.5995,0.0,0.0,0.5405,0.5587,0.5448,0.2877,-0.0326,-0.3946,-0.6969,-0.3983,0.7362,0.313,0.0,0.0,0.0,0.0,0.0,0.3282,0.5075,0.5205,0.5075,0.5075,0.5205,0.6368,0.636,0.5318,0.8844,1.0505,1.0552,1.0546,1.0512,1.0969,1.7523,2.0303,2.0291,2.0302,2.0328,1.9473,1.2937,1.0451,1.0451,1.0451,1.0451,1.0451,1.0444,1.4934,2.0303,2.0303,2.0303,2.0303,2.058,2.0455,1.9876,1.7649,1.756,1.7244,1.45,1.7167,1.8507,1.2,1.588,2.0665,2.0665,2.0665,2.0665,2.0652,2.0548,2.06,2.0568,2.0665,2.0665,2.0665,2.0665,2.0652,2.0652,2.0652,2.0652,2.0652,2.0652,2.0652,2.0652,2.0652,2.0529,2.0529,2.0529,2.0529,2.0529,2.0529,2.0529,2.0529,2.0529,2.0529,2.0529,2.0529,2.0393,1.136,1.1296,1.1301,0.9459,0.9796,1.0309,0.9066,0.8665,0.8509,0.8368,0.791,0.0,0.0,0.0,0.7055,0.6711,0.0,0.4795,0.5138,0.3138,0.1472,0.1183,0.0254,-0.1373,-0.3877,-0.6189,-0.6459,-0.4121,-0.1459,0.0,0.0,0.0,0.0,0.0,0.0882,0.2207,0.3898,0.2337,0.2726,0.5205,0.468,0.4677,0.5331,0.8861,1.0559,1.0539,1.0519,1.0465,1.0646,1.2496,1.3256,1.3323,1.3297,1.3265,1.3008,1.1196,1.0559,1.0485,1.0485,1.0485,1.0479,1.0539,1.1704,1.3282,1.3214,1.3323,1.4266,1.9185,1.8209,1.5874,1.6828,1.6671,1.6105,1.5195,1.4212,1.3389,1.4077,1.7571,2.0591,2.0591,2.0591,2.0565,2.06,2.0578,2.0642,2.0604,2.0591,2.0591,2.0591,2.0639,2.0587,2.0587,2.0607,2.0652,2.0652,2.0646,2.0659,2.0652,2.0652,2.0024,1.8773,1.99,2.0024,1.8773,1.8773,1.8773,1.8773,1.8773,1.8773,1.8773,1.7494,1.6983,0.9235,0.8973,0.9046,0.8505,0.8771,0.8914,0.7923,0.7533,0.7332,0.7075,0.0,0.0,0.0,0.0,0.0,0.0,0.4485,0.3461,0.3742,0.1467,-0.047,-0.0992,-0.2838,-0.4158,-0.4522,-0.6475,-0.8061,-0.8742,-0.5587,-0.3697,-0.3649,-0.3643,-0.3888,-0.4376,-0.2919,-0.1557,-0.013,-0.1557,-0.0909,0.1559,0.1948,0.2337,0.3122,0.5198,0.7685,1.0469,1.0456,1.0545,1.0485,1.0485,1.0458,1.0151,0.7304,0.7869,1.0559,1.0505,1.0519,1.0436,1.0436,1.0443,1.0443,1.0519,1.0492,1.0479,1.0438,1.0552,1.133,1.5213,1.4403,1.2663,1.3995,1.463,1.4602,1.3587,1.2995,1.2802,1.3374,1.4962,1.6419,1.6419,1.6419,1.6408,1.6398,1.6313,1.6334,1.6419,1.6419,1.6419,1.6419,1.6367,1.7413,2.0328,2.0651,2.0587,2.0587,2.0552,2.0565,2.0587,2.0587,1.979,1.7811,1.8151,1.8004,1.7005,1.7005,1.7005,1.7005,1.7005,1.6618,1.598,1.5728,1.5602,0.784,0.6966,0.686,0.7758,0.7306,0.6534,0.62,0.0,0.5191,0.4426,0.0,0.4178,0.4178,0.0,0.0,0.3652,0.2305,0.1255,0.1184,-0.06,-0.2215,-0.2968,-0.6302,-0.7902,-0.6113,-0.7726,-0.8972,-0.8863,-0.8884,-0.8926,-0.8976,-0.8995,-0.94,-1.042,-0.745,-0.5724,-0.5464,-0.5464,-0.4945,-0.3911,-0.1299,0.0,0.0,0.0,0.3377,0.9284,0.9284,0.9272,0.939,1.0191,1.0449,0.9765,0.2723,0.4023,0.9926,1.0327,1.0456,1.0327,0.9525,0.9272,0.929,0.929,0.9278,0.926,0.926,0.9913,1.0559,1.0559,1.0294,1.0159,1.0159,1.1431,1.232,1.0545,1.2305,1.3662,1.1075,1.0512,1.0471,1.0471,1.0471,1.0492,1.0552,1.0438,1.0546,1.0485,1.0471,1.0471,1.0471,1.0458,1.2811,1.8783,1.9461,1.9461,1.9461,1.9473,1.975,2.058,2.0177,1.9185,1.7238,1.5884,1.5214,1.5214,1.5214,1.5214,1.5214,1.5214,1.433,1.2807,1.4077,1.4836,0.6034,0.5599,0.5607,0.5805,0.5703,0.4898,0.0,0.0,0.0,-0.1303,-0.2163,-0.2417,-0.2417,-0.2417,-0.2609,-0.3125,-0.357,-0.3528,-0.2608,-0.693,-1.0354,-1.0956,-1.1192,-1.0991,-1.0207,-1.0222,-1.019,-0.9748,-0.9968,-1.0148,-1.0212,-1.0181,-1.0242,-1.0496,-0.9884,-0.8586,-0.6627,-0.6627,-0.6506,-0.6254,-0.2078,0.0,0.0,0.0,0.0777,0.2072,0.2072,0.2071,0.2459,0.8214,1.0476,0.9809,0.2721,0.2592,0.6639,0.9414,1.0482,0.9679,0.4026,0.2076,0.2078,0.2078,0.2076,0.2076,0.2076,0.5983,1.0476,1.0476,0.9143,0.769,0.769,0.7283,0.7019,0.7556,0.7398,0.777,1.0023,1.0525,1.0505,1.0505,1.0505,1.0519,1.0443,1.0449,1.0436,1.0539,1.0532,1.0525,1.0505,1.0445,1.1047,1.2369,1.2448,1.2408,1.2408,1.2464,1.4747,2.0303,1.8013,1.6649,1.7102,1.4747,1.357,1.357,1.357,1.357,1.357,1.357,1.2687,1.0925,0.9869,1.0126,0.4895,0.4458,0.4509,0.5117,0.4991,0.0,0.0,0.2116,0.0952,-0.3159,-0.3449,-0.3758,-0.6114,-0.5756,-0.53,-0.5664,-0.6749,-0.7925,-0.8925,-1.1251,-1.3046,-1.3595,-1.3453,-1.3175,-1.296,-1.2767,-1.2485,-1.2332,-1.2774,-1.2256,-1.0634,-1.0556,-1.0461,-1.0461,-1.0519,-0.996,-0.8788,-0.8693,-0.8726,-0.8743,-0.6372,-0.5198,-0.5205,-0.5198,-0.5325,-0.5325,-0.5325,-0.3239,0.0259,0.3761,0.3114,0.0,0.0,0.1036,0.2852,0.455,0.5205,0.4683,0.117,0.0,0.0,0.0,0.0,0.0,0.0,0.2472,0.5605,0.7306,0.8359,0.8359,0.6514,0.5728,0.5205,0.5205,0.3896,0.3112,0.4803,0.7944,1.0456,1.0456,0.7676,0.5192,0.5202,0.5205,0.5202,0.5198,0.8214,1.0469,1.0456,1.0545,1.0512,1.0499,1.0479,1.0465,1.0452,1.0479,1.1944,1.528,1.3955,1.3289,1.3784,1.1289,0.9722,0.9196,0.9067,0.9587,1.037,0.9587,0.8693,0.7805,0.6894,0.7024,0.3775,0.3333,0.3369,0.434,0.4171,0.0,0.154,0.1232,-0.03,-0.6154,-0.6124,-0.6241,-0.99,-0.9426,-0.8392,-0.8387,-0.9692,-1.1852,-1.5399,-1.5209,-1.49,-1.5196,-1.5398,-1.5426,-1.5256,-1.5183,-1.4929,-1.4787,-1.5249,-1.4664,-1.2602,-1.2506,-1.1873,-1.057,-1.0498,-1.0525,-1.0525,-1.0472,-1.0519,-1.0552,-1.0552,-1.0443,-1.0476,-1.0476,-1.0476,-1.0476,-1.0476,-0.7292,-0.194,-0.0518,-0.3371,-0.7959,-0.3766,-0.2075,-0.2072,-0.2076,-0.1169,0.0,0.0,0.0,0.0,0.0,0.0,0.0,0.0,0.0,0.0651,0.3386,0.6262,0.7845,0.4952,0.4169,0.4036,0.2993,0.1429,0.0,0.0,0.4423,0.8494,0.8505,0.3906,0.0,0.0,0.0,0.0,0.0,0.4815,0.8494,0.8489,0.8489,0.8483,0.8473,0.9679,0.9944,0.8602,0.8467,0.9002,1.0456,1.0463,1.0197,0.9531,0.769,0.625,0.5205,0.5205,0.5983,0.7283,0.5594,0.4945,0.5205,0.4945,0.4945,0.2021,0.1986,0.1989,0.2106,0.2072,0.0,-0.5925,-0.6816,-0.8516,-1.6021,-1.7263,-1.6972,-1.7222,-1.7031,-1.6567,-1.5423,-1.4196,-1.5035,-1.9775,-2.0376,-1.9995,-1.9154,-1.8617,-1.8165,-1.7764,-1.7169,-1.6478,-1.5548,-1.5503,-1.6743,-1.9364,-1.9425,-1.6692,-1.0696,-1.0451,-1.0451,-1.0451,-1.0465,-1.0498,-1.0438,-1.0438,-1.0479,-1.0559,-1.0559,-1.0559,-1.0559,-1.0449,-1.0055,-0.8861,-0.2593,-0.0518,-0.1683,-0.7153,-0.9272,-0.9284,-0.929,-0.5341,0.0,0.0,0.0,0.0,0.0,0.0,0.0,0.0,0.0,0.0131,0.0524,0.0917,0.1048,0.0655,0.0524,0.0524,0.0393,0.0131,0.0,0.0,0.065,0.117,0.1177,0.0524,0.0,0.0,0.0,0.0,0.0,0.0651,0.1171,0.1169,0.1168,0.1168,0.1168,0.6778,0.7964,0.1687,0.1168,0.3896,1.0087,1.0482,0.9148,0.5987,0.5598,0.5335,0.5205,0.5205,0.5335,0.5464,0.3776,0.3646,0.5205,0.3646,0.3646,0.1109,0.1085,0.1126,0.082,0.0,0.0,-0.5961,-0.8318,-1.1545,-1.7087,-1.8025,-1.8647,-2.128,-2.1327,-2.0755,-2.0574,-1.9982,-2.0293,-2.278,-2.221,-2.1649,-2.1589,-2.0528,-1.9757,-1.9603,-1.9307,-1.9001,-1.849,-1.8501,-1.9058,-2.0574,-2.0587,-1.9331,-1.646,-1.2554,-1.2337,-1.6325,-1.6388,-1.644,-1.6355,-1.233,-1.0505,-1.0546,-1.0452,-1.0472,-1.0479,-1.0539,-1.0436,-1.0294,-0.736,-0.6175,-0.6431,-0.9354,-1.0443,-1.0449,-1.0463,-0.8613,-0.5594,-0.1429,0.0,0.0,0.0,0.0,0.0,0.0,0.0,-0.0914,-0.497,-0.3141,0.0,0.0,0.0,0.0,0.0,0.0,0.0,0.0,0.0,0.0,0.0,0.0,0.0,0.0,0.0,0.0,0.0,0.0,0.0,0.0,0.0,0.0,0.0,0.2608,0.3131,0.026,0.0,0.13,0.4169,0.4429,0.3776,0.2212,0.2216,0.2219,0.2219,0.2219,0.2219,0.2219,0.1437,0.1437,0.222,0.1437,0.1437,0.0,0.0,0.0,0.0,0.0,0.0,-0.8329,-1.0985,-1.4204,-1.8637,-1.9473,-2.0313,-2.3697,-2.3838,-2.3849,-2.5154,-2.5308,-2.5275,-2.5381,-2.4271,-2.3517,-2.3544,-2.2549,-2.1835,-2.1835,-2.1483,-2.1483,-2.1835,-2.113,-2.0898,-2.1388,-2.0898,-2.0652,-2.0652,-1.5809,-1.5602,-2.0574,-2.0552,-2.0617,-2.0529,-1.5688,-1.3306,-1.3323,-1.3265,-1.2234,-1.0519,-1.0458,-1.1545,-1.3281,-1.3324,-1.2227,-1.0525,-1.0458,-1.0485,-1.0485,-1.0505,-1.0512,-0.9734,-0.4659,-0.2847,-0.2851,-0.2856,-0.2858,-0.2858,-0.2858,-0.286,-0.3516,-0.6661,-0.444,-0.1046,-0.1307,-0.17,-0.1831,-0.1568,-0.2223,-0.2354,-0.0392,-0.1568,-0.2874,-0.2865,-0.1301,0.0,0.0,0.0,0.0,0.0,0.0,0.0,0.0,0.0,0.0,0.0,0.0,0.0,0.0,0.0,0.0,0.0,0.0,0.0,0.0,0.0,0.0,0.0,0.0,0.0,0.0,0.0,0.0,0.0,0.0,0.0,0.0,0.0,0.0,-0.6104,-0.6379,-0.7993,-1.6334,-1.7159,-1.7866,-2.3631,-2.4849,-2.4673,-2.4372,-2.491,-2.6344,-2.9277,-2.9766,-2.9199,-2.7691,-2.746,-2.6897,-2.5405,-2.5168,-2.5168,-2.5168,-2.3724,-2.3484,-2.505,-2.2321,-2.1511,-2.3468,-2.1755,-2.0652,-2.0652,-2.0391,-2.0391,-2.0652,-2.0665,-2.062,-2.0664,-2.0389,-2.0315,-2.0303,-2.0316,-1.6702,-1.0444,-1.0451,-1.4266,-2.0316,-2.0316,-1.6429,-1.0444,-1.0451,-1.0451,-1.0451,-1.0451,-1.0465,-1.0492,-1.0324,-1.0235,-1.0133,-1.0204,-1.0223,-1.0223,-1.0223,-1.0223,-0.8759,-0.2207,-0.1818,-0.3639,-0.4812,-0.5991,-0.6518,-0.5338,-0.77,-0.8359,-0.1428,-0.5338,-1.0223,-1.0223,-0.4683,0.0,0.0,0.0,0.0,0.0,0.0,0.0,0.0,0.0,0.0,0.0,0.0,0.0,0.0,0.0,0.0,0.0,0.0,0.0,0.0,0.0,0.0,0.0,0.0,0.0,0.0,0.0,0.0,0.0,0.0,0.0,-0.4466,-0.6038,-0.7871,-1.1347,-1.4185,-1.7006,-2.0169,-2.2689,-2.4984,-2.7235,-2.8308,-2.8948,-2.8691,-3.0053,-3.1588,-3.2661,-3.2765,-3.2635,-3.2067,-3.0252,-2.8879,-2.8291,-2.6513,-2.5287,-2.5287,-2.4797,-2.4678,-2.5287,-2.4337,-2.4279,-2.5734,-2.4414,-2.4611,-2.6795,-2.6815,-2.4788,-2.0675,-2.0555,-2.0662,-2.0604,-2.0604,-2.06,-2.0548,-2.0664,-1.9328,-1.7255,-1.7206,-1.8505,-2.0561,-2.0552,-1.9315,-1.7255,-1.7206,-1.7238,-1.7238,-1.7238,-1.7238,-1.726,-1.7188,-1.4258,-1.0452,-1.0479,-1.0525,-1.0443,-1.0443,-0.8861,-0.7024,-0.7024,-0.5854,-0.4942,-0.6121,-0.6121,-0.5987,-0.6384,-0.8494,-0.9821,-0.7436,-0.8866,-1.0449,-1.0463,-0.8602,-0.7028,-0.6912,-0.312,0.0,0.0,0.0,0.0,0.0,0.0,0.0,0.0,0.0,0.0,0.0,0.0,0.0,0.0,0.0,0.0,0.0,0.0,0.0,0.0,0.0,-0.1177,-0.352,-0.352,-0.352,-0.352,-0.352,-0.352,-0.7142,-0.8946,-1.1063,-1.6445,-1.9399,-2.1723,-2.4287,-2.6836,-2.8881,-2.9822,-3.0867,-3.1725,-3.1725,-3.3097,-3.4169,-3.4169,-3.4169,-3.4169,-3.4169,-3.2573,-3.1326,-3.1326,-2.9671,-2.8231,-2.7806,-2.7211,-2.6863,-2.6914,-2.6413,-2.6564,-2.7751,-2.7267,-2.8312,-3.137,-3.0492,-2.8019,-2.3966,-2.3941,-2.396,-2.3978,-2.1623,-2.0648,-2.0644,-2.0626,-2.0607,-2.0561,-2.0594,-2.0574,-2.0808,-2.3001,-2.2661,-2.0568,-2.0613,-2.0565,-2.0565,-2.0565,-2.0565,-2.0565,-2.0629,-1.7775,-1.3771,-1.1286,-1.0546,-1.0465,-1.0465,-0.8899,-0.7736,-1.0782,-0.9875,-0.8043,-0.8203,-0.768,-0.7287,-0.8079,-0.9402,-1.0449,-1.0519,-1.0505,-1.0505,-1.0519,-1.0552,-1.0449,-1.0469,-0.6769,-0.3764,-0.3769,-0.3769,-0.3769,-0.3769,-0.3769,-0.3769,-0.3769,-0.3769,-0.3771,-0.3776,-0.143,0.0,0.0,-0.2348,-0.261,-0.013,0.0,-0.0653,-0.1828,-0.1828,-0.2999,-0.5205,-0.5205,-0.5205,-0.5205,-0.5205,-0.5205,-0.9616,-1.078,-1.2737,-2.1219,-2.2189,-2.2641,-2.8923,-2.9763,-2.981,-3.1764,-3.2717,-3.3255,-3.3357,-3.3897,-3.4382,-3.4382,-3.4382,-3.4382,-3.4382,-3.4382,-3.4382,-3.4382,-3.4276,-3.3632,-3.2149,-3.0719,-2.9916,-2.9955,-2.8442,-2.8237,-2.9634,-2.986,-3.1231,-3.3918,-3.1312,-2.9898,-2.9912,-2.988,-2.9928,-2.9847,-2.3956,-2.1072,-2.1037,-2.0756,-2.0768,-2.1143,-2.1048,-2.1094,-2.1519,-2.7512,-2.6298,-2.0662,-2.0657,-2.0639,-2.0652,-2.0652,-2.0652,-2.0555,-2.0587,-2.0651,-1.9553,-1.3155,-1.0962,-1.0962,-1.0829,-1.0829,-1.1236,-1.3299,-1.3587,-1.2807,-1.1182,-1.0803,-1.0803,-1.0803,-1.0803,-1.0762,-1.0998,-1.1019,-1.0934,-1.0539,-1.0479,-1.0545,-1.0436,-1.0443,-1.0449,-1.0476,-1.0476,-1.0476,-1.0482,-1.0482,-1.0482,-1.0482,-1.0482,-1.0482,-1.0482,-0.4417,-0.0519,-0.0519,-0.6778,-0.7306,-0.0259,0.0,-0.1687,-0.5072,-0.5461,-0.5587,-0.5717,-0.5591,-0.5591,-0.572,-0.5594,-0.5464,-1.1598,-1.7013,-2.1936,-2.5442,-2.7645,-2.9628,-3.2261,-3.3261,-3.4025,-3.5359,-3.5539,-3.5803,-3.6947,-3.7261,-3.7428,-3.7428,-3.7428,-3.7428,-3.7428,-3.6482,-3.5836,-3.5836,-3.4914,-3.3632,-3.2149,-3.1687,-3.102,-3.0068,-2.9558,-2.9445,-2.9898,-3.1878,-3.2444,-3.1124,-3.0326,-2.991,-2.9925,-2.9894,-2.9871,-2.986,-2.8331,-2.754,-2.7444,-2.2711,-2.3171,-2.7598,-2.7562,-2.7612,-2.7647,-2.9237,-2.6255,-2.0648,-2.0581,-2.0604,-2.0652,-2.0652,-2.0652,-2.0652,-2.0581,-2.0548,-2.0252,-1.8607,-1.7993,-1.7512,-1.506,-1.4798,-1.5341,-1.5224,-1.4972,-1.4836,-1.4339,-1.4213,-1.4484,-1.5292,-1.4213,-1.3932,-1.726,-1.8083,-1.6597,-1.151,-1.0485,-1.0505,-1.0512,-1.0512,-1.0532,-1.0458,-1.0465,-1.0492,-1.0559,-1.0436,-1.0436,-1.0436,-1.0436,-1.0443,-1.0463,-0.8866,-0.7815,-0.7815,-0.9543,-0.7301,-0.0259,0.0,-0.1298,-0.3898,-0.7327,-0.9998,-1.1577,-0.9915,-1.0069,-1.153,-0.9875,-0.9114,-1.1528,-1.8441,-2.5596,-2.9834,-3.1813,-3.3113,-3.4758,-3.5622,-3.6269,-3.7362,-3.7473,-3.7553,-3.8284,-3.8485,-3.8485,-3.8485,-3.8485,-3.8485,-3.8485,-3.7756,-3.7326,-3.7326,-3.6585,-3.5545,-3.4062,-3.3955,-3.3416,-3.1888,-3.2437,-3.2744,-3.2744,-3.4299,-3.4148,-3.1926,-3.3007,-3.3739,-3.3675,-3.3675,-3.3675,-3.3685,-3.1086,-2.9915,-2.9799,-2.6347,-2.6564,-2.9946,-2.9946,-2.9946,-2.9964,-2.9978,-2.7914,-2.445,-2.1659,-2.0582,-2.0594,-2.0594,-2.0647,-2.0604,-2.0604,-2.0613,-2.0659,-2.0659,-2.0587,-2.0239,-1.8287,-1.8151,-1.8311,-1.7005,-1.6618,-1.6492,-1.5728,-1.5602,-1.5874,-1.6828,-1.6965,-1.7479,-2.0114,-2.0651,-1.9428,-1.5658,-1.4905,-1.4934,-1.4934,-1.4934,-1.4953,-1.5,-1.2345,-1.0519,-1.0438,-1.0445,-1.0445,-1.0445,-1.0445,-1.0452,-1.0465,-1.0465,-1.0465,-1.0465,-1.0479,-0.8771,-0.4742,-0.4617,-0.5263,-0.6559,-0.9194,-1.1873,-1.4528,-1.3374,-1.2607,-1.2338,-1.1075,-1.0445,-1.2104,-1.8011,-2.5593,-3.3411,-3.4873,-3.4825,-3.6733,-3.7286,-3.763,-3.8314,-3.876,-3.8958,-3.8958,-3.8958,-3.8958,-3.8958,-3.8958,-3.8958,-3.8958,-3.8859,-3.8784,-3.8784,-3.8585,-3.7958,-3.6482,-3.6378,-3.5836,-3.4551,-3.5418,-3.6148,-3.6355,-3.6494,-3.6021,-3.4797,-3.7223,-3.843,-3.8465,-3.8465,-3.8512,-3.8453,-3.3456,-3.0646,-2.9931,-2.9934,-2.9993,-2.9879,-2.9879,-2.9898,-2.9974,-2.9934,-2.9968,-2.9431,-2.3951,-2.1874,-2.1902,-2.1902,-2.1911,-2.1693,-2.0862,-2.062,-2.0561,-2.0561,-2.0561,-2.0561,-2.06,-2.06,-2.0232,-1.8773,-1.84,-1.8015,-1.6607,-1.6231,-1.6503,-1.732,-1.9477,-2.1327,-2.1742,-2.1143,-2.0639,-2.0659,-2.0565,-2.0655,-2.0655,-2.0655,-2.0668,-2.0555,-1.5582,-1.1866,-1.1873,-1.1873,-1.1873,-1.1873,-1.1873,-1.1873,-1.1873,-1.1873,-1.1873,-1.1873,-1.1873,-1.1873,-1.1873,-1.1873,-1.1866,-1.1843,-1.1843,-1.3289,-1.6231,-1.5302,-1.3844,-1.1858,-1.1873,-1.1354,-2.0162,-2.206,-2.3762,-3.3188,-3.6671,-3.7931,-3.8397,-3.9217,-3.9543,-3.866,-4.0154,-4.1526,-4.1526,-4.1526,-4.1526,-4.1526,-4.1526,-4.1526,-4.1526,-4.0659,-4.0159,-4.0159,-3.9181,-3.7958,-3.6482,-3.6378,-3.6206,-3.5861,-3.5036,-3.5058,-3.617,-3.7434,-3.7948,-3.7744,-3.8212,-3.8475,-3.845,-3.845,-3.8464,-3.8459,-3.7441,-3.4535,-2.9917,-2.9991,-2.9945,-2.9906,-2.9906,-2.9987,-2.9974,-2.9898,-2.9973,-2.9871,-2.8742,-2.8365,-2.8378,-2.8378,-2.8277,-2.758,-2.2401,-2.0634,-2.0555,-2.0555,-2.0555,-2.0595,-2.0648,-2.0581,-2.0499,-2.0219,-2.0147,-2.0147,-1.9764,-1.9764,-1.9764,-1.9913,-2.235,-2.5121,-2.77,-2.422,-2.0594,-2.062,-2.0574,-2.0607,-2.0607,-2.0607,-2.0646,-2.0664,-1.9578,-1.8904,-1.8885,-1.8897,-1.8897,-1.8897,-1.8897,-1.8897,-1.8897,-1.8897,-1.8897,-1.8897,-1.8897,-1.8897,-1.8897,-1.8897,-1.8916,-1.8814,-1.8814,-1.9209,-1.9764,-1.4084,-1.4005,-1.888,-1.885,-1.5874,-1.8111,-2.2364,-2.6493,-3.1178,-3.5968,-3.9338,-3.8843,-4.0082,-4.1101,-4.0476,-4.1335,-4.2175,-4.2175,-4.2175,-4.2175,-4.2175,-4.2175,-4.2175,-4.2175,-4.1646,-4.1297,-4.1297,-4.0824,-4.0128,-3.9496,-3.9374,-3.9348,-3.9345,-3.8686,-3.8612,-3.9248,-3.9576,-3.9999,-4.0414,-3.9176,-3.8439,-3.8538,-3.8538,-3.8513,-3.847,-3.8459,-3.5499,-3.0055,-3.3012,-3.2693,-2.9919,-2.9919,-2.9929,-2.9955,-2.9955,-2.9936,-2.9973,-2.9973,-2.9952,-2.9968,-2.9968,-2.9983,-2.9554,-2.6464,-2.5426,-2.5437,-2.5437,-2.4301,-2.3038,-2.3037,-2.3067,-2.2977,-2.2989,-2.3033,-2.3033,-2.3033,-2.3033,-2.3168,-2.3739,-2.5815,-2.7782,-2.8224,-2.685,-2.5495,-2.5495,-2.5488,-2.4463,-2.1211,-2.0662,-2.0554,-2.0647,-2.0631,-2.06,-2.0652,-2.0659,-2.0613,-2.0613,-2.0613,-2.0613,-2.0613,-2.0613,-2.0613,-2.0613,-2.0613,-2.0613,-2.0613,-2.0613,-2.0548,-2.0652,-2.0652,-2.0652,-2.0652,-1.7316,-1.7473,-2.0646,-2.0587,-1.8809,-1.6537,-2.2592,-2.8793,-3.0139,-3.4891,-3.9218,-3.923,-4.1177,-4.2839,-4.2213,-4.2308,-4.2659,-4.2904,-4.275,-4.2659,-4.2932,-4.3022,-4.3022,-4.3022,-4.275,-4.2568,-4.2568,-4.2385,-4.2175,-4.2175,-4.2175,-4.2293,-4.2568,-4.2385,-4.2267,-4.2568,-4.1895,-4.2002,-4.292,-4.1089,-4.0113,-4.0064,-3.9008,-3.8529,-3.8514,-3.8531,-3.6088,-3.1884,-3.6417,-3.6021,-3.1706,-3.0489,-3.0289,-3.0817,-3.0195,-3.0345,-3.0797,-3.0195,-2.9971,-2.9935,-2.9935,-2.9936,-2.9894,-2.9894,-2.9946,-2.9935,-2.9935,-2.8266,-2.6213,-2.5726,-2.5609,-2.5609,-2.5287,-2.5287,-2.5287,-2.5287,-2.5287,-2.5674,-2.7119,-2.8724,-2.9473,-2.7827,-2.8796,-2.9928,-2.9928,-2.9984,-2.8378,-2.3438,-2.2609,-2.2609,-2.2609,-2.2636,-2.2081,-2.0822,-2.062,-2.0618,-2.0618,-2.0618,-2.0618,-2.0618,-2.0618,-2.0618,-2.0618,-2.0548,-2.0574,-2.0574,-2.0644,-2.0644,-2.0574,-2.0574,-2.06,-2.0652,-2.0652,-2.0652,-2.0652,-2.0652,-2.0652,-2.3483,-2.5394,-2.7002,-3.2554,-3.4933,-3.6846,-4.0814,-4.3704,-4.4899,-4.2612,-4.3131,-4.429,-4.5328,-4.4639,-4.429,-4.5328,-4.5498,-4.5498,-4.5498,-4.4639,-4.3937,-4.3937,-4.2868,-4.2175,-4.2175,-4.2175,-4.2659,-4.3821,-4.2868,-4.2659,-4.3937,-4.3496,-4.4017,-4.5462,-4.5287,-4.5139,-4.5195,-4.0733,-3.852,-3.8478,-3.8515,-3.8193,-3.7745,-3.8267,-3.8194,-3.7386,-3.22,-3.1389,-3.3675,-3.1057,-3.1522,-3.3547,-3.0929,-2.9937,-2.9978,-2.9978,-2.9894,-2.9879,-2.9879,-2.9917,-2.9936,-2.9936,-2.9766,-2.9122,-2.7275,-2.6661,-2.6446,-2.5491,-2.5287,-2.5287,-2.5287,-2.5287,-2.5995,-2.893,-2.9785,-2.9917,-2.9652,-2.98,-2.9927,-2.9927,-2.9935,-2.9747,-2.9147,-2.9129,-2.9129,-2.9129,-2.9029,-2.707,-2.14,-2.0607,-2.062,-2.062,-2.062,-2.062,-2.062,-2.062,-2.062,-2.062,-2.0569,-2.0541,-2.0541,-2.0608,-2.0595,-2.0541,-2.0541,-2.066,-2.0652,-2.0652,-2.0652,-2.0652,-2.0652,-2.0652,-1.7994,-2.1546,-2.4889,-2.7708,-3.1294,-3.5137,-3.9272,-4.09,-4.2094,-4.3889,-4.4206,-4.4097,-4.3901,-4.4585,-4.4928,-4.4015,-4.5036,-4.5864,-4.5864,-4.5442,-4.5186,-4.5186,-4.4698,-4.4381,-4.4381,-4.4381,-4.4611,-4.5157,-4.4698,-4.4583,-4.5157,-4.5042,-4.5211,-4.5902,-4.5902,-4.5839,-4.5881,-4.392,-4.2959,-4.292,-4.2951,-4.2913,-4.2816,-3.9868,-3.8454,-3.836,-3.6055,-3.4783,-3.4156,-3.3653,-3.4771,-3.6725,-3.5571,-3.5098,-3.4711,-3.1172,-2.9937,-3.043,-3.3841,-3.2869,-2.9964,-2.9964,-3.0686,-3.1494,-3.0744,-2.9672,-2.861,-2.8188,-2.809,-2.809,-2.809,-2.809,-2.8875,-3.1777,-3.302,-3.2994,-3.1525,-3.1461,-3.1355,-3.0164,-2.9934,-2.9894,-2.9894,-2.9894,-2.9894,-2.9894,-2.9894,-2.9072,-2.653,-2.6178,-2.6176,-2.6176,-2.6176,-2.6176,-2.6176,-2.6176,-2.6176,-2.6176,-2.6258,-2.6242,-2.6178,-2.6245,-2.6209,-2.6205,-2.2488,-2.0622,-2.0595,-2.0595,-2.0595,-2.0595,-2.0595,-2.0595,-1.4802,-1.8804,-2.3051,-2.4761,-2.8131,-3.2301,-3.7377,-3.7706,-3.8479,-4.3554,-4.376,-4.2894,-4.2658,-4.376,-4.4326,-4.2801,-4.4439,-4.5864,-4.5864,-4.5864,-4.5864,-4.5864,-4.5864,-4.5864,-4.5864,-4.5864,-4.5864,-4.5864,-4.5857,-4.5911,-4.5864,-4.5828,-4.5911,-4.5864,-4.5864,-4.5843,-4.5873,-4.5873,-4.5899,-4.5853,-4.5853,-4.5066,-4.3551,-4.0075,-3.8512,-3.8464,-3.8537,-3.7325,-3.5562,-3.6273,-3.7305,-3.844,-3.844,-3.8534,-3.8042,-3.3971,-3.2525,-3.3034,-3.7075,-3.5442,-3.1654,-3.1338,-3.2133,-3.328,-3.328,-3.232,-3.1152,-3.1152,-3.1152,-3.1152,-3.1152,-3.1152,-3.1687,-3.374,-3.4771,-3.4774,-3.3045,-3.2978,-3.2952,-3.1828,-3.1434,-3.1454,-3.2343,-3.1112,-2.9929,-2.9929,-2.9913,-2.9973,-2.9879,-2.9987,-2.9978,-2.9978,-2.9978,-2.9978,-2.9978,-2.9978,-2.9978,-2.9978,-2.9954,-2.9922,-2.9935,-2.9912,-2.9904,-2.9892,-2.5576,-2.3347,-2.3304,-2.3304,-2.3304,-2.3304,-2.3304,-2.3304,-1.7133,-1.8913,-2.1623,-2.5771,-2.6253,-2.773,-3.5406,-3.5177,-3.4945,-4.1004,-4.1145,-4.0783,-4.2322,-4.2407,-4.2295,-4.2576,-4.4439,-4.5864,-4.5864,-4.5864,-4.5864,-4.5864,-4.5864,-4.5864,-4.5864,-4.5864,-4.5864,-4.5864,-4.588,-4.5872,-4.5835,-4.588,-4.5902,-4.5864,-4.5864,-4.5864,-4.5894,-4.5894,-4.5894,-4.5894,-4.5894,-4.3336,-3.8557,-3.8531,-3.8488,-3.851,-3.851,-3.851,-3.8443,-3.8445,-3.8488,-3.8509,-3.8509,-3.8523,-3.8443,-3.8419,-3.8416,-3.844,-3.8464,-3.7251,-3.5571,-3.447,-3.4147,-3.4169,-3.4169,-3.4169,-3.4169,-3.4169,-3.4169,-3.4169,-3.4169,-3.4169,-3.4169,-3.4169,-3.4169,-3.4169,-3.4169,-3.4169,-3.4492,-3.5464,-3.4815,-3.5095,-3.7933,-3.3675,-2.9906,-2.9906,-2.9976,-2.9939,-2.9939,-2.9951,-2.9974,-2.9974,-2.9974,-2.9974,-2.9974,-2.9974,-2.9974,-2.9974,-2.9934,-2.9917,-2.9958,-2.9939,-2.9951,-2.9871,-2.989,-2.9787,-2.9884,-2.9884,-2.9884,-2.9884,-2.9884,-2.9884,-1.4966,-1.7094,-1.9731,-2.2873,-2.5007,-2.7767,-3.3204,-3.4485,-3.4989,-3.652,-3.8685,-4.0439,-4.0879,-4.2899,-4.4227,-4.361,-4.5475,-4.6715,-4.5948,-4.65,-4.6959,-4.6959,-4.7567,-4.8006,-4.8006,-4.8006,-4.7807,-4.7378,-4.7319,-4.8084,-4.9855,-4.7386,-4.5905,-4.5902,-4.5881,-4.5864,-4.5864,-4.5864,-4.5864,-4.5864,-4.5864,-4.5071,-4.3543,-4.3543,-4.3519,-4.3321,-4.0011,-3.8484,-3.8653,-4.0284,-4.0057,-3.8439,-3.8537,-3.8482,-3.8527,-3.8527,-3.8523,-3.8464,-3.8464,-3.8115,-3.7594,-3.7271,-3.6482,-3.5627,-3.5627,-3.5019,-3.4169,-3.4169,-3.4169,-3.468,-3.6585,-3.7122,-3.7122,-3.7122,-3.7122,-3.6917,-3.5836,-3.5627,-3.5636,-3.5784,-3.5442,-3.5942,-3.811,-3.6946,-3.5767,-3.5767,-3.5794,-3.4343,-3.0459,-2.9898,-2.9976,-2.9976,-2.9976,-2.9976,-2.9976,-2.9976,-2.9976,-2.9976,-3.3647,-3.5825,-3.5798,-3.1984,-2.9898,-2.9913,-2.9913,-2.9971,-2.9958,-2.9958,-2.991,-2.9992,-2.9992,-2.9898,-1.3949,-1.6421,-1.9349,-2.1877,-2.3717,-2.5919,-2.9908,-3.1837,-3.2803,-3.2946,-3.5714,-3.818,-3.8513,-4.1525,-4.3664,-4.2672,-4.4601,-4.6262,-4.6411,-4.7039,-4.7409,-4.7409,-4.8314,-4.9025,-4.9025,-4.9025,-4.892,-4.8795,-4.9228,-4.9856,-5.0738,-4.9124,-4.7793,-4.7118,-4.704,-4.7078,-4.7101,-4.7101,-4.7101,-4.7019,-4.6203,-4.5928,-4.5874,-4.5874,-4.5901,-4.5687,-4.2618,-4.1315,-4.1226,-4.0948,-4.0957,-4.1061,-3.9261,-3.8485,-3.8485,-3.8485,-3.8906,-3.9478,-3.98,-3.9231,-3.8485,-3.8485,-3.7857,-3.7122,-3.7122,-3.6585,-3.5836,-3.5836,-3.5836,-3.6378,-3.8636,-3.9279,-3.9279,-3.9279,-3.9279,-3.8958,-3.8111,-3.7505,-3.709,-3.6783,-3.6829,-3.7177,-3.8331,-3.8506,-3.8506,-3.8506,-3.8487,-3.7164,-3.3586,-3.3183,-3.3183,-3.3183,-3.3183,-3.3183,-3.3183,-3.3183,-3.3183,-3.3183,-3.6528,-3.8491,-3.8476,-3.5019,-3.3204,-3.3183,-3.3183,-3.3183,-3.3183,-3.3183,-3.3118,-3.3087,-3.0926,-2.9913,-1.4005,-1.6521,-1.9756,-2.2185,-2.2394,-2.2869,-2.61,-2.7755,-2.8938,-3.0185,-3.2341,-3.4305,-3.5242,-3.8528,-4.1036,-4.0818,-4.2625,-4.4806,-4.6999,-4.7198,-4.7247,-4.7416,-4.8344,-4.9006,-4.9143,-4.9174,-4.9478,-5.0034,-5.1232,-5.1072,-4.9279,-5.0897,-5.1065,-4.9268,-4.9225,-4.9159,-4.9154,-4.9044,-4.8934,-4.8904,-4.6877,-4.5864,-4.5864,-4.5864,-4.5864,-4.5864,-4.5864,-4.5864,-4.5551,-4.0874,-4.1757,-4.5433,-4.0783,-3.9058,-3.8992,-3.8992,-3.9833,-4.0988,-4.171,-4.0465,-3.8536,-3.866,-3.8585,-3.8485,-3.8585,-3.8585,-3.8585,-3.8585,-3.8685,-3.9057,-4.023,-4.0519,-4.0519,-4.0519,-4.0519,-4.0519,-4.0519,-3.9647,-3.876,-3.876,-3.876,-3.8784,-3.8709,-3.8734,-3.8734,-3.8485,-3.8494,-3.8475,-3.8475,-3.8487,-3.8453,-3.8453,-3.8453,-3.8453,-3.8453,-3.8453,-3.8583,-3.8949,-3.866,-3.8538,-3.8482,-3.853,-3.8459,-3.8453,-3.8453,-3.8453,-3.8453,-3.8453,-3.8477,-3.8347,-3.2992,-3.056,-1.402,-1.5272,-1.7069,-1.9058,-2.1161,-2.3407,-2.6232,-2.7051,-2.7367,-2.7687,-2.8996,-3.0448,-3.1637,-3.5318,-3.9929,-4.5441,-4.4885,-4.4173,-4.5722,-4.5105,-4.5131,-4.6877,-4.8038,-4.9347,-5.1055,-5.122,-5.1285,-5.145,-5.1717,-5.1684,-5.122,-5.1664,-5.1643,-5.1271,-5.1245,-5.1222,-5.1229,-4.973,-4.8703,-4.824,-4.6647,-4.5864,-4.5864,-4.5864,-4.5864,-4.5864,-4.5864,-4.5864,-4.5751,-4.4641,-4.4842,-4.5751,-4.4623,-4.4169,-4.4099,-4.4099,-4.199,-3.9089,-3.9259,-3.8977,-3.8779,-4.0668,-4.0057,-3.8685,-3.9647,-3.994,-3.994,-3.994,-4.0659,-4.1365,-4.1739,-4.1739,-4.1739,-4.1739,-4.1739,-4.1739,-4.1739,-4.1552,-4.1365,-4.1365,-4.1365,-4.1135,-4.0506,-4.0956,-4.0715,-3.8734,-3.8506,-3.8479,-3.8479,-3.8474,-3.8445,-3.8445,-3.8445,-3.8445,-3.8445,-3.8445,-4.0127,-4.3893,-4.0555,-3.8484,-3.8488,-3.8513,-3.8464,-3.8523,-3.8445,-3.8445,-3.8445,-3.8445,-3.8458,-3.8506,-3.7154,-3.6503,-1.4615,-1.5959,-1.7291,-1.7097,-1.8697,-2.0734,-2.2135,-2.2908,-2.3355,-2.334,-2.4808,-2.6611,-2.8345,-3.1188,-3.5076,-4.0706,-4.2264,-4.3541,-4.5895,-4.6517,-4.6987,-4.7534,-4.9062,-5.0214,-5.0539,-5.139,-5.1883,-5.1883,-5.1883,-5.1883,-5.1883,-5.188,-5.1909,-5.1909,-5.1923,-5.1663,-5.1304,-5.0223,-4.9311,-4.8452,-4.718,-4.6335,-4.5864,-4.5864,-4.5864,-4.5864,-4.5864,-4.5864,-4.5864,-4.5864,-4.5899,-4.5874,-4.5874,-4.5902,-4.5925,-4.5925,-4.4198,-4.1805,-4.1298,-4.072,-4.0383,-4.1725,-4.0919,-3.9647,-4.085,-4.0876,-4.0519,-4.104,-4.2136,-4.3049,-4.3049,-4.3049,-4.3049,-4.3049,-4.3049,-4.3049,-4.3049,-4.2568,-4.2175,-4.2175,-4.252,-4.2643,-4.2217,-4.1229,-4.0841,-4.1692,-3.9955,-3.8433,-3.8433,-3.8433,-3.8433,-3.8433,-3.8433,-3.8433,-3.8433,-3.8433,-3.9618,-4.2282,-4.2148,-4.1871,-4.184,-3.9706,-3.8487,-3.8485,-3.8485,-3.8485,-3.8485,-3.8485,-3.8531,-3.8494,-3.8494,-3.8458,-1.5355,-1.7131,-1.8507,-1.6371,-1.6552,-1.7319,-1.7341,-1.8194,-1.901,-1.9205,-2.0902,-2.305,-2.5359,-2.7191,-2.9446,-3.2806,-3.7689,-4.2313,-4.5942,-4.8343,-4.9402,-4.8347,-5.0114,-5.0932,-4.9557,-5.0931,-5.1883,-5.1883,-5.1883,-5.1883,-5.1883,-5.1883,-5.1883,-5.1883,-5.1883,-5.1521,-5.0774,-5.0635,-5.0078,-4.9248,-4.8053,-4.706,-4.6228,-4.5944,-4.5861,-4.5864,-4.5864,-4.5864,-4.5864,-4.5864,-4.5864,-4.5864,-4.5864,-4.5864,-4.5864,-4.5864,-4.5864,-4.5696,-4.4755,-4.3498,-4.2423,-4.2632,-4.1832,-4.0971,-4.2109,-4.1792,-4.1255,-4.2385,-4.3498,-4.4406,-4.4406,-4.4406,-4.4406,-4.4406,-4.4406,-4.4406,-4.4406,-4.3498,-4.2723,-4.2723,-4.3323,-4.387,-4.3688,-4.1391,-4.1048,-4.5231,-4.232,-3.9644,-3.9644,-3.9644,-3.9644,-3.9644,-3.9644,-3.9644,-3.9644,-3.9644,-3.9566,-3.9657,-4.3523,-4.5906,-4.5904,-4.1812,-3.9215,-3.8514,-3.8514,-3.8514,-3.8514,-3.8514,-3.8514,-3.8514,-3.8514,-3.8464,-1.5355,-1.6611,-1.7922,-1.7982,-1.7643,-1.736,-1.759,-1.7625,-1.7903,-1.9002,-1.9537,-2.0541,-2.3009,-2.5173,-2.7606,-3.0719,-3.4944,-3.9236,-4.3178,-4.4966,-4.6562,-4.8321,-4.907,-4.9919,-5.1325,-5.1719,-5.1883,-5.1883,-5.1883,-5.1883,-5.1883,-5.1883,-5.1883,-5.1883,-5.1883,-5.1818,-5.1686,-5.0912,-5.0495,-5.0323,-4.8652,-4.787,-4.763,-4.6372,-4.5887,-4.5864,-4.5864,-4.5864,-4.5864,-4.5864,-4.5864,-4.5864,-4.5864,-4.5864,-4.5864,-4.5864,-4.5864,-4.5864,-4.5696,-4.4584,-4.3598,-4.49,-4.3765,-4.2109,-4.3436,-4.3643,-4.3849,-4.4957,-4.5413,-4.5612,-4.5612,-4.5612,-4.5612,-4.5612,-4.5612,-4.5612,-4.5612,-4.5413,-4.5328,-4.5328,-4.5471,-4.5157,-4.4198,-4.4422,-4.4988,-4.5702,-4.5231,-4.4798,-4.4798,-4.4798,-4.4798,-4.4798,-4.4798,-4.4798,-4.4798,-4.4798,-4.4718,-4.4729,-4.5471,-4.5873,-4.5874,-4.5118,-4.2787,-3.8606,-3.8487,-3.8487,-3.8487,-3.8487,-3.8487,-3.8487,-3.8487,-3.8484,-1.6662,-1.801,-1.932,-1.9566,-1.8647,-1.7758,-1.7894,-1.7032,-1.6398,-1.7027,-1.7705,-1.8531,-1.9667,-2.2414,-2.5137,-2.7205,-3.1001,-3.5337,-4.0268,-4.4768,-4.8039,-4.9075,-5.0051,-5.09,-5.1845,-5.1915,-5.1883,-5.1883,-5.1883,-5.1883,-5.1883,-5.1883,-5.1883,-5.1883,-5.1883,-5.1883,-5.1883,-5.1487,-5.1049,-5.0533,-4.9515,-4.9018,-4.896,-4.6862,-4.5899,-4.5885,-4.5885,-4.5885,-4.5915,-4.5902,-4.5887,-4.5835,-4.5886,-4.5864,-4.5864,-4.5864,-4.5864,-4.5864,-4.5864,-4.5384,-4.4957,-4.5667,-4.4698,-4.3436,-4.4698,-4.51,-4.5157,-4.5696,-4.5864,-4.5864,-4.5864,-4.5864,-4.5864,-4.5864,-4.5864,-4.5864,-4.5864,-4.5864,-4.5864,-4.5864,-4.5864,-4.5696,-4.5157,-4.553,-4.5903,-4.5901,-4.5842,-4.5842,-4.5842,-4.5842,-4.5842,-4.5842,-4.5842,-4.5842,-4.5842,-4.5842,-4.5874,-4.5923,-4.5864,-4.5864,-4.5864,-4.5903,-4.4796,-4.2514,-4.245,-4.252,-4.252,-4.252,-4.252,-4.252,-4.252,-4.2497,-1.961,0.0,-2.2789,-2.2913,-2.1418,-1.9765,0.0,-1.7538,-1.5964,-1.5528,-1.6259,-1.7019,-1.7251,-1.99,-2.261,-2.4315,-2.7646,-3.2012,-3.7745,-4.3691,-4.7919,-4.9154,-5.0242,-5.0897,-5.092,-5.1519,-5.1883,-5.1883,-5.1883,-5.1883,-5.1883,-5.1883,-5.1883,-5.1883,-5.2078,-5.2078,-5.1883,-5.1883,-5.1521,-5.0811,-5.0549,-5.0457,-5.0381,-4.8204,-4.7309,-4.7283,-4.7283,-4.7283,-4.727,-4.7283,-4.672,-4.5876,-4.5852,-4.5864,-4.5864,-4.5864,-4.5864,-4.5864,-4.5864,-4.5864,-4.5864,-4.5864,-4.5271,-4.4726,-4.5612,-4.5864,-4.5864,-4.5864,-4.5864,-4.5864,-4.5864,-4.5864,-4.5864,-4.5864,-4.5864,-4.5864,-4.5864,-4.5864,-4.5864,-4.5864,-4.5864,-4.5864,-4.5864,-4.5864,-4.5864,-4.5864,-4.5864,-4.5864,-4.5864,-4.5864,-4.5864,-4.5864,-4.5864,-4.5864,-4.5864,-4.5864,-4.5864,-4.5864,-4.5864,-4.5864,-4.5864,-4.5932,-4.5931,-4.5931,-4.5829,-4.5876,-4.5876,-4.5876,-4.5876,-4.5876,-4.5876,-4.587,0.0,-2.7784,-2.9231,-2.9687,-2.7531,-2.4728,-2.2546,-2.0076,0.0,-1.6079,-1.5788,-1.6141,-1.7136,-1.8502,-2.0455,-2.3336,-2.6144,-3.0073,-3.602,-3.9084,-4.2471,-4.7188,-4.7829,-4.7936,-4.7936,-5.0343,-5.1883,-5.1883,-5.1883,-5.1883,-5.1883,-5.1883,-5.1883,-5.1883,-5.2583,-5.2645,-5.1883,-5.1883,-5.1883,-5.1818,-5.1818,-5.178,-5.1778,-5.1579,-5.148,-5.1466,-5.1466,-5.1466,-5.1455,-5.1502,-4.9276,-4.5876,-4.5852,-4.5864,-4.5864,-4.5864,-4.5864,-4.5864,-4.5864,-4.5864,-4.5864,-4.5864,-4.578,-4.578,-4.5864,-4.5864,-4.5864,-4.5864,-4.5864,-4.5864,-4.5864,-4.5864,-4.5864,-4.5864,-4.5864,-4.5864,-4.5864,-4.5864,-4.5864,-4.5864,-4.5864,-4.5864,-4.5864,-4.5864,-4.5864,-4.5864,-4.5864,-4.5864,-4.5864,-4.5864,-4.5864,-4.5864,-4.5864,-4.5864,-4.5864,-4.5864,-4.5864,-4.5864,-4.5864,-4.5864,-4.5864,-4.5838,-4.5867,-4.5867,-4.5897,-4.5841,-4.5841,-4.5841,-4.5841,-4.5841,-4.5841,-4.5903,-3.222,-3.4081,-3.4373,-3.3616,-3.0652,-2.7403,-2.549,-2.1628,-1.8282,-1.7598,-1.6525,-1.5874,-1.6253,-1.8128,-2.0528,-2.3361,-2.6361,-3.0478,-3.6566,-3.9801,-4.3217,-4.7812,-4.8737,-4.931,-5.0211,-5.1281,-5.1904,-5.1916,-5.1883,-5.1883,-5.1883,-5.2365,-5.283,-5.3338,-5.3629,-5.3629,-5.3338,-5.2891,-5.2645,-5.2583,-5.211,-5.1883,-5.1913,-5.1913,-5.1909,-5.1932,-5.1932,-5.1932,0.0,-5.1904,-4.9521,-4.587,-4.5836,-4.5855,-4.5904,-4.5876,-4.5887,-4.5904,-4.5906,-4.5823,-4.5858,-4.5886,-4.5864,-4.5864,-4.5864,-4.5864,-4.5864,-4.5864,-4.5864,-4.5864,-4.5864,-4.5864,-4.5864,-4.5864,-4.5864,-4.5864,-4.5864,-4.5864,-4.5864,-4.5864,-4.5864,-4.5864,-4.5864,-4.5864,-4.5864,-4.5864,-4.5864,-4.5864,-4.5864,-4.5864,-4.5864,-4.5864,-4.5864,-4.5864,-4.5864,-4.5864,-4.5864,-4.5864,-4.5864,-4.5864,-4.5864,-4.5864,-4.5864,-4.5864,-4.5864,-4.5864,-4.5864,-4.5864,-4.5864,-4.5864,-4.5864,-4.5841,-3.7792,-3.9229,-3.9422,-3.8336,-3.505,-3.1502,-2.9346,-2.4912,-2.0778,-1.9175,-1.7746,-1.6751,-1.6629,-1.8463,-2.0978,-2.3935,-2.6899,-3.1071,-3.7356,-4.0589,-4.3915,-4.8232,-4.9762,-5.1067,-5.2461,-5.2206,-5.2011,-5.2349,-5.2516,-5.2645,-5.2645,-5.31,-5.3721,-5.4228,-5.4412,-5.4412,-5.4228,-5.3721,-5.3312,-5.3073,-5.2587,-5.224,-5.1883,-5.1883,-5.1883,-5.1883,-5.1883,-5.1883,-5.1884,-5.1899,-5.0303,-4.774,-4.7792,-4.6999,-4.6056,-4.727,-4.6975,-4.592,-4.5846,-4.5876,-4.5923,-4.6431,-4.6463,-4.6335,-4.6335,-4.6086,-4.5864,-4.5864,-4.5864,-4.5864,-4.5864,-4.6115,-4.6335,-4.6335,-4.6634,-4.6878,-4.6878,-4.6878,-4.6878,-4.6878,-4.6552,-4.6335,-4.6335,-4.6115,-4.5864,-4.5864,-4.5864,-4.5864,-4.5864,-4.5864,-4.5864,-4.5864,-4.5864,-4.5857,-4.591,-4.5851,-4.5851,-4.5851,-4.5851,-4.5851,-4.5851,-4.5851,-4.5851,-4.5851,-4.5841,-4.5876,-4.5876,-4.5861,-4.5864,-4.5864,-4.5864,-4.5864,-4.1277,-4.3043,-4.4418,-4.4381,-4.1463,-3.7689,-3.4425,-3.0316,-2.5791,-2.0716,-1.935,-1.8951,-1.8566,-1.9557,-2.156,-2.4952,-2.7818,-3.1798,-3.8052,-4.0843,-4.387,-4.8108,-5.0666,-5.2647,-5.4124,-5.2832,-5.2353,-5.3375,-5.3932,-5.4228,-5.4228,-5.4228,-5.4228,-5.4228,-5.4888,-5.494,-5.4283,-5.4228,-5.3892,-5.3073,-5.3336,-5.2908,-5.1883,-5.1883,-5.1883,-5.1883,-5.1883,-5.1883,-5.1884,-5.1899,-5.1881,-5.1945,-5.1868,-4.9455,-4.6402,-5.0443,-4.9349,-4.5948,-4.5948,-4.5948,-4.6175,-4.7543,-4.7747,-4.7409,-4.7488,-4.6715,-4.5864,-4.5864,-4.5864,-4.5864,-4.5864,-4.6634,-4.7409,-4.7409,-4.8238,-4.9025,-4.9025,-4.9025,-4.9025,-4.9025,-4.8161,-4.7409,-4.7409,-4.6552,-4.5864,-4.5864,-4.5864,-4.5864,-4.5864,-4.5864,-4.5864,-4.5864,-4.5864,-4.5917,-4.592,-4.5979,-4.5979,-4.5979,-4.5979,-4.5979,-4.5979,-4.5979,-4.5979,-4.5979,-4.5959,-4.5896,-4.5896,-4.5847,-4.5864,-4.5864,-4.5864,-4.5864,-4.9407,-5.0904,-5.0737,-4.8344,-4.5703,-4.2181,-3.6454,-3.211,-2.8071,-2.3781,-2.1871,-2.0845,-2.0453,-2.1513,-2.3471,-2.6476,-3.0868,-3.5608,-4.0533,-4.4858,-4.858,-5.141,-5.31,-5.4436,-5.5647,-5.4436,-5.3794,-5.4386,-5.4297,-5.4228,-5.4228,-5.5214,-5.5741,-5.5741,-5.5884,-5.5931,-5.5741,-5.5179,-5.4802,-5.4592,-5.3605,-5.3147,-5.297,-5.224,-5.1883,-5.1883,-5.1883,-5.1883,-5.1916,-5.1883,-5.1914,-5.188,-5.1913,-5.1155,-5.0291,-5.1486,-5.1153,-4.9929,-4.8549,-4.8091,-4.81,-4.8589,-4.8146,-4.7725,-4.9174,-4.8876,-4.8114,-4.8114,-4.8114,-4.8114,-4.8114,-4.8238,-4.8498,-4.8498,-4.877,-4.9025,-4.9025,-4.9025,-4.9025,-4.9025,-4.8725,-4.8498,-4.8498,-4.8268,-4.8114,-4.8114,-4.6829,-4.5839,-4.5839,-4.5839,-4.5839,-4.5839,-4.8406,-5.0133,-5.0105,-5.0074,-5.0074,-5.0074,-5.0074,-5.0074,-5.0074,-5.0074,-5.0074,-5.0074,-5.0118,-4.8703,-4.5896,-4.5847,-4.5864,-4.5864,-4.5864,-4.5864,-5.3055,-5.4214,-5.3728,-5.1709,-4.9177,-4.573,-4.0133,-3.5481,-3.1097,-2.6611,-2.4135,-2.2881,-2.3209,-2.4032,-2.6171,-3.0905,-3.4644,-3.8974,-4.4856,-4.8279,-5.128,-5.4046,-5.5027,-5.5709,-5.6314,-5.5596,-5.5182,-5.5443,-5.5217,-5.5112,-5.5112,-5.5919,-5.6359,-5.6359,-5.6359,-5.6359,-5.6359,-5.5884,-5.5526,-5.5159,-5.4323,-5.3835,-5.3717,-5.2774,-5.2365,-5.2365,-5.2078,-5.1883,-5.1883,-5.1883,-5.1883,-5.1916,-5.1911,-5.188,-5.1916,-5.1923,-5.1935,-5.1719,-5.0571,-5.0143,-5.0162,-5.0131,-4.9437,-4.8876,-5.0149,-4.9791,-4.9025,-4.9025,-4.9025,-4.9025,-4.9025,-4.9025,-4.91,-4.9469,-4.9903,-5.0117,-5.0117,-5.0117,-5.0117,-5.0117,-4.9831,-4.9646,-4.9646,-4.9478,-4.9549,-5.0042,-4.9088,-4.823,-4.823,-4.823,-4.823,-4.823,-5.041,-5.1933,-5.1933,-5.1933,-5.1933,-5.1933,-5.1933,-5.1933,-5.1933,-5.1933,-5.1933,-5.1933,-5.1922,-4.9911,-4.583,-4.5904,-4.5864,-4.5864,-4.5917,-4.5871,-5.3765,-5.4662,-5.4625,-5.4476,-5.2008,-4.8584,-4.448,-3.9756,-3.4707,-2.9325,-2.6516,-2.541,-2.6728,-2.728,-2.983,-3.6842,-3.8887,-4.2243,-4.9845,-5.1202,-5.2652,-5.5957,-5.6359,-5.6359,-5.6359,-5.6359,-5.6359,-5.6359,-5.6359,-5.6359,-5.6359,-5.6359,-5.6359,-5.6359,-5.6359,-5.6359,-5.6359,-5.6359,-5.6013,-5.5294,-5.5244,-5.4888,-5.4283,-5.3455,-5.3073,-5.3013,-5.2238,-5.1883,-5.1883,-5.1883,-5.1883,-5.1883,-5.1883,-5.1883,-5.1883,-5.1883,-5.1883,-5.1883,-5.1883,-5.1883,-5.1883,-5.1883,-5.132,-5.0673,-5.0673,-5.0006,-4.9248,-4.9248,-4.9248,-4.9248,-4.9248,-4.9248,-4.9469,-5.0463,-5.132,-5.1883,-5.1883,-5.1883,-5.1883,-5.1883,-5.1253,-5.0673,-5.0673,-5.0324,-5.0571,-5.1763,-5.189,-5.189,-5.189,-5.189,-5.189,-5.189,-5.1899,-5.1883,-5.1883,-5.1883,-5.1883,-5.1883,-5.1883,-5.1883,-5.1883,-5.1883,-5.1883,-5.1883,-5.1903,-5.0105,-4.6425,-4.6391,-4.6433,-4.6433,-4.6385,-4.6252,-5.7183,-5.8065,-5.7728,-5.6382,-5.4588,-5.1478,-4.5034,-4.1632,-3.8234,-3.2516,-3.0899,-3.0604,-3.0706,-3.2757,-3.5308,-3.8033,-4.3095,-4.7599,-5.0523,-5.3414,-5.5485,-5.6252,-5.6359,-5.6359,-5.6359,-5.6359,-5.6359,-5.6359,-5.6359,-5.6359,-5.6359,-5.6359,-5.6359,-5.6359,-5.6359,-5.6359,-5.6359,-5.6359,-5.6314,-5.6105,-5.5477,-5.5109,-5.494,-5.3653,-5.3073,-5.3013,-5.2238,-5.1883,-5.1883,-5.1883,-5.1883,-5.1883,-5.1883,-5.1883,-5.1883,-5.1883,-5.1883,-5.1883,-5.1883,-5.1883,-5.1883,-5.1883,-5.1752,-5.162,-5.162,-5.1454,-5.1288,-5.1288,-5.1288,-5.1288,-5.1288,-5.1288,-5.1288,-5.1521,-5.1752,-5.1883,-5.1883,-5.1883,-5.1883,-5.1883,-5.1752,-5.162,-5.162,-5.1519,-5.1583,-5.1846,-5.1878,-5.1878,-5.1878,-5.1878,-5.1878,-5.1878,-5.1916,-5.1883,-5.1883,-5.1883,-5.1883,-5.1883,-5.1883,-5.1883,-5.1883,-5.1883,-5.1883,-5.1883,-5.1903,-5.1488,-5.0597,-5.0623,-5.0643,-5.0643,-5.0651,-4.888,-5.8304,-5.9126,-5.8887,-5.799,-5.6532,-5.3963,-4.8505,-4.5396,-4.2025,-3.6272,-3.4324,-3.3813,-3.4231,-3.6441,-3.9386,-4.289,-4.7393,-5.1169,-5.3254,-5.5156,-5.6359,-5.6359,-5.6359,-5.6359,-5.6359,-5.6359,-5.6359,-5.6359,-5.6359,-5.6359,-5.6359,-5.6359,-5.6359,-5.6359,-5.6359,-5.6359,-5.6359,-5.6359,-5.6359,-5.6359,-5.5931,-5.5754,-5.5706,-5.4592,-5.3937,-5.3605,-5.2931,-5.2401,-5.1883,-5.1883,-5.1883,-5.1883,-5.1883,-5.1883,-5.1883,-5.1883,-5.1883,-5.1883,-5.1883,-5.1883,-5.1883,-5.1883,-5.1883,-5.1883,-5.1883,-5.1883,-5.1883,-5.1883,-5.1883,-5.1883,-5.1883,-5.1883,-5.1883,-5.1883,-5.1883,-5.1883,-5.1883,-5.1883,-5.1883,-5.1883,-5.1883,-5.1883,-5.1883,-5.1883,-5.1883,-5.1883,-5.1883,-5.1883,-5.1883,-5.1883,-5.1883,-5.1883,-5.1883,-5.1883,-5.1883,-5.1883,-5.1883,-5.1883,-5.1883,-5.1883,-5.1883,-5.1883,-5.1883,-5.1883,-5.188,-5.1909,-5.1909,-5.1891,-5.1913,-5.1913,-5.188,-5.0809,-5.8341,-5.9224,-5.9089,-5.9089,-5.7803,-5.5703,-5.2471,-4.9447,-4.5886,-4.09,-3.8324,-3.7224,-3.819,-4.0266,-4.3217,-4.7587,-5.0792,-5.3475,-5.5627,-5.5976,-5.6083,-5.6323,-5.6359,-5.6359,-5.6359,-5.6359,-5.6359,-5.6359,-5.6359,-5.6359,-5.6359,-5.6359,-5.6359,-5.6359,-5.6359,-5.6359,-5.6359,-5.6359,-5.6359,-5.6359,-5.6359,-5.6359,-5.6359,-5.5574,-5.494,-5.4392,-5.3868,-5.3154,-5.2335,-5.2569,-5.2372,-5.1913,-5.1916,-5.1883,-5.1883,-5.1883,-5.1883,-5.1883,-5.1883,-5.1883,-5.1883,-5.1883,-5.1883,-5.1883,-5.1883,-5.1883,-5.1883,-5.1883,-5.1883,-5.1883,-5.1883,-5.1883,-5.1883,-5.1883,-5.1883,-5.1883,-5.1883,-5.1883,-5.1883,-5.1883,-5.1883,-5.1883,-5.1883,-5.1883,-5.1883,-5.1883,-5.1883,-5.1883,-5.1883,-5.1883,-5.1883,-5.1883,-5.1883,-5.1883,-5.1883,-5.1883,-5.1883,-5.1883,-5.1883,-5.1883,-5.1883,-5.1883,-5.1883,-5.1883,-5.1883,-5.1883,-5.1883,-5.1883,-5.1883,-5.1883,-5.1873,-5.1928,-5.8027,-5.9261,-5.9224,-5.9089,-5.7803,-5.6002,-5.3809,-5.1936,-4.9992,-4.7541,-4.5379,-4.3987,-4.4138,-4.6632,-4.8346,-4.7415,-5.1233,-5.4342,-5.4349,-5.4335,-5.487,-5.6216,-5.6359,-5.6359,-5.6359,-5.6359,-5.6359,-5.6359,-5.6359,-5.6359,-5.6359,-5.6359,-5.6359,-5.6359,-5.6359,-5.6359,-5.6359,-5.6359,-5.6359,-5.6359,-5.6359,-5.6359,-5.6359,-5.5574,-5.5194,-5.5042,-5.4723,-5.4392,-5.3995,-5.5238,-5.424,-5.191,-5.1911,-5.1883,-5.1883,-5.1883,-5.1883,-5.1883,-5.1883,-5.1883,-5.1883,-5.1883,-5.1883,-5.1883,-5.1883,-5.1883,-5.1883,-5.1883,-5.1883,-5.1883,-5.1883,-5.1883,-5.1883,-5.1883,-5.1883,-5.1883,-5.1883,-5.1883,-5.1883,-5.1883,-5.1883,-5.1883,-5.1883,-5.1883,-5.1883,-5.1883,-5.1883,-5.1883,-5.1883,-5.1883,-5.1883,-5.1883,-5.1883,-5.1883,-5.1883,-5.1883,-5.1883,-5.1883,-5.1883,-5.1883,-5.1883,-5.1883,-5.1883,-5.1883,-5.1883,-5.1883,-5.1883,-5.1883,-5.1883,-5.1883,-5.1916,-5.1883,-5.583,-5.7959,-5.9261,-5.9224,-5.8588,-5.7519,-5.5711,-5.4778,-5.345,-5.0597,-4.8571,-4.7121,-4.6674,-4.8834,-5.0578,-5.0081,-5.3762,-5.6489,-5.5851,-5.5973,-5.634,-5.685,-5.7024,-5.7096,-5.7096,-5.6652,-5.6359,-5.6359,-5.6359,-5.6359,-5.6359,-5.6359,-5.6359,-5.6359,-5.6359,-5.6359,-5.6359,-5.6359,-5.6359,-5.6359,-5.6359,-5.6359,-5.6359,-5.6013,-5.5622,-5.5194,-5.5079,-5.52,-5.5483,-5.6108,-5.4576,-5.1892,-5.1877,-5.1896,-5.19,-5.1882,-5.1883,-5.1883,-5.1883,-5.2304,-5.2687,-5.2111,-5.1883,-5.1883,-5.1883,-5.1883,-5.1883,-5.1883,-5.1883,-5.1883,-5.1883,-5.1883,-5.1883,-5.1883,-5.1883,-5.1883,-5.1883,-5.1883,-5.1883,-5.1883,-5.1883,-5.1883,-5.1883,-5.1883,-5.1883,-5.1883,-5.1883,-5.1883,-5.1883,-5.1883,-5.1883,-5.1883,-5.1883,-5.1883,-5.1883,-5.1883,-5.1883,-5.1883,-5.1883,-5.1883,-5.1883,-5.1883,-5.1883,-5.1883,-5.1883,-5.1883,-5.1883,-5.1883,-5.1883,-5.1883,-5.1883,-5.1883,-5.3791,-5.6317,-5.8274,-5.9149,-5.9261,-5.8813,-5.7541,-5.7198,-5.6457,-5.3843,-5.1878,-5.0449,-4.9871,-5.126,-5.2529,-5.2483,-5.5417,-5.7479,-5.6787,-5.6966,-5.7182,-5.7404,-5.7804,-5.7984,-5.7756,-5.6916,-5.6374,-5.6359,-5.6488,-5.6545,-5.6545,-5.6448,-5.6359,-5.6359,-5.6359,-5.6413,-5.6545,-5.6545,-5.6632,-5.673,-5.6632,-5.6545,-5.6545,-5.6448,-5.6059,-5.5526,-5.5526,-5.5821,-5.6388,-5.6368,-5.5058,-5.3004,-5.264,-5.2223,-5.1936,-5.2378,-5.2587,-5.2654,-5.2491,-5.2992,-5.3575,-5.2774,-5.2491,-5.2491,-5.2238,-5.2174,-5.2174,-5.2174,-5.2078,-5.1949,-5.2143,-5.2078,-5.1883,-5.1883,-5.1883,-5.1883,-5.1883,-5.1883,-5.1883,-5.1883,-5.1883,-5.1883,-5.1883,-5.1883,-5.1883,-5.1883,-5.1883,-5.1883,-5.1883,-5.1883,-5.1883,-5.1883,-5.1883,-5.1883,-5.1883,-5.1883,-5.1883,-5.1883,-5.1883,-5.1883,-5.1883,-5.1883,-5.1883,-5.1883,-5.1883,-5.1883,-5.1883,-5.1883,-5.1883,-5.1883,-5.1883,-5.1883,-5.2854,-5.4728,-5.5608,-5.8686,-5.9373,-5.9261,-5.9187,-5.9052,-5.8902,-5.8715,-5.7051,-5.5575,-5.5572,-5.5646,-5.5137,-5.3327,-5.4767,-5.5989,-5.5544,-5.548,-5.6067,-5.7541,-5.8492,-5.8682,-5.7795,-5.6913,-5.6381,-5.6382,-5.6858,-5.7134,-5.7134,-5.6632,-5.6359,-5.6359,-5.6359,-5.6632,-5.7094,-5.7134,-5.7294,-5.7656,-5.7294,-5.7134,-5.7094,-5.6589,-5.6359,-5.6278,-5.6278,-5.6314,-5.6375,-5.635,-5.6292,-5.6016,-5.4639,-5.3217,-5.2072,-5.356,-5.4344,-5.4641,-5.4276,-5.4173,-5.4207,-5.4117,-5.4117,-5.4005,-5.3253,-5.3013,-5.3013,-5.3013,-5.2458,-5.2078,-5.283,-5.2491,-5.1883,-5.1883,-5.1883,-5.1883,-5.1883,-5.1883,-5.1883,-5.1883,-5.1883,-5.1883,-5.1883,-5.1883,-5.1883,-5.1883,-5.1883,-5.1883,-5.1883,-5.1883,-5.1883,-5.1883,-5.1883,-5.1883,-5.1883,-5.1883,-5.1883,-5.1883,-5.1883,-5.1883,-5.1883,-5.1883,-5.1883,-5.1883,-5.1883,-5.1883,-5.1883,-5.1883,-5.1883,-5.1883,-5.1883,-5.1883,-4.8893,-5.141,-5.3846,-5.7258,-5.7908,-5.7945,-5.9014,-5.9187,-5.9089,-5.9224,-5.7689,-5.6351,-5.6266,-5.6301,-5.604,-5.51,-5.6647,-5.7802,-5.7346,-5.7554,-5.7868,-5.8063,-5.8691,-5.8956,-5.8651,-5.7266,-5.6618,-5.7211,-5.7259,-5.7333,-5.7516,-5.737,-5.714,-5.6891,-5.714,-5.7181,-5.7173,-5.7173,-5.7332,-5.7724,-5.7623,-5.7406,-5.7134,-5.6973,-5.6718,-5.6359,-5.6359,-5.6359,-5.6359,-5.6354,-5.6367,-5.625,-5.4813,-5.3898,-5.3464,-5.4027,-5.4297,-5.4476,-5.4767,-5.4888,-5.4784,-5.4392,-5.4228,-5.4173,-5.3892,-5.3835,-5.3835,-5.3835,-5.3571,-5.3455,-5.3744,-5.3571,-5.3396,-5.3396,-5.3396,-5.3396,-5.3396,-5.3013,-5.2645,-5.2645,-5.2238,-5.1883,-5.1883,-5.1883,-5.1883,-5.1883,-5.1883,-5.1883,-5.1883,-5.1883,-5.1883,-5.1883,-5.1883,-5.1883,-5.1883,-5.1883,-5.1883,-5.1883,-5.1883,-5.1883,-5.1883,-5.1883,-5.1883,-5.1883,-5.1883,-5.1883,-5.1883,-5.1883,-5.1883,-5.1883,-5.1883,-5.1883,-4.4938,-4.798,-5.1312,-5.4836,-5.5891,-5.6517,-5.8132,-5.8454,-5.8566,-5.9187,-5.8349,-5.7482,-5.7368,-5.7441,-5.7385,-5.7083,-5.8211,-5.8981,-5.8606,-5.8896,-5.8944,-5.8606,-5.8904,-5.9073,-5.9111,-5.8016,-5.7554,-5.8137,-5.7835,-5.7698,-5.7919,-5.7825,-5.7586,-5.7369,-5.7586,-5.7656,-5.7552,-5.7552,-5.7758,-5.8211,-5.8211,-5.7891,-5.7332,-5.7054,-5.6766,-5.6632,-5.6448,-5.6493,-5.6704,-5.6448,-5.6359,-5.6242,-5.5317,-5.4949,-5.4936,-5.4938,-5.4923,-5.5026,-5.5428,-5.5574,-5.5526,-5.5077,-5.4923,-5.4923,-5.4626,-5.4573,-5.4573,-5.4573,-5.4446,-5.4283,-5.4466,-5.4358,-5.4228,-5.4228,-5.4228,-5.4228,-5.4228,-5.3801,-5.3455,-5.3455,-5.3073,-5.2707,-5.2707,-5.2707,-5.2583,-5.2365,-5.2302,-5.2428,-5.2645,-5.2558,-5.2498,-5.2631,-5.2177,-5.1883,-5.1883,-5.1883,-5.1883,-5.1883,-5.1883,-5.1883,-5.1883,-5.1883,-5.1883,-5.1883,-5.1883,-5.1883,-5.1883,-5.1883,-5.1883,-5.1883,-5.1883,-5.1883,-4.1496,-4.47,-4.7943,-5.1442,-5.3485,-5.5024,-5.6405,-5.6779,-5.725,-5.8835,-5.9284,-5.9373,-5.9261,-5.9261,-5.9261,-5.9089,-5.9089,-5.9089,-5.9089,-5.9089,-5.9089,-5.9089,-5.9089,-5.9106,-5.9102,-5.907,-5.9089,-5.9089,-5.8495,-5.8193,-5.8341,-5.7983,-5.7758,-5.7758,-5.7758,-5.7951,-5.8313,-5.8313,-5.858,-5.9089,-5.9089,-5.859,-5.7758,-5.6819,-5.6682,-5.7098,-5.6596,-5.6753,-5.7278,-5.6668,-5.6404,-5.6359,-5.6359,-5.6359,-5.6404,-5.6368,-5.6413,-5.6413,-5.6413,-5.6413,-5.6413,-5.6413,-5.6413,-5.6278,-5.5526,-5.5259,-5.5294,-5.5244,-5.4784,-5.4446,-5.5093,-5.4784,-5.4283,-5.4283,-5.4283,-5.4283,-5.4283,-5.4283,-5.4283,-5.4283,-5.4228,-5.4228,-5.4228,-5.4228,-5.4005,-5.3253,-5.31,-5.3396,-5.4117,-5.38,-5.3692,-5.4218,-5.2887,-5.1982,-5.2014,-5.1982,-5.1883,-5.1883,-5.1883,-5.1916,-5.1916,-5.1916,-5.1883,-5.1883,-5.1883,-5.1883,-5.1883,-5.1883,-5.1883,-5.1883,-5.1883,-5.1883,-4.2939,-4.3774,-4.4415,-4.7817,-4.9867,-5.1152,-5.1611,-5.254,-5.3846,-5.5674,-5.6825,-5.7586,-5.7833,-5.864,-5.9261,-5.9261,-5.9126,-5.9089,-5.9089,-5.9089,-5.9089,-5.9089,-5.9089,-5.9103,-5.9106,-5.908,-5.9089,-5.9089,-5.8907,-5.8858,-5.8896,-5.8759,-5.8563,-5.8167,-5.8536,-5.859,-5.8313,-5.8313,-5.858,-5.9089,-5.8721,-5.858,-5.8707,-5.8076,-5.7722,-5.7551,-5.7407,-5.7294,-5.7206,-5.7303,-5.6976,-5.6359,-5.6359,-5.6359,-5.6457,-5.6922,-5.7188,-5.7333,-5.7333,-5.7333,-5.7333,-5.7333,-5.7333,-5.7259,-5.6783,-5.6616,-5.6488,-5.6161,-5.5919,-5.5824,-5.6013,-5.5919,-5.5789,-5.5789,-5.5789,-5.5789,-5.5789,-5.5329,-5.494,-5.494,-5.4573,-5.4228,-5.4228,-5.4228,-5.4173,-5.3949,-5.4323,-5.4538,-5.4283,-5.4096,-5.4211,-5.461,-5.3651,-5.3624,-5.5044,-5.3126,-5.1883,-5.1883,-5.187,-5.1916,-5.1916,-5.1903,-5.1901,-5.1901,-5.1901,-5.1901,-5.1901,-5.1901,-5.1901,-5.1901,-5.1901,-5.1901,-3.7814,-3.8739,-3.9917,-4.332,-4.4876,-4.6483,-4.9968,-5.0947,-5.2006,-5.521,-5.6543,-5.7353,-5.8146,-5.8416,-5.864,-5.9187,-5.9224,-5.9126,-5.9089,-5.9089,-5.9089,-5.9089,-5.9187,-5.9261,-5.9261,-5.9126,-5.9089,-5.9089,-5.9089,-5.9089,-5.9089,-5.9089,-5.8944,-5.8633,-5.892,-5.8981,-5.8633,-5.867,-5.8809,-5.9089,-5.8784,-5.8696,-5.8784,-5.8462,-5.8107,-5.7724,-5.7724,-5.769,-5.7658,-5.7735,-5.7437,-5.6905,-5.654,-5.6396,-5.6476,-5.7333,-5.7688,-5.7724,-5.7724,-5.7724,-5.7724,-5.7724,-5.7724,-5.769,-5.7443,-5.7406,-5.7332,-5.7022,-5.6941,-5.6941,-5.6941,-5.6941,-5.6941,-5.6941,-5.6814,-5.6718,-5.6718,-5.6161,-5.5706,-5.5706,-5.5414,-5.5163,-5.5163,-5.5163,-5.5163,-5.5163,-5.5463,-5.5561,-5.5128,-5.5163,-5.5096,-5.501,-5.451,-5.4576,-5.5387,-5.4447,-5.3221,-5.2005,-5.1903,-5.2491,-5.3708,-5.3743,-5.3794,-5.3794,-5.3794,-5.3794,-5.3794,-5.3794,-5.3794,-5.3794,-5.3794,-5.379,-2.9375,-3.1872,-3.5162,-3.8005,-3.8937,-4.1041,0.0,-4.9049,-4.9587,-5.4399,-5.5766,-5.6538,-5.8011,-5.7623,-5.7459,-5.8827,-5.9224,-5.9261,-5.9126,-5.9126,-5.9134,-5.9126,-5.935,-5.9478,-5.9486,-5.9261,-5.9126,-5.9089,-5.9089,-5.9089,-5.9089,-5.9089,-5.9089,-5.9089,-5.9089,-5.9089,-5.9089,-5.9089,-5.9089,-5.9089,-5.9089,-5.8871,-5.8397,-5.8397,-5.8197,-5.7891,-5.7891,-5.8076,-5.8369,-5.8025,-5.7902,-5.7832,-5.6994,-5.6698,-5.6797,-5.7854,-5.8075,-5.7891,-5.7891,-5.7891,-5.7891,-5.7891,-5.7891,-5.7858,-5.7758,-5.7758,-5.7755,-5.769,-5.769,-5.7724,-5.7724,-5.7724,-5.7724,-5.7724,-5.7443,-5.7215,-5.7215,-5.685,-5.6545,-5.6545,-5.6545,-5.6501,-5.6457,-5.6457,-5.6457,-5.6509,-5.6413,-5.6404,-5.6448,-5.6404,-5.6105,-5.5428,-5.5343,-5.5042,-5.4392,-5.5572,-5.5221,-5.258,-5.2408,-5.3609,-5.6256,-5.64,-5.6365,-5.6365,-5.6365,-5.6365,-5.6365,-5.6365,-5.6365,-5.6365,-5.6365,-5.6382,0.0,0.0,0.0,0.0,0.0,0.0,0.0,-3.6947,-3.8674,-4.2481,-4.5286,-4.7607,-4.9473,-5.2748,-5.5698,-5.7422,-5.8678,-5.9448,-5.9411,-5.9411,-5.9397,-5.9388,-5.9431,-5.9485,-5.9493,-5.9448,-5.9336,-5.9089,-5.9089,-5.9089,-5.9089,-5.9089,-5.9089,-5.9089,-5.9089,-5.9089,-5.9089,-5.9089,-5.9089,-5.9089,-5.9089,-5.9028,-5.8944,-5.8944,-5.8896,-5.8846,-5.8846,-5.8871,-5.8957,-5.888,-5.8851,-5.8783,-5.8636,-5.8543,-5.8598,-5.8846,-5.8884,-5.8846,-5.8846,-5.8846,-5.8846,-5.8846,-5.8846,-5.8707,-5.7956,-5.7951,-5.8076,-5.7407,-5.748,-5.7724,-5.7724,-5.7724,-5.7724,-5.7724,-5.7656,-5.7621,-5.7621,-5.7515,-5.7479,-5.7479,-5.7479,-5.737,-5.7018,-5.7014,-5.7098,-5.7407,-5.6819,-5.6501,-5.6932,-5.6632,-5.6278,-5.6187,-5.6151,-5.5836,-5.5093,-5.5844,-5.6112,-5.5517,-5.5463,-5.5774,-5.6367,-5.6377,-5.6367,-5.6367,-5.6367,-5.6367,-5.6367,-5.6367,-5.6367,-5.6367,-5.6367,-5.6354,0.0,0.0,0.0,0.0,0.0,0.0,0.0,0.0,0.0,0.0,0.0,-4.3264,-4.6804,0.0,-5.1855,-5.4427,-5.6816,-5.8355,-5.8236,-5.8966,-5.9554,-5.9759,-5.9672,-5.9647,-5.9755,-5.9777,-5.9703,-5.9583,-5.9261,-5.9089,-5.9089,-5.9089,-5.9126,-5.9187,-5.9126,-5.9089,-5.9089,-5.9089,-5.9089,-5.9089,-5.9089,-5.9089,-5.9089,-5.9089,-5.9089,-5.9089,-5.9089,-5.9089,-5.9089,-5.9095,-5.91,-5.9111,-5.9111,-5.9079,-5.9089,-5.9089,-5.9089,-5.9089,-5.9089,-5.9089,-5.9089,-5.9089,-5.9089,-5.9005,-5.8536,-5.8563,-5.8644,-5.8248,-5.8241,-5.8387,-5.8387,-5.8387,-5.8387,-5.8387,-5.8204,-5.8014,-5.8014,-5.7854,-5.7724,-5.7724,-5.7724,-5.7656,-5.748,-5.7586,-5.7724,-5.7724,-5.7333,-5.7143,-5.7407,-5.7219,-5.6699,-5.5903,-5.5795,-5.5558,-5.4969,-5.5101,-5.5529,-5.6307,-5.6377,-5.6379,-5.6379,-5.6365,-5.6359,-5.6359,-5.6359,-5.6359,-5.6359,-5.6359,-5.6359,-5.6404,-5.6366,-5.6381,0.0,0.0,0.0,0.0,0.0,0.0,0.0,0.0,0.0,0.0,0.0,0.0,0.0,0.0,0.0,-5.081,-5.448,-5.6931,-5.7038,-5.824,-5.9214,-5.9529,-5.9666,-5.9853,-6.0041,-6.006,-6.0066,-6.0055,-5.9597,-5.9227,-5.9077,-5.9114,-5.9222,-5.9336,-5.9224,-5.9187,-5.9187,-5.9126,-5.9126,-5.9126,-5.9089,0.0,-5.9089,-5.9089,-5.9089,-5.9089,-5.9089,-5.9089,-5.9089,-5.9089,-5.9089,-5.9089,-5.9089,-5.9089,-5.9089,-5.9089,-5.9089,-5.9089,-5.9089,-5.9089,-5.9089,-5.9089,-5.9089,-5.9089,-5.8981,-5.9005,0.0,-5.8981,-5.9005,-5.9089,-5.9089,-5.9089,-5.9089,-5.9089,-5.8747,-5.8462,-5.8462,-5.8234,-5.7988,-5.7988,-5.7988,-5.7956,-5.7891,-5.8107,-5.8144,-5.7578,-5.7638,-5.7648,-5.7418,-5.7541,-5.7074,-5.5721,-5.5472,-5.5296,-5.4989,-5.4414,-5.4686,-5.6261,-5.5949,-5.5929,-5.6366,-5.6366,-5.6366,-5.6366,-5.6366,-5.6358,-5.6377,-5.6341,-5.6386,-5.635,-5.5113,-5.4369,0.0,0.0,0.0,0.0,0.0,0.0,0.0,0.0,0.0,0.0,0.0,0.0,0.0,0.0,0.0,0.0,-5.2068,-5.5789,-5.7252,-5.7628,-5.7781,-5.7822,-5.9147,-6.0012,-6.005,-6.0058,-6.0062,-6.0069,-5.9996,-5.9697,-5.913,-5.9319,0.0,0.0,0.0,-5.9448,-5.9448,-5.9336,-5.9261,-5.9261,-5.9126,-5.9089,-5.9089,-5.9089,-5.9089,-5.9089,-5.9089,-5.9089,-5.9089,-5.9089,-5.9089,-5.9089,-5.9089,-5.9089,-5.9089,-5.9089,-5.9089,-5.9089,-5.9089,0.0,0.0,-5.9089,-5.9089,-5.9005,-5.8553,-5.8721,-5.9005,-5.8516,-5.8721,-5.9089,-5.9089,-5.9089,-5.9089,-5.9089,-5.9066,-5.9005,-5.9005,-5.8981,-5.8957,-5.8957,-5.8957,-5.8784,-5.8313,-5.8284,-5.7942,-5.6844,-5.7309,-5.7377,-5.6303,-5.678,-5.7143,-5.6961,-5.652,0.0,-5.6207,-5.4825,-5.4686,-5.6261,-5.4415,-5.4192,-5.6265,-5.6338,-5.6338,-5.6338,-5.6383,-5.6371,-5.6381,-5.6365,-5.6376,-5.6233,-5.0657,-4.7087,0.0,0.0,0.0,0.0,0.0,0.0,0.0,0.0,0.0,0.0,0.0,0.0,0.0,0.0,0.0,0.0,-4.6691,-5.0839,-5.1568,-5.3364,-5.5354,-5.729,-5.8163,-5.8961,-5.9986,-6.008,-6.0057,-6.0057,-6.0062,-5.9944,-5.9679,-5.9406,-5.9345,-5.956,-5.9534,-5.9485,-5.9485,-5.9409,-5.9421,-5.9411,-5.9261,-5.9224,-5.9224,-5.9126,-5.9089,-5.9089,-5.9089,-5.9089,-5.9089,-5.9089,-5.9089,-5.9089,0.0,0.0,0.0,0.0,-5.9089,-5.9089,-5.9089,-5.9089,-5.9089,-5.9187,-5.9126,-5.9066,-5.902,-5.9032,-5.9066,-5.8908,-5.8957,-5.9089,-5.9089,-5.9089,-5.9089,-5.9089,-5.9089,-5.9089,-5.9089,-5.9089,-5.9089,-5.9089,-5.9089,0.0,-5.8809,-5.8747,-5.861,-5.8117,-5.8312,-5.8368,-5.7853,-5.8073,-5.7908,-5.6911,-5.6614,-5.6393,-5.6126,-5.5562,0.0,0.0,0.0,-5.5746,-5.6365,-5.6365,0.0,0.0,0.0,-5.4601,-5.0958,-4.7992,0.0,0.0,-3.7425,-3.5768,0.0,0.0,0.0,0.0,0.0,0.0,0.0,0.0,0.0,0.0,0.0,0.0,0.0,0.0,0.0,0.0,-4.1752,-4.5903,-4.5367,-4.8632,-5.1995,-5.4396,-5.596,-5.7136,-5.7833,-5.8386,-5.8809,-5.915,-5.8847,-5.9075,-6.0024,-5.9601,-5.9468,-5.977,-5.9693,-5.9638,-5.9638,-5.9596,-5.9531,-5.9523,-5.9414,-5.9339,-5.9336,-5.9261,-5.9187,-5.9187,-5.9187,-5.9187,-5.9187,-5.9187,-5.9187,-5.9224,-5.951,-5.9457,-5.9175,-5.9175,-5.9206,-5.9187,-5.9187,-5.9187,-5.9224,-5.9299,-5.9259,-5.923,-5.9419,-5.9334,-5.923,-5.9306,-5.9261,-5.9187,-5.9187,-5.9187,-5.9187,-5.9187,-5.9187,-5.9126,-5.9126,-5.9089,-5.9089,-5.9089,-5.9089,-5.9126,-5.9126,-5.9089,-5.8939,-5.8476,-5.8813,-5.8902,-5.8476,-5.8683,-5.8411,-5.7143,-5.6959,-5.677,-5.6496,-5.6174,-5.6423,-5.7405,-5.737,-5.7185,-5.6844,-5.6752,-5.5133,-5.1589,-5.3225,-5.1551,0.0,0.0,0.0,0.0,0.0,0.0,0.0,0.0,0.0,0.0,0.0,0.0,0.0,0.0,0.0,0.0,0.0,0.0,0.0,0.0,0.0,0.0,0.0,0.0,-4.0146,-4.4347,-4.7569,-4.7554,-5.2033,-5.4414,-5.2694,-5.4147,-5.562,-5.6797,-5.5809,-5.6607,-5.9872,-6.0061,-6.006,-6.006,-6.0061,-6.0061,-6.0061,-5.9774,-5.9658,-5.9673,-5.9532,-5.9479,-5.9486,-5.9448,-5.9448,-5.9448,-5.9448,-5.9448,-5.9448,-5.9448,-5.9448,-5.9493,-5.9879,-5.9822,-5.9469,-5.9469,-5.9468,-5.9448,-5.9448,-5.9448,-5.9448,-5.9486,-5.9495,-5.9457,-5.9472,-5.9475,-5.9444,-5.9489,-5.9486,-5.9448,-5.9448,-5.9448,-5.9448,-5.9448,-5.9373,-5.9299,-5.9299,-5.9187,-5.9089,-5.9089,-5.9187,-5.9299,-5.9299,-5.9187,-5.8551,-5.6906,-5.8065,0.0,-5.6831,-5.7628,-5.8304,-5.8267,-5.7909,-5.7685,-5.7685,-5.663,-5.6504,-5.7648,-5.7509,-5.7539,-5.8018,-5.7842,-5.7618,-5.746,-5.1521,-4.713,-4.4431,0.0,0.0,0.0,0.0,0.0,0.0,0.0,0.0,0.0,0.0,0.0,0.0,0.0,0.0,0.0,0.0,0.0,0.0,0.0,0.0,0.0,0.0,0.0,0.0,-4.0126,-4.4441,-4.5455,-4.8173,-5.0169,-5.0585,-5.2183,-5.2912,-5.2183,-5.392,-5.4519,-5.3418,-5.7632,-6.0062,-6.0062,-6.0062,-6.0062,-6.0062,-5.9977,-5.992,-5.992,-5.9721,-5.9605,-5.9621,-5.9513,-5.9494,-5.9494,-5.9494,-5.9494,-5.9494,-5.9494,-5.9646,-5.9889,-6.002,-5.9996,-5.9826,-5.957,-5.8627,-5.7317,-5.6524,-5.6245,-5.629,-5.6366,-5.6328,-5.6305,-5.6469,-5.6404,-5.6523,-5.7724,-5.7956,-5.8047,-5.9193,-5.9494,-5.9494,-5.9494,-5.9457,-5.9414,-5.9425,-5.9373,-5.9336,-5.9336,-5.6755,-5.4535,-5.4539,-5.5427,-5.5935,-5.536,-5.6652,-5.7833,-5.8327,-5.872,-5.8908,-5.8834,-5.8696,-5.8617,-5.8617,-5.8275,-5.8049,-5.81,-5.8033,-5.7945,-5.7868,-5.6531,-5.5889,-5.6067,-5.0981,-4.6323,-4.2233,0.0,0.0,0.0,0.0,0.0,0.0,0.0,0.0,0.0,0.0,0.0,0.0,0.0,0.0,0.0,0.0,0.0,0.0,0.0,0.0,0.0,0.0,0.0,0.0,0.0,0.0,-4.277,-4.4968,0.0,-4.6188,-4.7216,-4.7616,-4.7102,-4.7841,-4.7785,-4.6434,-4.8141,-5.2529,-5.9834,-6.0062,-6.0062,-6.0062,-5.9454,-5.9454,-6.0062,-5.9887,-5.9789,-5.9803,-5.9745,-5.97,-5.97,-5.97,-5.97,-5.9624,-5.8828,-5.8431,-5.8391,-5.9606,-5.934,-5.8237,-5.798,-5.7044,-5.5941,-5.6413,-5.6584,-5.6264,-5.4552,-5.2751,-5.1474,-5.2806,-5.2672,-5.2438,-5.4206,-5.5035,-5.5743,-5.7456,-5.8328,-5.879,-5.879,-5.9179,-5.9565,-5.9575,-5.8606,-5.7767,-5.7858,-5.5303,-5.2886,-5.225,-5.3034,-5.3716,-5.3716,-5.5104,-5.668,-5.8257,-5.896,-5.9336,-5.9261,-5.9224,-5.9224,-5.9187,-5.9187,-5.9019,-5.8606,-5.858,-5.8239,-5.7354,-5.6689,-5.5063,-5.2274,-4.8752,-4.4558,0.0,0.0,0.0,0.0,0.0,0.0,0.0,0.0,0.0,0.0,0.0,0.0,0.0,0.0,0.0,0.0,0.0,0.0,0.0,0.0,0.0,0.0,0.0,0.0,0.0,0.0,0.0,-3.9258,-4.195,0.0,0.0,0.0,0.0,-4.1591,-3.8258,-3.7133,-3.9384,-3.3171,-3.8441,-5.7896,-5.953,-5.9986,-5.9796,-5.8277,-5.8277,-5.9796,-5.9872,-5.991,-5.9948,-6.0024,-6.0062,-6.0062,-5.9986,-5.991,-5.9758,-5.7366,-5.5772,-5.505,-5.7935,-5.71,-5.4291,-5.4443,-5.4556,-5.5012,-5.8201,-5.9302,-5.8504,-5.3683,-4.8938,-4.5635,-4.8444,-4.8216,0.0,0.0,-5.0722,-5.2392,-5.429,-5.5961,-5.7214,-5.7366,-5.8434,-5.9463,-5.9463,-5.6929,-5.4642,-5.4515,-5.4332,-5.3643,-5.1846,0.0,-5.1509,-5.1606,-5.3118,-5.4884,-5.6611,-5.8313,-5.9411,-5.9493,-5.9493,-5.9419,-5.9306,-5.9299,-5.9261,-5.9089,-5.9014,-5.8252,-5.6644,-5.781,-5.4799,-4.6904,-4.4904,0.0,0.0,0.0,0.0,0.0,0.0,0.0,0.0,0.0,0.0,0.0,0.0,0.0,0.0,0.0,0.0,0.0,0.0,0.0,0.0,0.0,0.0,0.0,0.0,0.0,0.0,-2.9764,-3.1631,-3.3725,-3.3722,-3.3186,0.0,0.0,0.0,0.0,0.0,0.0,-3.4752,-3.1444,-3.1936,-3.7191,-5.2135,-5.8861,-5.6341,-5.6759,-5.6759,-5.6303,-5.7594,-5.8163,-5.8201,-5.9492,-6.0062,-5.9986,-5.8733,-5.8163,-5.786,-5.3494,-5.1519,-5.0836,-4.6752,-4.4647,-4.4192,-4.67,-4.8065,-4.8664,-4.8743,-4.8778,-4.8584,-4.726,-4.6005,-4.4382,-4.1453,0.0,0.0,0.0,0.0,-4.581,-5.0144,-5.1559,-5.2522,-5.5047,-5.5945,-5.62,-5.62,-5.551,-5.3445,-4.8444,-4.6524,-4.4743,-4.1674,-4.2241,0.0,-4.4672,-4.738,-5.0772,-5.486,-5.6853,-5.8306,-5.9359,-5.9464,-5.9464,-5.9426,-5.942,-5.9411,-5.9373,-5.8206,-5.7287,-5.6876,-5.2528,-4.8549,-4.5163,0.0,0.0,0.0,0.0,0.0,0.0,0.0,0.0,0.0,0.0,0.0,0.0,0.0,0.0,0.0,0.0,0.0,0.0,0.0,0.0,0.0,0.0,0.0,0.0,0.0,0.0,0.0,-2.7751,-2.964,-3.0747,-3.015,-2.9341,0.0,0.0,0.0,0.0,0.0,0.0,0.0,0.0,0.0,-2.5252,-4.499,-5.6156,-5.7203,-5.4941,-5.4434,-5.5762,-5.5463,-5.5696,-5.6455,-5.7437,-5.784,-5.7777,-5.6824,-5.5183,-5.2962,-5.0836,-4.6423,-4.0629,0.0,0.0,0.0,0.0,-4.1293,-4.1467,-4.2364,-4.2685,-4.2307,-4.0105,0.0,0.0,0.0,0.0,0.0,0.0,0.0,-4.2019,-4.567,-4.8833,-5.1373,-5.2516,-5.3358,-5.3696,-5.2959,-4.9801,-4.6008,-4.2312,-4.0292,-3.8297,-3.5583,-3.6582,0.0,0.0,0.0,-4.7608,-5.1109,-5.5,-5.7742,-5.8532,-5.9303,-5.9688,-5.9576,-5.9568,-5.9222,-5.8444,-5.7467,-5.5645,-5.2738,-4.8288,-4.3788,0.0,0.0,0.0,0.0,0.0,0.0,0.0,0.0,0.0,0.0,0.0,0.0,0.0,0.0,0.0,0.0,0.0,0.0,0.0,0.0,0.0,0.0,0.0,0.0,0.0,0.0,0.0,0.0,0.0,-3.0473,-2.8932,0.0,0.0,0.0,0.0,0.0,0.0,0.0,0.0,0.0,0.0,0.0,0.0,0.0,-5.0062,-5.8633,-5.2903,-5.1649,-5.4954,-5.274,-5.2278,-5.3303,-5.3537,-5.3909,-5.4305,-5.3145,0.0,-4.6432,-4.6582,0.0,0.0,0.0,0.0,0.0,0.0,0.0,0.0,0.0,0.0,0.0,0.0,0.0,0.0,0.0,0.0,0.0,0.0,0.0,0.0,0.0,0.0,-4.9797,-4.8499,-4.969,-5.0423,-4.7817,-4.1492,-3.6221,-3.6013,-3.4979,-3.3543,0.0,0.0,0.0,0.0,0.0,0.0,-4.6838,-5.3,-5.729,-5.7518,-5.9037,-5.9972,-5.9759,-5.9513,-5.8703,-5.7131,-5.6195,-5.3007,-4.7012,-4.4707,0.0,0.0,0.0,0.0,0.0,0.0,0.0,0.0,0.0,0.0,0.0,0.0,0.0,0.0,0.0,0.0,0.0,0.0,0.0,0.0,0.0,0.0,0.0,0.0,0.0,0.0,0.0,0.0,0.0,0.0,0.0,0.0,0.0,0.0,0.0,0.0,0.0,0.0,0.0,0.0,0.0,0.0,0.0,0.0,0.0,0.0,0.0,0.0,0.0,0.0,-4.6866,-4.6421,-4.4444,-4.5875,-4.8084,-5.0456,-4.3435,-4.0694,-4.0547,-3.2419,0.0,0.0,0.0,0.0,0.0,0.0,0.0,0.0,0.0,0.0,0.0,0.0,0.0,0.0,0.0,0.0,0.0,0.0,0.0,0.0,0.0,0.0,-3.7966,-3.8819,-4.146,-4.1845,-3.4664,0.0,0.0,0.0,0.0,0.0,0.0,0.0,0.0,0.0,0.0,0.0,-4.4782,-5.126,-5.5999,-5.7366,-5.9037,-6.0059,-6.0,-5.8743,-5.7764,-5.7471,-5.2195,-4.7943,0.0,0.0,0.0,0.0,0.0,0.0,0.0,0.0,0.0,0.0,0.0,0.0,0.0,0.0,0.0,0.0,0.0,0.0,0.0,0.0,0.0,0.0,0.0,0.0,0.0,0.0,0.0,0.0,0.0,0.0,0.0,0.0,0.0,0.0,0.0,0.0,0.0,0.0,0.0,0.0,0.0,0.0,0.0,0.0,0.0,0.0,0.0,0.0,0.0,0.0,0.0,0.0,0.0,0.0,0.0,0.0,0.0,0.0,-3.9059,-3.4922,0.0,0.0,0.0,0.0,0.0,0.0,0.0,0.0,0.0,0.0,0.0,0.0,0.0,0.0,0.0,0.0,0.0,0.0,0.0,0.0,0.0,0.0,0.0,0.0,0.0,0.0,0.0,0.0,0.0,0.0,0.0,0.0,0.0,0.0,0.0,0.0,0.0,0.0,0.0,0.0,-4.1752,-4.8891,-5.4291,-5.6037,-5.8411,-5.9546,-5.8808,-5.8011,-5.6037,-5.2506,-4.8406,0.0,0.0,0.0,0.0,0.0,0.0,0.0,0.0,0.0,0.0,0.0,0.0,0.0,0.0,0.0,0.0,0.0,0.0,0.0,0.0,0.0,0.0,0.0,0.0,0.0,0.0,0.0,0.0,0.0,0.0,0.0,0.0,0.0,0.0,0.0,0.0,0.0,0.0,0.0,0.0,0.0,0.0,0.0,0.0,0.0,0.0,0.0,0.0,0.0,0.0,0.0,0.0,0.0,0.0,0.0,0.0,0.0,0.0,0.0,-3.4508,-2.9183,0.0,0.0,0.0,0.0,0.0,0.0,0.0,0.0,0.0,0.0,0.0,0.0,0.0,0.0,0.0,0.0,0.0,0.0,0.0,0.0,0.0,0.0,0.0,0.0,0.0,0.0,0.0,0.0,0.0,0.0,0.0,0.0,0.0,0.0,0.0,0.0,0.0,0.0,0.0,0.0,-3.886,-4.6882,-5.2949,-5.4751,-5.7478,-5.8703,-5.7571,-5.6786,-5.3787,-4.7752,-4.4443,0.0,0.0,0.0,0.0,0.0,0.0,0.0,0.0,0.0,0.0,0.0,0.0,0.0,0.0,0.0,0.0,0.0,0.0,0.0,0.0,0.0,0.0,0.0,0.0,0.0,0.0,0.0,0.0,0.0,0.0,0.0,0.0,0.0,0.0,0.0,0.0,0.0,0.0,0.0,0.0,0.0,0.0,0.0,0.0,0.0,0.0,0.0,0.0,0.0,0.0,0.0,0.0,0.0,0.0,0.0,0.0,0.0,0.0,0.0,0.0,0.0,0.0,0.0,0.0,0.0,0.0,0.0,0.0,0.0,0.0,0.0,0.0,0.0,0.0,0.0,0.0,0.0,0.0,0.0,0.0,0.0,0.0,0.0,0.0,0.0,0.0,0.0,0.0,0.0,0.0,0.0,0.0,0.0,0.0,0.0,0.0,0.0,0.0,0.0,0.0,0.0,-3.7149,-4.6009,-5.2794,-5.4465,-5.6281,-5.731,-5.7207,-5.4387,-5.1059,-4.7483,0.0,0.0,0.0,0.0,0.0,0.0,0.0,0.0,0.0,0.0,0.0,0.0,0.0,0.0,0.0,0.0,0.0,0.0,0.0,0.0,0.0,0.0,0.0,0.0,0.0,0.0,0.0,0.0,0.0,0.0,0.0,0.0,0.0,0.0,0.0,0.0,0.0,0.0,0.0,0.0,0.0,0.0,0.0,0.0,0.0,0.0,0.0,0.0,0.0,0.0,0.0,0.0,0.0,0.0,0.0,0.0,0.0,0.0,0.0,0.0,0.0,0.0,0.0,0.0,0.0,0.0,0.0,0.0,0.0,0.0,0.0,0.0,0.0,0.0,0.0,0.0,0.0,0.0,0.0,0.0,0.0,0.0,0.0,0.0,0.0,0.0,0.0,0.0,0.0,0.0,0.0,0.0,0.0,0.0,0.0,0.0,0.0,0.0,0.0,0.0,0.0,0.0,-3.6798,-4.4908,-5.1537,-5.4315,-5.6003,-5.6562,-5.5722,-5.3469,-4.9355,-4.286,0.0,0.0,0.0,0.0,0.0,0.0,0.0,0.0,0.0,0.0,0.0,0.0,0.0,0.0,0.0,0.0,0.0,0.0,0.0,0.0,0.0,0.0,0.0,0.0,0.0,0.0,0.0,0.0,0.0,0.0,0.0,0.0,0.0,0.0,0.0,0.0,0.0,0.0,0.0,0.0,0.0,0.0,0.0,0.0,0.0,0.0,0.0,0.0,0.0,0.0,0.0,0.0,0.0,0.0,0.0,0.0,0.0,0.0,0.0,0.0,0.0,0.0,0.0,0.0,0.0,0.0,0.0,0.0,0.0,0.0,0.0,0.0,0.0,0.0,0.0,0.0,0.0,0.0,0.0,0.0,0.0,0.0,0.0,0.0,0.0,0.0,0.0,0.0,0.0,0.0,0.0,0.0,0.0,0.0,0.0,0.0,0.0,0.0,0.0,0.0,0.0,0.0,-3.5897,-4.3487,-5.0119,-5.409,-5.4966,-5.5031,-5.4365,-5.2017,-4.7073,-3.8858,0.0,0.0,0.0,0.0,0.0,0.0,0.0,0.0,0.0,0.0,0.0,0.0,0.0,0.0,0.0,0.0,0.0,0.0,0.0,0.0,0.0,0.0,0.0,0.0,0.0,0.0,0.0,0.0,0.0,0.0,0.0,0.0,0.0,0.0,0.0,0.0,0.0,0.0,0.0,0.0,0.0,0.0,0.0,0.0,0.0,0.0,0.0,0.0,0.0,0.0,0.0,0.0,0.0,0.0,0.0,0.0,0.0,0.0,0.0,0.0,0.0,0.0,0.0,0.0,0.0,0.0,0.0,0.0,0.0,0.0,0.0,0.0,0.0,0.0,0.0,0.0,0.0,0.0,0.0,0.0,0.0,0.0,0.0,0.0,0.0,0.0,0.0,0.0,0.0,0.0,0.0,0.0,0.0,0.0,0.0,0.0,0.0,0.0,0.0,0.0,0.0,0.0,-3.4004,-4.1623,-4.8774,-5.369,-5.2756,-5.2278,-5.3562,-4.9513,-4.3827,0.0,0.0,0.0,0.0,0.0,0.0,0.0,0.0,0.0,0.0,0.0,0.0,0.0,0.0,0.0,0.0,0.0,0.0,0.0,0.0,0.0,0.0,0.0,0.0,0.0,0.0,0.0,0.0,0.0,0.0,0.0,0.0,0.0,0.0,0.0,0.0,0.0,0.0,0.0,0.0,0.0,0.0,0.0,0.0,0.0,0.0,0.0,0.0,0.0,0.0,0.0,0.0,0.0,0.0,0.0,0.0,0.0,0.0,0.0,0.0,0.0,0.0,0.0,0.0,0.0,0.0,0.0,0.0,0.0,0.0,0.0,0.0,0.0,0.0,0.0,0.0,0.0,0.0,0.0,0.0,0.0,0.0,0.0,0.0,0.0,0.0,0.0,0.0,0.0,0.0,0.0,0.0,0.0,0.0,0.0,0.0,0.0,0.0,0.0,0.0,0.0,0.0,0.0,-3.3485,-4.0059,-4.6735,-5.2671,-5.1858,-5.1536,-5.2981,-4.8778,-4.3161,-3.6299,0.0,0.0,0.0,0.0,0.0,0.0,0.0,0.0,0.0,0.0,0.0,0.0,0.0,0.0,0.0,0.0,0.0,0.0,0.0,0.0,0.0,0.0,0.0,0.0,0.0,0.0,0.0,0.0,0.0,0.0,0.0,0.0,0.0,0.0,0.0,0.0,0.0,0.0,0.0,0.0,0.0,0.0,0.0,0.0,0.0,0.0,0.0,0.0,0.0,0.0,0.0,0.0,0.0,0.0,0.0,0.0,0.0,0.0,0.0,0.0,0.0,0.0,0.0,0.0,0.0,0.0,0.0,0.0,0.0,0.0,0.0,0.0,0.0,0.0,0.0,0.0,0.0,0.0,0.0,0.0,0.0,0.0,0.0,0.0,0.0,0.0,0.0,0.0,0.0,0.0,0.0,0.0,0.0,0.0,0.0,0.0,0.0,0.0,0.0,0.0,0.0,0.0,0.0,-3.8909,-4.5342,-5.0563,-5.0233,-5.0248,-5.1631,-4.7507,-4.1901,-3.511,0.0,0.0,0.0,0.0,0.0,0.0,0.0,0.0,0.0,0.0,0.0,0.0,0.0,0.0,0.0,0.0,0.0,0.0,0.0,0.0,0.0,0.0,0.0,0.0,0.0,0.0,0.0,0.0,0.0,0.0,0.0,0.0,0.0,0.0,0.0,0.0,0.0,0.0,0.0,0.0,0.0,0.0,0.0,0.0,0.0,0.0,0.0,0.0,0.0,0.0,0.0,0.0,0.0,0.0,0.0,0.0,0.0,0.0,0.0,0.0,0.0,0.0,0.0,0.0,0.0,0.0,0.0,0.0,0.0,0.0,0.0,0.0,0.0,0.0,0.0,0.0,0.0,0.0,0.0,0.0,0.0,0.0,0.0,0.0,0.0,0.0,0.0,0.0,0.0,0.0,0.0,0.0,0.0,0.0,0.0,0.0,0.0,0.0,0.0,0.0,0.0,0.0,0.0,-3.8025,-4.4248,-4.7775,-4.8122,-4.8605,-4.9816,-4.5816,-4.0297,-3.3312,-3.0143,0.0,0.0,0.0,0.0,0.0,0.0,0.0,0.0,0.0,0.0,0.0,0.0,0.0,0.0,0.0,0.0,0.0,0.0,0.0,0.0,0.0,0.0,0.0,0.0,0.0,0.0,0.0,0.0,0.0,0.0,0.0,0.0,0.0,0.0,0.0,0.0,0.0,0.0,0.0,0.0,0.0,0.0,0.0,0.0,0.0,0.0,0.0,0.0,0.0,0.0,0.0,0.0,0.0,0.0,0.0,0.0,0.0,0.0,0.0,0.0,0.0,0.0,0.0,0.0,0.0,0.0,0.0,0.0,0.0,0.0,0.0,0.0,0.0,0.0,0.0,0.0,0.0,0.0,0.0,0.0,0.0,0.0,0.0,0.0,0.0,0.0,0.0,0.0,0.0,0.0,0.0,0.0,0.0,0.0,0.0,0.0,0.0,0.0,0.0,0.0,0.0,0.0,-3.5483,-4.105,-4.67,-4.7311,-4.7923,-4.9392,-4.5266,-3.9816,-3.3259,-2.9967,0.0,0.0,0.0,0.0,0.0,0.0,0.0,0.0,0.0,0.0,0.0,0.0,0.0,0.0,0.0,0.0,0.0,0.0,0.0,0.0,0.0,0.0,0.0,0.0,0.0,0.0,0.0,0.0,0.0,0.0,0.0,0.0,0.0,0.0,0.0,0.0,0.0,0.0,0.0,0.0,0.0,0.0,0.0,0.0,0.0,0.0,0.0,0.0,0.0,0.0,0.0,0.0,0.0,0.0,0.0,0.0,0.0,0.0,0.0,0.0,0.0,0.0,0.0,0.0,0.0,0.0,0.0,0.0,0.0,0.0,0.0,0.0,0.0,0.0,0.0,0.0,0.0,0.0,0.0,0.0,0.0,0.0,0.0,0.0,0.0,0.0,0.0,0.0,0.0,0.0,0.0,0.0,0.0,0.0,0.0,0.0,0.0,0.0,0.0,0.0,0.0,0.0,-3.1217,-3.6297,-4.4223,-4.6448,-4.7635,-4.8498,-4.4771,-3.9636,-3.3259,-2.9908,0.0,0.0,0.0,0.0,0.0,0.0,0.0,0.0,0.0,0.0,0.0,0.0,0.0,0.0,0.0,0.0,0.0,0.0,0.0,0.0,0.0,0.0,0.0,0.0,0.0,0.0,0.0,0.0,0.0,0.0,0.0,0.0,0.0,0.0,0.0,0.0,0.0,0.0,0.0,0.0,0.0,0.0,0.0,0.0,0.0,0.0,0.0,0.0,0.0,0.0,0.0,0.0,0.0,0.0,0.0,0.0,0.0,0.0,0.0,0.0,0.0,0.0,0.0,0.0,0.0,0.0,0.0,0.0,0.0,0.0,0.0,0.0,0.0,0.0,0.0,0.0,0.0,0.0,0.0,0.0,0.0,0.0,0.0,0.0,0.0,0.0,0.0,0.0,0.0,0.0,0.0,0.0,0.0,0.0,0.0,0.0,0.0,0.0,0.0,0.0,0.0,0.0,0.0,-3.1709,-4.0754,-4.5255,-4.7505,-4.7288,-4.4258,-3.9565,-3.2903,0.0,0.0,0.0,0.0,0.0,0.0,0.0,0.0,0.0,0.0,0.0,0.0,0.0,0.0,0.0,0.0,0.0,0.0,0.0,0.0,0.0,0.0,0.0,0.0,0.0,0.0,0.0,0.0,0.0,0.0,0.0,0.0,0.0,0.0,0.0,0.0,0.0,0.0,0.0,0.0,0.0,0.0,0.0,0.0,0.0,0.0,0.0,0.0,0.0,0.0,0.0,0.0,0.0,0.0,0.0,0.0,0.0,0.0,0.0,0.0,0.0,0.0,0.0,0.0,0.0,0.0,0.0,0.0,0.0,0.0,0.0,0.0,0.0,0.0,0.0,0.0,0.0,0.0,0.0,0.0,0.0,0.0,0.0,0.0,0.0,0.0,0.0,0.0,0.0,0.0,0.0,0.0,0.0,0.0,0.0,0.0,0.0,0.0,0.0,0.0,0.0,0.0,0.0,0.0,-3.0679,-3.6246,-4.3292,-4.7071,-4.5763,-4.3648,-3.9096,-3.1359,0.0,0.0,0.0,0.0,0.0,0.0,0.0,0.0,0.0,0.0,0.0,0.0,0.0,0.0]}]]]